<?xml version="1.0" encoding="UTF-8" standalone="no" ?>
<gpx xmlns="http://www.topografix.com/GPX/1/1" xmlns:xsi="http://www.w3.org/2001/XMLSchema-instance" xsi:schemaLocation="http://www.topografix.com/GPX/1/1 http://www.topografix.com/GPX/1/1/gpx.xsd" version="1.1" creator="VisuGPX - https://www.visugpx.com">
  <metadata>
    <name>Sun Trip 2019</name>
    <desc><![CDATA[Le parcours du Sun Trip 2019]]></desc>
  </metadata>
  <trk>
    <name><![CDATA[J4]]></name>
    <trkseg>
      <trkpt lat="45.8488" lon="2.89424">
        <ele>815</ele>
        <time>2019-04-17T09:50:41Z</time>
      </trkpt>
      <trkpt lat="45.84881" lon="2.89444">
        <ele>815</ele>
        <time>2019-04-17T09:51:41Z</time>
      </trkpt>
      <trkpt lat="45.84829" lon="2.8963">
        <ele>810</ele>
        <time>2019-04-17T09:52:41Z</time>
      </trkpt>
      <trkpt lat="45.84826" lon="2.89654">
        <ele>808</ele>
        <time>2019-04-17T09:53:41Z</time>
      </trkpt>
      <trkpt lat="45.84837" lon="2.89758">
        <ele>809</ele>
        <time>2019-04-17T09:54:41Z</time>
      </trkpt>
      <trkpt lat="45.84851" lon="2.89853">
        <ele>815</ele>
        <time>2019-04-17T09:55:41Z</time>
      </trkpt>
      <trkpt lat="45.84831" lon="2.89865">
        <ele>815</ele>
        <time>2019-04-17T09:56:41Z</time>
      </trkpt>
      <trkpt lat="45.84814" lon="2.8988">
        <ele>816</ele>
        <time>2019-04-17T09:57:41Z</time>
      </trkpt>
      <trkpt lat="45.84798" lon="2.89898">
        <ele>816</ele>
        <time>2019-04-17T09:58:41Z</time>
      </trkpt>
      <trkpt lat="45.84784" lon="2.89919">
        <ele>817</ele>
        <time>2019-04-17T09:59:41Z</time>
      </trkpt>
      <trkpt lat="45.84758" lon="2.89978">
        <ele>819</ele>
        <time>2019-04-17T10:00:41Z</time>
      </trkpt>
      <trkpt lat="45.84741" lon="2.90007">
        <ele>820</ele>
        <time>2019-04-17T10:01:41Z</time>
      </trkpt>
      <trkpt lat="45.84731" lon="2.90021">
        <ele>821</ele>
        <time>2019-04-17T10:02:41Z</time>
      </trkpt>
      <trkpt lat="45.8472" lon="2.90033">
        <ele>822</ele>
        <time>2019-04-17T10:03:41Z</time>
      </trkpt>
      <trkpt lat="45.847" lon="2.9005">
        <ele>823</ele>
        <time>2019-04-17T10:04:41Z</time>
      </trkpt>
      <trkpt lat="45.84498" lon="2.90198">
        <ele>826</ele>
        <time>2019-04-17T10:05:41Z</time>
      </trkpt>
      <trkpt lat="45.84487" lon="2.90212">
        <ele>826</ele>
        <time>2019-04-17T10:06:41Z</time>
      </trkpt>
      <trkpt lat="45.84411" lon="2.90336">
        <ele>831</ele>
        <time>2019-04-17T10:07:41Z</time>
      </trkpt>
      <trkpt lat="45.84378" lon="2.90377">
        <ele>833</ele>
        <time>2019-04-17T10:08:41Z</time>
      </trkpt>
      <trkpt lat="45.84344" lon="2.90408">
        <ele>834</ele>
        <time>2019-04-17T10:09:41Z</time>
      </trkpt>
      <trkpt lat="45.84311" lon="2.90434">
        <ele>834</ele>
        <time>2019-04-17T10:10:41Z</time>
      </trkpt>
      <trkpt lat="45.84276" lon="2.90453">
        <ele>833</ele>
        <time>2019-04-17T10:11:41Z</time>
      </trkpt>
      <trkpt lat="45.83935" lon="2.90623">
        <ele>829</ele>
        <time>2019-04-17T10:12:41Z</time>
      </trkpt>
      <trkpt lat="45.8391" lon="2.9064">
        <ele>827</ele>
        <time>2019-04-17T10:13:41Z</time>
      </trkpt>
      <trkpt lat="45.83894" lon="2.90659">
        <ele>826</ele>
        <time>2019-04-17T10:14:41Z</time>
      </trkpt>
      <trkpt lat="45.83703" lon="2.90968">
        <ele>824</ele>
        <time>2019-04-17T10:15:41Z</time>
      </trkpt>
      <trkpt lat="45.83678" lon="2.90999">
        <ele>824</ele>
        <time>2019-04-17T10:16:41Z</time>
      </trkpt>
      <trkpt lat="45.83664" lon="2.91011">
        <ele>824</ele>
        <time>2019-04-17T10:17:41Z</time>
      </trkpt>
      <trkpt lat="45.83649" lon="2.9102">
        <ele>824</ele>
        <time>2019-04-17T10:18:41Z</time>
      </trkpt>
      <trkpt lat="45.83634" lon="2.91025">
        <ele>824</ele>
        <time>2019-04-17T10:19:41Z</time>
      </trkpt>
      <trkpt lat="45.83589" lon="2.91032">
        <ele>824</ele>
        <time>2019-04-17T10:20:41Z</time>
      </trkpt>
      <trkpt lat="45.83358" lon="2.91046">
        <ele>822</ele>
        <time>2019-04-17T10:21:41Z</time>
      </trkpt>
      <trkpt lat="45.83344" lon="2.91048">
        <ele>822</ele>
        <time>2019-04-17T10:22:41Z</time>
      </trkpt>
      <trkpt lat="45.8333" lon="2.91047">
        <ele>822</ele>
        <time>2019-04-17T10:23:41Z</time>
      </trkpt>
      <trkpt lat="45.83302" lon="2.91041">
        <ele>821</ele>
        <time>2019-04-17T10:24:41Z</time>
      </trkpt>
      <trkpt lat="45.83277" lon="2.91027">
        <ele>821</ele>
        <time>2019-04-17T10:25:41Z</time>
      </trkpt>
      <trkpt lat="45.83254" lon="2.91006">
        <ele>821</ele>
        <time>2019-04-17T10:26:41Z</time>
      </trkpt>
      <trkpt lat="45.832" lon="2.90947">
        <ele>820</ele>
        <time>2019-04-17T10:27:41Z</time>
      </trkpt>
      <trkpt lat="45.83186" lon="2.90933">
        <ele>820</ele>
        <time>2019-04-17T10:28:41Z</time>
      </trkpt>
      <trkpt lat="45.83157" lon="2.90916">
        <ele>820</ele>
        <time>2019-04-17T10:29:41Z</time>
      </trkpt>
      <trkpt lat="45.83147" lon="2.90911">
        <ele>821</ele>
        <time>2019-04-17T10:30:41Z</time>
      </trkpt>
      <trkpt lat="45.83127" lon="2.90907">
        <ele>822</ele>
        <time>2019-04-17T10:31:41Z</time>
      </trkpt>
      <trkpt lat="45.83113" lon="2.90907">
        <ele>823</ele>
        <time>2019-04-17T10:32:41Z</time>
      </trkpt>
      <trkpt lat="45.83087" lon="2.90912">
        <ele>824</ele>
        <time>2019-04-17T10:33:41Z</time>
      </trkpt>
      <trkpt lat="45.83069" lon="2.90921">
        <ele>825</ele>
        <time>2019-04-17T10:34:41Z</time>
      </trkpt>
      <trkpt lat="45.83048" lon="2.90935">
        <ele>826</ele>
        <time>2019-04-17T10:35:41Z</time>
      </trkpt>
      <trkpt lat="45.83038" lon="2.90944">
        <ele>827</ele>
        <time>2019-04-17T10:36:41Z</time>
      </trkpt>
      <trkpt lat="45.8302" lon="2.90966">
        <ele>828</ele>
        <time>2019-04-17T10:37:41Z</time>
      </trkpt>
      <trkpt lat="45.82979" lon="2.91021">
        <ele>830</ele>
        <time>2019-04-17T10:38:41Z</time>
      </trkpt>
      <trkpt lat="45.82969" lon="2.91032">
        <ele>831</ele>
        <time>2019-04-17T10:39:41Z</time>
      </trkpt>
      <trkpt lat="45.82951" lon="2.91047">
        <ele>832</ele>
        <time>2019-04-17T10:40:41Z</time>
      </trkpt>
      <trkpt lat="45.82929" lon="2.91059">
        <ele>833</ele>
        <time>2019-04-17T10:41:41Z</time>
      </trkpt>
      <trkpt lat="45.82894" lon="2.91066">
        <ele>834</ele>
        <time>2019-04-17T10:42:41Z</time>
      </trkpt>
      <trkpt lat="45.82644" lon="2.91094">
        <ele>836</ele>
        <time>2019-04-17T10:43:41Z</time>
      </trkpt>
      <trkpt lat="45.82628" lon="2.91097">
        <ele>835</ele>
        <time>2019-04-17T10:44:41Z</time>
      </trkpt>
      <trkpt lat="45.82612" lon="2.91103">
        <ele>834</ele>
        <time>2019-04-17T10:45:41Z</time>
      </trkpt>
      <trkpt lat="45.82597" lon="2.91112">
        <ele>833</ele>
        <time>2019-04-17T10:46:41Z</time>
      </trkpt>
      <trkpt lat="45.8251" lon="2.91174">
        <ele>830</ele>
        <time>2019-04-17T10:47:41Z</time>
      </trkpt>
      <trkpt lat="45.82479" lon="2.91193">
        <ele>830</ele>
        <time>2019-04-17T10:48:41Z</time>
      </trkpt>
      <trkpt lat="45.82465" lon="2.91197">
        <ele>830</ele>
        <time>2019-04-17T10:49:41Z</time>
      </trkpt>
      <trkpt lat="45.8245" lon="2.91195">
        <ele>830</ele>
        <time>2019-04-17T10:50:41Z</time>
      </trkpt>
      <trkpt lat="45.8244" lon="2.91187">
        <ele>830</ele>
        <time>2019-04-17T10:51:41Z</time>
      </trkpt>
      <trkpt lat="45.82435" lon="2.91178">
        <ele>830</ele>
        <time>2019-04-17T10:52:41Z</time>
      </trkpt>
      <trkpt lat="45.82426" lon="2.91172">
        <ele>829</ele>
        <time>2019-04-17T10:53:41Z</time>
      </trkpt>
      <trkpt lat="45.82417" lon="2.91174">
        <ele>829</ele>
        <time>2019-04-17T10:54:41Z</time>
      </trkpt>
      <trkpt lat="45.8241" lon="2.9118">
        <ele>830</ele>
        <time>2019-04-17T10:55:41Z</time>
      </trkpt>
      <trkpt lat="45.82404" lon="2.91192">
        <ele>831</ele>
        <time>2019-04-17T10:56:41Z</time>
      </trkpt>
      <trkpt lat="45.82403" lon="2.91201">
        <ele>832</ele>
        <time>2019-04-17T10:57:41Z</time>
      </trkpt>
      <trkpt lat="45.82406" lon="2.91218">
        <ele>832</ele>
        <time>2019-04-17T10:58:41Z</time>
      </trkpt>
      <trkpt lat="45.82406" lon="2.91232">
        <ele>833</ele>
        <time>2019-04-17T10:59:41Z</time>
      </trkpt>
      <trkpt lat="45.8239" lon="2.91278">
        <ele>835</ele>
        <time>2019-04-17T11:00:41Z</time>
      </trkpt>
      <trkpt lat="45.82387" lon="2.91292">
        <ele>836</ele>
        <time>2019-04-17T11:01:41Z</time>
      </trkpt>
      <trkpt lat="45.82235" lon="2.91724">
        <ele>854</ele>
        <time>2019-04-17T11:02:41Z</time>
      </trkpt>
      <trkpt lat="45.8213" lon="2.92026">
        <ele>865</ele>
        <time>2019-04-17T11:03:41Z</time>
      </trkpt>
      <trkpt lat="45.81989" lon="2.92427">
        <ele>884</ele>
        <time>2019-04-17T11:04:41Z</time>
      </trkpt>
      <trkpt lat="45.81968" lon="2.92499">
        <ele>888</ele>
        <time>2019-04-17T11:05:41Z</time>
      </trkpt>
      <trkpt lat="45.81963" lon="2.92551">
        <ele>891</ele>
        <time>2019-04-17T11:06:41Z</time>
      </trkpt>
      <trkpt lat="45.81963" lon="2.92629">
        <ele>895</ele>
        <time>2019-04-17T11:07:41Z</time>
      </trkpt>
      <trkpt lat="45.81978" lon="2.92803">
        <ele>904</ele>
        <time>2019-04-17T11:08:41Z</time>
      </trkpt>
      <trkpt lat="45.81976" lon="2.92858">
        <ele>906</ele>
        <time>2019-04-17T11:09:41Z</time>
      </trkpt>
      <trkpt lat="45.8197" lon="2.92901">
        <ele>908</ele>
        <time>2019-04-17T11:10:41Z</time>
      </trkpt>
      <trkpt lat="45.81961" lon="2.92949">
        <ele>910</ele>
        <time>2019-04-17T11:11:41Z</time>
      </trkpt>
      <trkpt lat="45.81907" lon="2.93134">
        <ele>914</ele>
        <time>2019-04-17T11:12:41Z</time>
      </trkpt>
      <trkpt lat="45.8189" lon="2.93199">
        <ele>918</ele>
        <time>2019-04-17T11:13:41Z</time>
      </trkpt>
      <trkpt lat="45.81877" lon="2.93254">
        <ele>922</ele>
        <time>2019-04-17T11:14:41Z</time>
      </trkpt>
      <trkpt lat="45.81765" lon="2.93933">
        <ele>959</ele>
        <time>2019-04-17T11:15:41Z</time>
      </trkpt>
      <trkpt lat="45.8142" lon="2.95106">
        <ele>958</ele>
        <time>2019-04-17T11:16:41Z</time>
      </trkpt>
      <trkpt lat="45.81404" lon="2.9515">
        <ele>959</ele>
        <time>2019-04-17T11:17:41Z</time>
      </trkpt>
      <trkpt lat="45.81384" lon="2.95213">
        <ele>959</ele>
        <time>2019-04-17T11:18:41Z</time>
      </trkpt>
      <trkpt lat="45.81378" lon="2.95227">
        <ele>960</ele>
        <time>2019-04-17T11:19:41Z</time>
      </trkpt>
      <trkpt lat="45.81372" lon="2.95236">
        <ele>960</ele>
        <time>2019-04-17T11:20:41Z</time>
      </trkpt>
      <trkpt lat="45.81362" lon="2.95247">
        <ele>961</ele>
        <time>2019-04-17T11:21:41Z</time>
      </trkpt>
      <trkpt lat="45.81348" lon="2.95252">
        <ele>962</ele>
        <time>2019-04-17T11:22:41Z</time>
      </trkpt>
      <trkpt lat="45.81332" lon="2.95242">
        <ele>961</ele>
        <time>2019-04-17T11:23:41Z</time>
      </trkpt>
      <trkpt lat="45.81323" lon="2.95229">
        <ele>961</ele>
        <time>2019-04-17T11:24:41Z</time>
      </trkpt>
      <trkpt lat="45.81274" lon="2.95051">
        <ele>956</ele>
        <time>2019-04-17T11:25:41Z</time>
      </trkpt>
      <trkpt lat="45.81273" lon="2.95033">
        <ele>955</ele>
        <time>2019-04-17T11:26:41Z</time>
      </trkpt>
      <trkpt lat="45.81275" lon="2.95018">
        <ele>955</ele>
        <time>2019-04-17T11:27:41Z</time>
      </trkpt>
      <trkpt lat="45.81274" lon="2.95003">
        <ele>954</ele>
        <time>2019-04-17T11:28:41Z</time>
      </trkpt>
      <trkpt lat="45.81271" lon="2.94999">
        <ele>954</ele>
        <time>2019-04-17T11:29:41Z</time>
      </trkpt>
      <trkpt lat="45.81263" lon="2.94995">
        <ele>954</ele>
        <time>2019-04-17T11:30:41Z</time>
      </trkpt>
      <trkpt lat="45.81248" lon="2.94978">
        <ele>953</ele>
        <time>2019-04-17T11:31:41Z</time>
      </trkpt>
      <trkpt lat="45.8123" lon="2.94904">
        <ele>951</ele>
        <time>2019-04-17T11:32:41Z</time>
      </trkpt>
      <trkpt lat="45.81213" lon="2.94868">
        <ele>951</ele>
        <time>2019-04-17T11:33:41Z</time>
      </trkpt>
      <trkpt lat="45.812" lon="2.94833">
        <ele>950</ele>
        <time>2019-04-17T11:34:41Z</time>
      </trkpt>
      <trkpt lat="45.81195" lon="2.94805">
        <ele>949</ele>
        <time>2019-04-17T11:35:41Z</time>
      </trkpt>
      <trkpt lat="45.81193" lon="2.94781">
        <ele>948</ele>
        <time>2019-04-17T11:36:41Z</time>
      </trkpt>
      <trkpt lat="45.81195" lon="2.94805">
        <ele>949</ele>
        <time>2019-04-17T11:37:41Z</time>
      </trkpt>
      <trkpt lat="45.812" lon="2.94833">
        <ele>950</ele>
        <time>2019-04-17T11:38:41Z</time>
      </trkpt>
      <trkpt lat="45.81213" lon="2.94868">
        <ele>951</ele>
        <time>2019-04-17T11:39:41Z</time>
      </trkpt>
      <trkpt lat="45.8123" lon="2.94904">
        <ele>951</ele>
        <time>2019-04-17T11:40:41Z</time>
      </trkpt>
      <trkpt lat="45.81248" lon="2.94978">
        <ele>953</ele>
        <time>2019-04-17T11:41:41Z</time>
      </trkpt>
      <trkpt lat="45.8125" lon="2.95003">
        <ele>954</ele>
        <time>2019-04-17T11:42:41Z</time>
      </trkpt>
      <trkpt lat="45.81247" lon="2.95013">
        <ele>955</ele>
        <time>2019-04-17T11:43:41Z</time>
      </trkpt>
      <trkpt lat="45.81248" lon="2.95021">
        <ele>955</ele>
        <time>2019-04-17T11:44:41Z</time>
      </trkpt>
      <trkpt lat="45.81258" lon="2.95065">
        <ele>957</ele>
        <time>2019-04-17T11:45:41Z</time>
      </trkpt>
      <trkpt lat="45.81304" lon="2.95228">
        <ele>963</ele>
        <time>2019-04-17T11:46:41Z</time>
      </trkpt>
      <trkpt lat="45.81329" lon="2.95285">
        <ele>964</ele>
        <time>2019-04-17T11:47:41Z</time>
      </trkpt>
      <trkpt lat="45.81327" lon="2.95296">
        <ele>964</ele>
        <time>2019-04-17T11:48:41Z</time>
      </trkpt>
      <trkpt lat="45.8133" lon="2.95318">
        <ele>965</ele>
        <time>2019-04-17T11:49:41Z</time>
      </trkpt>
      <trkpt lat="45.81336" lon="2.95332">
        <ele>965</ele>
        <time>2019-04-17T11:50:41Z</time>
      </trkpt>
      <trkpt lat="45.81346" lon="2.95345">
        <ele>964</ele>
        <time>2019-04-17T11:51:41Z</time>
      </trkpt>
      <trkpt lat="45.8136" lon="2.9535">
        <ele>963</ele>
        <time>2019-04-17T11:52:41Z</time>
      </trkpt>
      <trkpt lat="45.81368" lon="2.95351">
        <ele>962</ele>
        <time>2019-04-17T11:53:41Z</time>
      </trkpt>
      <trkpt lat="45.81381" lon="2.95346">
        <ele>961</ele>
        <time>2019-04-17T11:54:41Z</time>
      </trkpt>
      <trkpt lat="45.81387" lon="2.95348">
        <ele>960</ele>
        <time>2019-04-17T11:55:41Z</time>
      </trkpt>
      <trkpt lat="45.814" lon="2.95359">
        <ele>958</ele>
        <time>2019-04-17T11:56:41Z</time>
      </trkpt>
      <trkpt lat="45.81401" lon="2.95397">
        <ele>956</ele>
        <time>2019-04-17T11:57:41Z</time>
      </trkpt>
      <trkpt lat="45.8139" lon="2.95407">
        <ele>958</ele>
        <time>2019-04-17T11:58:41Z</time>
      </trkpt>
      <trkpt lat="45.81368" lon="2.95422">
        <ele>961</ele>
        <time>2019-04-17T11:59:41Z</time>
      </trkpt>
      <trkpt lat="45.81359" lon="2.95438">
        <ele>962</ele>
        <time>2019-04-17T12:00:41Z</time>
      </trkpt>
      <trkpt lat="45.81355" lon="2.95461">
        <ele>962</ele>
        <time>2019-04-17T12:01:41Z</time>
      </trkpt>
      <trkpt lat="45.81422" lon="2.95999">
        <ele>969</ele>
        <time>2019-04-17T12:02:41Z</time>
      </trkpt>
      <trkpt lat="45.81454" lon="2.96113">
        <ele>966</ele>
        <time>2019-04-17T12:03:41Z</time>
      </trkpt>
      <trkpt lat="45.81467" lon="2.96282">
        <ele>969</ele>
        <time>2019-04-17T12:04:41Z</time>
      </trkpt>
      <trkpt lat="45.815" lon="2.96379">
        <ele>968</ele>
        <time>2019-04-17T12:05:41Z</time>
      </trkpt>
      <trkpt lat="45.81564" lon="2.96561">
        <ele>968</ele>
        <time>2019-04-17T12:06:41Z</time>
      </trkpt>
      <trkpt lat="45.81606" lon="2.96718">
        <ele>969</ele>
        <time>2019-04-17T12:07:41Z</time>
      </trkpt>
      <trkpt lat="45.8163" lon="2.96781">
        <ele>971</ele>
        <time>2019-04-17T12:08:41Z</time>
      </trkpt>
      <trkpt lat="45.8167" lon="2.96875">
        <ele>972</ele>
        <time>2019-04-17T12:09:41Z</time>
      </trkpt>
      <trkpt lat="45.81777" lon="2.9715">
        <ele>964</ele>
        <time>2019-04-17T12:10:41Z</time>
      </trkpt>
      <trkpt lat="45.81886" lon="2.97416">
        <ele>957</ele>
        <time>2019-04-17T12:11:41Z</time>
      </trkpt>
      <trkpt lat="45.82041" lon="2.97647">
        <ele>955</ele>
        <time>2019-04-17T12:12:41Z</time>
      </trkpt>
      <trkpt lat="45.82082" lon="2.97735">
        <ele>949</ele>
        <time>2019-04-17T12:13:41Z</time>
      </trkpt>
      <trkpt lat="45.82095" lon="2.97747">
        <ele>948</ele>
        <time>2019-04-17T12:14:41Z</time>
      </trkpt>
      <trkpt lat="45.82192" lon="2.97779">
        <ele>937</ele>
        <time>2019-04-17T12:15:41Z</time>
      </trkpt>
      <trkpt lat="45.82258" lon="2.97809">
        <ele>932</ele>
        <time>2019-04-17T12:16:41Z</time>
      </trkpt>
      <trkpt lat="45.82288" lon="2.97863">
        <ele>930</ele>
        <time>2019-04-17T12:17:41Z</time>
      </trkpt>
      <trkpt lat="45.82325" lon="2.97957">
        <ele>926</ele>
        <time>2019-04-17T12:18:41Z</time>
      </trkpt>
      <trkpt lat="45.82323" lon="2.98025">
        <ele>926</ele>
        <time>2019-04-17T12:19:41Z</time>
      </trkpt>
      <trkpt lat="45.82332" lon="2.9805">
        <ele>925</ele>
        <time>2019-04-17T12:20:41Z</time>
      </trkpt>
      <trkpt lat="45.82345" lon="2.98059">
        <ele>924</ele>
        <time>2019-04-17T12:21:41Z</time>
      </trkpt>
      <trkpt lat="45.8238" lon="2.98052">
        <ele>923</ele>
        <time>2019-04-17T12:22:41Z</time>
      </trkpt>
      <trkpt lat="45.82418" lon="2.98039">
        <ele>921</ele>
        <time>2019-04-17T12:23:41Z</time>
      </trkpt>
      <trkpt lat="45.82443" lon="2.98027">
        <ele>919</ele>
        <time>2019-04-17T12:24:41Z</time>
      </trkpt>
      <trkpt lat="45.82451" lon="2.98019">
        <ele>918</ele>
        <time>2019-04-17T12:25:41Z</time>
      </trkpt>
      <trkpt lat="45.82469" lon="2.97985">
        <ele>916</ele>
        <time>2019-04-17T12:26:41Z</time>
      </trkpt>
      <trkpt lat="45.82485" lon="2.97975">
        <ele>915</ele>
        <time>2019-04-17T12:27:41Z</time>
      </trkpt>
      <trkpt lat="45.82494" lon="2.97976">
        <ele>914</ele>
        <time>2019-04-17T12:28:41Z</time>
      </trkpt>
      <trkpt lat="45.82501" lon="2.9798">
        <ele>913</ele>
        <time>2019-04-17T12:29:41Z</time>
      </trkpt>
      <trkpt lat="45.82507" lon="2.97986">
        <ele>912</ele>
        <time>2019-04-17T12:30:41Z</time>
      </trkpt>
      <trkpt lat="45.82512" lon="2.97998">
        <ele>911</ele>
        <time>2019-04-17T12:31:41Z</time>
      </trkpt>
      <trkpt lat="45.82513" lon="2.98011">
        <ele>911</ele>
        <time>2019-04-17T12:32:41Z</time>
      </trkpt>
      <trkpt lat="45.82512" lon="2.98024">
        <ele>912</ele>
        <time>2019-04-17T12:33:41Z</time>
      </trkpt>
      <trkpt lat="45.82501" lon="2.98047">
        <ele>914</ele>
        <time>2019-04-17T12:34:41Z</time>
      </trkpt>
      <trkpt lat="45.82495" lon="2.98082">
        <ele>915</ele>
        <time>2019-04-17T12:35:41Z</time>
      </trkpt>
      <trkpt lat="45.82495" lon="2.98097">
        <ele>915</ele>
        <time>2019-04-17T12:36:41Z</time>
      </trkpt>
      <trkpt lat="45.82503" lon="2.98119">
        <ele>914</ele>
        <time>2019-04-17T12:37:41Z</time>
      </trkpt>
      <trkpt lat="45.82511" lon="2.98122">
        <ele>913</ele>
        <time>2019-04-17T12:38:41Z</time>
      </trkpt>
      <trkpt lat="45.82532" lon="2.98125">
        <ele>910</ele>
        <time>2019-04-17T12:39:41Z</time>
      </trkpt>
      <trkpt lat="45.82543" lon="2.98132">
        <ele>908</ele>
        <time>2019-04-17T12:40:41Z</time>
      </trkpt>
      <trkpt lat="45.82566" lon="2.98158">
        <ele>904</ele>
        <time>2019-04-17T12:41:41Z</time>
      </trkpt>
      <trkpt lat="45.82587" lon="2.98191">
        <ele>902</ele>
        <time>2019-04-17T12:42:41Z</time>
      </trkpt>
      <trkpt lat="45.82607" lon="2.98248">
        <ele>900</ele>
        <time>2019-04-17T12:43:41Z</time>
      </trkpt>
      <trkpt lat="45.82615" lon="2.98263">
        <ele>899</ele>
        <time>2019-04-17T12:44:41Z</time>
      </trkpt>
      <trkpt lat="45.82632" lon="2.98284">
        <ele>896</ele>
        <time>2019-04-17T12:45:41Z</time>
      </trkpt>
      <trkpt lat="45.82653" lon="2.98302">
        <ele>893</ele>
        <time>2019-04-17T12:46:41Z</time>
      </trkpt>
      <trkpt lat="45.82695" lon="2.98343">
        <ele>890</ele>
        <time>2019-04-17T12:47:41Z</time>
      </trkpt>
      <trkpt lat="45.82748" lon="2.98422">
        <ele>885</ele>
        <time>2019-04-17T12:48:41Z</time>
      </trkpt>
      <trkpt lat="45.82807" lon="2.98516">
        <ele>885</ele>
        <time>2019-04-17T12:49:41Z</time>
      </trkpt>
      <trkpt lat="45.82816" lon="2.98534">
        <ele>885</ele>
        <time>2019-04-17T12:50:41Z</time>
      </trkpt>
      <trkpt lat="45.82852" lon="2.98627">
        <ele>883</ele>
        <time>2019-04-17T12:51:41Z</time>
      </trkpt>
      <trkpt lat="45.82871" lon="2.98694">
        <ele>880</ele>
        <time>2019-04-17T12:52:41Z</time>
      </trkpt>
      <trkpt lat="45.82881" lon="2.98757">
        <ele>878</ele>
        <time>2019-04-17T12:53:41Z</time>
      </trkpt>
      <trkpt lat="45.8289" lon="2.9885">
        <ele>876</ele>
        <time>2019-04-17T12:54:41Z</time>
      </trkpt>
      <trkpt lat="45.82903" lon="2.98953">
        <ele>871</ele>
        <time>2019-04-17T12:55:41Z</time>
      </trkpt>
      <trkpt lat="45.82917" lon="2.99013">
        <ele>870</ele>
        <time>2019-04-17T12:56:41Z</time>
      </trkpt>
      <trkpt lat="45.82971" lon="2.99151">
        <ele>865</ele>
        <time>2019-04-17T12:57:41Z</time>
      </trkpt>
      <trkpt lat="45.83031" lon="2.99288">
        <ele>864</ele>
        <time>2019-04-17T12:58:41Z</time>
      </trkpt>
      <trkpt lat="45.83111" lon="2.99539">
        <ele>864</ele>
        <time>2019-04-17T12:59:41Z</time>
      </trkpt>
      <trkpt lat="45.83234" lon="2.99693">
        <ele>859</ele>
        <time>2019-04-17T13:00:41Z</time>
      </trkpt>
      <trkpt lat="45.83258" lon="2.99735">
        <ele>859</ele>
        <time>2019-04-17T13:01:41Z</time>
      </trkpt>
      <trkpt lat="45.83278" lon="2.99794">
        <ele>858</ele>
        <time>2019-04-17T13:02:41Z</time>
      </trkpt>
      <trkpt lat="45.83292" lon="2.99867">
        <ele>858</ele>
        <time>2019-04-17T13:03:41Z</time>
      </trkpt>
      <trkpt lat="45.83296" lon="2.999">
        <ele>858</ele>
        <time>2019-04-17T13:04:41Z</time>
      </trkpt>
      <trkpt lat="45.83312" lon="2.99985">
        <ele>857</ele>
        <time>2019-04-17T13:05:41Z</time>
      </trkpt>
      <trkpt lat="45.83318" lon="3.00044">
        <ele>857</ele>
        <time>2019-04-17T13:06:41Z</time>
      </trkpt>
      <trkpt lat="45.83309" lon="3.00299">
        <ele>850</ele>
        <time>2019-04-17T13:07:41Z</time>
      </trkpt>
      <trkpt lat="45.83303" lon="3.00367">
        <ele>848</ele>
        <time>2019-04-17T13:08:41Z</time>
      </trkpt>
      <trkpt lat="45.83286" lon="3.00495">
        <ele>846</ele>
        <time>2019-04-17T13:09:41Z</time>
      </trkpt>
      <trkpt lat="45.83284" lon="3.00526">
        <ele>845</ele>
        <time>2019-04-17T13:10:41Z</time>
      </trkpt>
      <trkpt lat="45.83273" lon="3.01126">
        <ele>832</ele>
        <time>2019-04-17T13:11:41Z</time>
      </trkpt>
      <trkpt lat="45.83263" lon="3.01171">
        <ele>829</ele>
        <time>2019-04-17T13:12:41Z</time>
      </trkpt>
      <trkpt lat="45.83243" lon="3.01212">
        <ele>825</ele>
        <time>2019-04-17T13:13:41Z</time>
      </trkpt>
      <trkpt lat="45.83207" lon="3.01266">
        <ele>821</ele>
        <time>2019-04-17T13:14:41Z</time>
      </trkpt>
      <trkpt lat="45.83134" lon="3.01363">
        <ele>814</ele>
        <time>2019-04-17T13:15:41Z</time>
      </trkpt>
      <trkpt lat="45.83116" lon="3.01382">
        <ele>813</ele>
        <time>2019-04-17T13:16:41Z</time>
      </trkpt>
      <trkpt lat="45.83096" lon="3.01396">
        <ele>812</ele>
        <time>2019-04-17T13:17:41Z</time>
      </trkpt>
      <trkpt lat="45.83077" lon="3.01414">
        <ele>810</ele>
        <time>2019-04-17T13:18:41Z</time>
      </trkpt>
      <trkpt lat="45.83063" lon="3.01417">
        <ele>809</ele>
        <time>2019-04-17T13:19:41Z</time>
      </trkpt>
      <trkpt lat="45.83057" lon="3.01421">
        <ele>809</ele>
        <time>2019-04-17T13:20:41Z</time>
      </trkpt>
      <trkpt lat="45.83046" lon="3.01443">
        <ele>806</ele>
        <time>2019-04-17T13:21:41Z</time>
      </trkpt>
      <trkpt lat="45.83042" lon="3.01446">
        <ele>805</ele>
        <time>2019-04-17T13:22:41Z</time>
      </trkpt>
      <trkpt lat="45.83037" lon="3.01448">
        <ele>805</ele>
        <time>2019-04-17T13:23:41Z</time>
      </trkpt>
      <trkpt lat="45.83001" lon="3.01446">
        <ele>803</ele>
        <time>2019-04-17T13:24:41Z</time>
      </trkpt>
      <trkpt lat="45.82993" lon="3.0145">
        <ele>803</ele>
        <time>2019-04-17T13:25:41Z</time>
      </trkpt>
      <trkpt lat="45.82964" lon="3.01476">
        <ele>799</ele>
        <time>2019-04-17T13:26:41Z</time>
      </trkpt>
      <trkpt lat="45.82959" lon="3.01487">
        <ele>798</ele>
        <time>2019-04-17T13:27:41Z</time>
      </trkpt>
      <trkpt lat="45.8296" lon="3.01503">
        <ele>796</ele>
        <time>2019-04-17T13:28:41Z</time>
      </trkpt>
      <trkpt lat="45.82967" lon="3.01528">
        <ele>794</ele>
        <time>2019-04-17T13:29:41Z</time>
      </trkpt>
      <trkpt lat="45.82976" lon="3.01546">
        <ele>792</ele>
        <time>2019-04-17T13:30:41Z</time>
      </trkpt>
      <trkpt lat="45.82984" lon="3.01557">
        <ele>791</ele>
        <time>2019-04-17T13:31:41Z</time>
      </trkpt>
      <trkpt lat="45.83024" lon="3.01583">
        <ele>789</ele>
        <time>2019-04-17T13:32:41Z</time>
      </trkpt>
      <trkpt lat="45.83037" lon="3.01598">
        <ele>788</ele>
        <time>2019-04-17T13:33:41Z</time>
      </trkpt>
      <trkpt lat="45.83079" lon="3.01629">
        <ele>787</ele>
        <time>2019-04-17T13:34:41Z</time>
      </trkpt>
      <trkpt lat="45.83087" lon="3.0164">
        <ele>786</ele>
        <time>2019-04-17T13:35:41Z</time>
      </trkpt>
      <trkpt lat="45.8309" lon="3.01652">
        <ele>785</ele>
        <time>2019-04-17T13:36:41Z</time>
      </trkpt>
      <trkpt lat="45.83099" lon="3.01655">
        <ele>785</ele>
        <time>2019-04-17T13:37:41Z</time>
      </trkpt>
      <trkpt lat="45.83107" lon="3.01665">
        <ele>785</ele>
        <time>2019-04-17T13:38:41Z</time>
      </trkpt>
      <trkpt lat="45.83179" lon="3.01809">
        <ele>776</ele>
        <time>2019-04-17T13:39:41Z</time>
      </trkpt>
      <trkpt lat="45.83193" lon="3.01822">
        <ele>775</ele>
        <time>2019-04-17T13:40:41Z</time>
      </trkpt>
      <trkpt lat="45.83212" lon="3.01827">
        <ele>773</ele>
        <time>2019-04-17T13:41:41Z</time>
      </trkpt>
      <trkpt lat="45.83323" lon="3.01795">
        <ele>767</ele>
        <time>2019-04-17T13:42:41Z</time>
      </trkpt>
      <trkpt lat="45.83345" lon="3.01783">
        <ele>765</ele>
        <time>2019-04-17T13:43:41Z</time>
      </trkpt>
      <trkpt lat="45.83372" lon="3.01762">
        <ele>764</ele>
        <time>2019-04-17T13:44:41Z</time>
      </trkpt>
      <trkpt lat="45.83382" lon="3.01763">
        <ele>762</ele>
        <time>2019-04-17T13:45:41Z</time>
      </trkpt>
      <trkpt lat="45.83392" lon="3.01767">
        <ele>761</ele>
        <time>2019-04-17T13:46:41Z</time>
      </trkpt>
      <trkpt lat="45.83442" lon="3.0183">
        <ele>755</ele>
        <time>2019-04-17T13:47:41Z</time>
      </trkpt>
      <trkpt lat="45.83465" lon="3.01849">
        <ele>752</ele>
        <time>2019-04-17T13:48:41Z</time>
      </trkpt>
      <trkpt lat="45.83502" lon="3.01871">
        <ele>749</ele>
        <time>2019-04-17T13:49:41Z</time>
      </trkpt>
      <trkpt lat="45.83517" lon="3.01886">
        <ele>747</ele>
        <time>2019-04-17T13:50:41Z</time>
      </trkpt>
      <trkpt lat="45.83525" lon="3.01905">
        <ele>745</ele>
        <time>2019-04-17T13:51:41Z</time>
      </trkpt>
      <trkpt lat="45.83527" lon="3.01925">
        <ele>744</ele>
        <time>2019-04-17T13:52:41Z</time>
      </trkpt>
      <trkpt lat="45.83528" lon="3.01977">
        <ele>740</ele>
        <time>2019-04-17T13:53:41Z</time>
      </trkpt>
      <trkpt lat="45.83526" lon="3.02005">
        <ele>739</ele>
        <time>2019-04-17T13:54:41Z</time>
      </trkpt>
      <trkpt lat="45.8352" lon="3.02021">
        <ele>737</ele>
        <time>2019-04-17T13:55:41Z</time>
      </trkpt>
      <trkpt lat="45.83511" lon="3.0203">
        <ele>737</ele>
        <time>2019-04-17T13:56:41Z</time>
      </trkpt>
      <trkpt lat="45.83501" lon="3.02033">
        <ele>737</ele>
        <time>2019-04-17T13:57:41Z</time>
      </trkpt>
      <trkpt lat="45.83492" lon="3.02032">
        <ele>737</ele>
        <time>2019-04-17T13:58:41Z</time>
      </trkpt>
      <trkpt lat="45.83467" lon="3.02023">
        <ele>738</ele>
        <time>2019-04-17T13:59:41Z</time>
      </trkpt>
      <trkpt lat="45.83455" lon="3.02023">
        <ele>738</ele>
        <time>2019-04-17T14:00:41Z</time>
      </trkpt>
      <trkpt lat="45.83445" lon="3.02033">
        <ele>737</ele>
        <time>2019-04-17T14:01:41Z</time>
      </trkpt>
      <trkpt lat="45.83437" lon="3.02047">
        <ele>735</ele>
        <time>2019-04-17T14:02:41Z</time>
      </trkpt>
      <trkpt lat="45.83436" lon="3.02064">
        <ele>733</ele>
        <time>2019-04-17T14:03:41Z</time>
      </trkpt>
      <trkpt lat="45.83439" lon="3.02078">
        <ele>731</ele>
        <time>2019-04-17T14:04:41Z</time>
      </trkpt>
      <trkpt lat="45.83447" lon="3.02092">
        <ele>729</ele>
        <time>2019-04-17T14:05:41Z</time>
      </trkpt>
      <trkpt lat="45.83461" lon="3.02101">
        <ele>728</ele>
        <time>2019-04-17T14:06:41Z</time>
      </trkpt>
      <trkpt lat="45.83515" lon="3.02118">
        <ele>725</ele>
        <time>2019-04-17T14:07:41Z</time>
      </trkpt>
      <trkpt lat="45.83569" lon="3.02131">
        <ele>721</ele>
        <time>2019-04-17T14:08:41Z</time>
      </trkpt>
      <trkpt lat="45.83582" lon="3.02132">
        <ele>720</ele>
        <time>2019-04-17T14:09:41Z</time>
      </trkpt>
      <trkpt lat="45.83591" lon="3.0213">
        <ele>720</ele>
        <time>2019-04-17T14:10:41Z</time>
      </trkpt>
      <trkpt lat="45.83618" lon="3.02091">
        <ele>722</ele>
        <time>2019-04-17T14:11:41Z</time>
      </trkpt>
      <trkpt lat="45.83627" lon="3.02085">
        <ele>721</ele>
        <time>2019-04-17T14:12:41Z</time>
      </trkpt>
      <trkpt lat="45.8364" lon="3.02085">
        <ele>720</ele>
        <time>2019-04-17T14:13:41Z</time>
      </trkpt>
      <trkpt lat="45.83648" lon="3.02092">
        <ele>718</ele>
        <time>2019-04-17T14:14:41Z</time>
      </trkpt>
      <trkpt lat="45.83656" lon="3.02105">
        <ele>715</ele>
        <time>2019-04-17T14:15:41Z</time>
      </trkpt>
      <trkpt lat="45.83658" lon="3.02119">
        <ele>713</ele>
        <time>2019-04-17T14:16:41Z</time>
      </trkpt>
      <trkpt lat="45.83658" lon="3.02132">
        <ele>712</ele>
        <time>2019-04-17T14:17:41Z</time>
      </trkpt>
      <trkpt lat="45.83654" lon="3.02143">
        <ele>711</ele>
        <time>2019-04-17T14:18:41Z</time>
      </trkpt>
      <trkpt lat="45.83644" lon="3.02156">
        <ele>710</ele>
        <time>2019-04-17T14:19:41Z</time>
      </trkpt>
      <trkpt lat="45.83627" lon="3.0217">
        <ele>711</ele>
        <time>2019-04-17T14:20:41Z</time>
      </trkpt>
      <trkpt lat="45.83618" lon="3.02182">
        <ele>710</ele>
        <time>2019-04-17T14:21:41Z</time>
      </trkpt>
      <trkpt lat="45.83612" lon="3.02202">
        <ele>709</ele>
        <time>2019-04-17T14:22:41Z</time>
      </trkpt>
      <trkpt lat="45.83615" lon="3.02221">
        <ele>707</ele>
        <time>2019-04-17T14:23:41Z</time>
      </trkpt>
      <trkpt lat="45.83623" lon="3.02247">
        <ele>704</ele>
        <time>2019-04-17T14:24:41Z</time>
      </trkpt>
      <trkpt lat="45.83633" lon="3.02258">
        <ele>703</ele>
        <time>2019-04-17T14:25:41Z</time>
      </trkpt>
      <trkpt lat="45.83647" lon="3.02263">
        <ele>702</ele>
        <time>2019-04-17T14:26:41Z</time>
      </trkpt>
      <trkpt lat="45.83659" lon="3.0226">
        <ele>701</ele>
        <time>2019-04-17T14:27:41Z</time>
      </trkpt>
      <trkpt lat="45.83669" lon="3.02247">
        <ele>702</ele>
        <time>2019-04-17T14:28:41Z</time>
      </trkpt>
      <trkpt lat="45.83676" lon="3.02227">
        <ele>702</ele>
        <time>2019-04-17T14:29:41Z</time>
      </trkpt>
      <trkpt lat="45.83684" lon="3.02187">
        <ele>704</ele>
        <time>2019-04-17T14:30:41Z</time>
      </trkpt>
      <trkpt lat="45.83692" lon="3.02169">
        <ele>704</ele>
        <time>2019-04-17T14:31:41Z</time>
      </trkpt>
      <trkpt lat="45.83704" lon="3.02153">
        <ele>703</ele>
        <time>2019-04-17T14:32:41Z</time>
      </trkpt>
      <trkpt lat="45.83714" lon="3.02151">
        <ele>702</ele>
        <time>2019-04-17T14:33:41Z</time>
      </trkpt>
      <trkpt lat="45.83721" lon="3.02154">
        <ele>701</ele>
        <time>2019-04-17T14:34:41Z</time>
      </trkpt>
      <trkpt lat="45.83728" lon="3.02164">
        <ele>700</ele>
        <time>2019-04-17T14:35:41Z</time>
      </trkpt>
      <trkpt lat="45.8373" lon="3.02178">
        <ele>699</ele>
        <time>2019-04-17T14:36:41Z</time>
      </trkpt>
      <trkpt lat="45.83728" lon="3.02191">
        <ele>698</ele>
        <time>2019-04-17T14:37:41Z</time>
      </trkpt>
      <trkpt lat="45.83683" lon="3.02274">
        <ele>698</ele>
        <time>2019-04-17T14:38:41Z</time>
      </trkpt>
      <trkpt lat="45.83673" lon="3.02297">
        <ele>697</ele>
        <time>2019-04-17T14:39:41Z</time>
      </trkpt>
      <trkpt lat="45.83669" lon="3.02333">
        <ele>694</ele>
        <time>2019-04-17T14:40:41Z</time>
      </trkpt>
      <trkpt lat="45.83694" lon="3.02493">
        <ele>685</ele>
        <time>2019-04-17T14:41:41Z</time>
      </trkpt>
      <trkpt lat="45.83702" lon="3.02512">
        <ele>684</ele>
        <time>2019-04-17T14:42:41Z</time>
      </trkpt>
      <trkpt lat="45.83716" lon="3.02525">
        <ele>682</ele>
        <time>2019-04-17T14:43:41Z</time>
      </trkpt>
      <trkpt lat="45.8373" lon="3.02532">
        <ele>682</ele>
        <time>2019-04-17T14:44:41Z</time>
      </trkpt>
      <trkpt lat="45.83753" lon="3.02536">
        <ele>680</ele>
        <time>2019-04-17T14:45:41Z</time>
      </trkpt>
      <trkpt lat="45.8377" lon="3.02531">
        <ele>679</ele>
        <time>2019-04-17T14:46:41Z</time>
      </trkpt>
      <trkpt lat="45.83824" lon="3.02477">
        <ele>674</ele>
        <time>2019-04-17T14:47:41Z</time>
      </trkpt>
      <trkpt lat="45.83835" lon="3.02471">
        <ele>673</ele>
        <time>2019-04-17T14:48:41Z</time>
      </trkpt>
      <trkpt lat="45.8386" lon="3.02468">
        <ele>672</ele>
        <time>2019-04-17T14:49:41Z</time>
      </trkpt>
      <trkpt lat="45.83887" lon="3.02469">
        <ele>671</ele>
        <time>2019-04-17T14:50:41Z</time>
      </trkpt>
      <trkpt lat="45.83899" lon="3.02466">
        <ele>670</ele>
        <time>2019-04-17T14:51:41Z</time>
      </trkpt>
      <trkpt lat="45.83908" lon="3.02457">
        <ele>669</ele>
        <time>2019-04-17T14:52:41Z</time>
      </trkpt>
      <trkpt lat="45.83914" lon="3.02444">
        <ele>669</ele>
        <time>2019-04-17T14:53:41Z</time>
      </trkpt>
      <trkpt lat="45.83917" lon="3.02428">
        <ele>668</ele>
        <time>2019-04-17T14:54:41Z</time>
      </trkpt>
      <trkpt lat="45.83915" lon="3.02412">
        <ele>668</ele>
        <time>2019-04-17T14:55:41Z</time>
      </trkpt>
      <trkpt lat="45.83907" lon="3.02395">
        <ele>668</ele>
        <time>2019-04-17T14:56:41Z</time>
      </trkpt>
      <trkpt lat="45.83884" lon="3.02365">
        <ele>669</ele>
        <time>2019-04-17T14:57:41Z</time>
      </trkpt>
      <trkpt lat="45.83878" lon="3.02347">
        <ele>670</ele>
        <time>2019-04-17T14:58:41Z</time>
      </trkpt>
      <trkpt lat="45.83877" lon="3.02331">
        <ele>670</ele>
        <time>2019-04-17T14:59:41Z</time>
      </trkpt>
      <trkpt lat="45.83881" lon="3.02316">
        <ele>669</ele>
        <time>2019-04-17T15:00:41Z</time>
      </trkpt>
      <trkpt lat="45.83889" lon="3.02305">
        <ele>667</ele>
        <time>2019-04-17T15:01:41Z</time>
      </trkpt>
      <trkpt lat="45.83902" lon="3.02295">
        <ele>664</ele>
        <time>2019-04-17T15:02:41Z</time>
      </trkpt>
      <trkpt lat="45.83964" lon="3.02264">
        <ele>659</ele>
        <time>2019-04-17T15:03:41Z</time>
      </trkpt>
      <trkpt lat="45.83977" lon="3.02262">
        <ele>659</ele>
        <time>2019-04-17T15:04:41Z</time>
      </trkpt>
      <trkpt lat="45.84068" lon="3.023">
        <ele>650</ele>
        <time>2019-04-17T15:05:41Z</time>
      </trkpt>
      <trkpt lat="45.84068" lon="3.02305">
        <ele>650</ele>
        <time>2019-04-17T15:06:41Z</time>
      </trkpt>
      <trkpt lat="45.84081" lon="3.02312">
        <ele>648</ele>
        <time>2019-04-17T15:07:41Z</time>
      </trkpt>
      <trkpt lat="45.84114" lon="3.02354">
        <ele>647</ele>
        <time>2019-04-17T15:08:41Z</time>
      </trkpt>
      <trkpt lat="45.84165" lon="3.02406">
        <ele>640</ele>
        <time>2019-04-17T15:09:41Z</time>
      </trkpt>
      <trkpt lat="45.84189" lon="3.02418">
        <ele>640</ele>
        <time>2019-04-17T15:10:41Z</time>
      </trkpt>
      <trkpt lat="45.84211" lon="3.02426">
        <ele>640</ele>
        <time>2019-04-17T15:11:41Z</time>
      </trkpt>
      <trkpt lat="45.84224" lon="3.02436">
        <ele>641</ele>
        <time>2019-04-17T15:12:41Z</time>
      </trkpt>
      <trkpt lat="45.84242" lon="3.02473">
        <ele>640</ele>
        <time>2019-04-17T15:13:41Z</time>
      </trkpt>
      <trkpt lat="45.84296" lon="3.02536">
        <ele>640</ele>
        <time>2019-04-17T15:14:41Z</time>
      </trkpt>
      <trkpt lat="45.84308" lon="3.02548">
        <ele>640</ele>
        <time>2019-04-17T15:15:41Z</time>
      </trkpt>
      <trkpt lat="45.84337" lon="3.02567">
        <ele>641</ele>
        <time>2019-04-17T15:16:41Z</time>
      </trkpt>
      <trkpt lat="45.84363" lon="3.026">
        <ele>641</ele>
        <time>2019-04-17T15:17:41Z</time>
      </trkpt>
      <trkpt lat="45.84385" lon="3.02636">
        <ele>641</ele>
        <time>2019-04-17T15:18:41Z</time>
      </trkpt>
      <trkpt lat="45.84471" lon="3.02684">
        <ele>645</ele>
        <time>2019-04-17T15:19:41Z</time>
      </trkpt>
      <trkpt lat="45.84482" lon="3.02687">
        <ele>646</ele>
        <time>2019-04-17T15:20:41Z</time>
      </trkpt>
      <trkpt lat="45.8449" lon="3.02711">
        <ele>646</ele>
        <time>2019-04-17T15:21:41Z</time>
      </trkpt>
      <trkpt lat="45.84511" lon="3.0285">
        <ele>641</ele>
        <time>2019-04-17T15:22:41Z</time>
      </trkpt>
      <trkpt lat="45.84516" lon="3.02901">
        <ele>640</ele>
        <time>2019-04-17T15:23:41Z</time>
      </trkpt>
      <trkpt lat="45.84516" lon="3.02969">
        <ele>638</ele>
        <time>2019-04-17T15:24:41Z</time>
      </trkpt>
      <trkpt lat="45.84508" lon="3.03029">
        <ele>637</ele>
        <time>2019-04-17T15:25:41Z</time>
      </trkpt>
      <trkpt lat="45.84485" lon="3.03131">
        <ele>635</ele>
        <time>2019-04-17T15:26:41Z</time>
      </trkpt>
      <trkpt lat="45.84452" lon="3.03205">
        <ele>631</ele>
        <time>2019-04-17T15:27:41Z</time>
      </trkpt>
      <trkpt lat="45.84428" lon="3.03274">
        <ele>628</ele>
        <time>2019-04-17T15:28:41Z</time>
      </trkpt>
      <trkpt lat="45.84422" lon="3.03296">
        <ele>626</ele>
        <time>2019-04-17T15:29:41Z</time>
      </trkpt>
      <trkpt lat="45.84422" lon="3.03302">
        <ele>626</ele>
        <time>2019-04-17T15:30:41Z</time>
      </trkpt>
      <trkpt lat="45.84425" lon="3.03319">
        <ele>625</ele>
        <time>2019-04-17T15:31:41Z</time>
      </trkpt>
      <trkpt lat="45.84432" lon="3.03331">
        <ele>624</ele>
        <time>2019-04-17T15:32:41Z</time>
      </trkpt>
      <trkpt lat="45.8444" lon="3.03337">
        <ele>623</ele>
        <time>2019-04-17T15:33:41Z</time>
      </trkpt>
      <trkpt lat="45.8445" lon="3.0334">
        <ele>623</ele>
        <time>2019-04-17T15:34:41Z</time>
      </trkpt>
      <trkpt lat="45.84464" lon="3.0334">
        <ele>623</ele>
        <time>2019-04-17T15:35:41Z</time>
      </trkpt>
      <trkpt lat="45.84496" lon="3.03332">
        <ele>623</ele>
        <time>2019-04-17T15:36:41Z</time>
      </trkpt>
      <trkpt lat="45.8451" lon="3.03334">
        <ele>622</ele>
        <time>2019-04-17T15:37:41Z</time>
      </trkpt>
      <trkpt lat="45.8452" lon="3.03342">
        <ele>621</ele>
        <time>2019-04-17T15:38:41Z</time>
      </trkpt>
      <trkpt lat="45.84523" lon="3.03349">
        <ele>621</ele>
        <time>2019-04-17T15:39:41Z</time>
      </trkpt>
      <trkpt lat="45.84527" lon="3.03361">
        <ele>620</ele>
        <time>2019-04-17T15:40:41Z</time>
      </trkpt>
      <trkpt lat="45.84528" lon="3.0337">
        <ele>619</ele>
        <time>2019-04-17T15:41:41Z</time>
      </trkpt>
      <trkpt lat="45.84526" lon="3.03383">
        <ele>618</ele>
        <time>2019-04-17T15:42:41Z</time>
      </trkpt>
      <trkpt lat="45.84518" lon="3.03399">
        <ele>617</ele>
        <time>2019-04-17T15:43:41Z</time>
      </trkpt>
      <trkpt lat="45.84471" lon="3.03441">
        <ele>613</ele>
        <time>2019-04-17T15:44:41Z</time>
      </trkpt>
      <trkpt lat="45.8446" lon="3.0345">
        <ele>612</ele>
        <time>2019-04-17T15:45:41Z</time>
      </trkpt>
      <trkpt lat="45.84447" lon="3.03457">
        <ele>611</ele>
        <time>2019-04-17T15:46:41Z</time>
      </trkpt>
      <trkpt lat="45.84433" lon="3.03461">
        <ele>610</ele>
        <time>2019-04-17T15:47:41Z</time>
      </trkpt>
      <trkpt lat="45.84423" lon="3.03461">
        <ele>610</ele>
        <time>2019-04-17T15:48:41Z</time>
      </trkpt>
      <trkpt lat="45.84384" lon="3.0345">
        <ele>609</ele>
        <time>2019-04-17T15:49:41Z</time>
      </trkpt>
      <trkpt lat="45.84366" lon="3.03448">
        <ele>609</ele>
        <time>2019-04-17T15:50:41Z</time>
      </trkpt>
      <trkpt lat="45.84355" lon="3.03453">
        <ele>608</ele>
        <time>2019-04-17T15:51:41Z</time>
      </trkpt>
      <trkpt lat="45.84346" lon="3.03465">
        <ele>606</ele>
        <time>2019-04-17T15:52:41Z</time>
      </trkpt>
      <trkpt lat="45.84339" lon="3.03487">
        <ele>603</ele>
        <time>2019-04-17T15:53:41Z</time>
      </trkpt>
      <trkpt lat="45.84327" lon="3.03593">
        <ele>598</ele>
        <time>2019-04-17T15:54:41Z</time>
      </trkpt>
      <trkpt lat="45.84322" lon="3.03617">
        <ele>597</ele>
        <time>2019-04-17T15:55:41Z</time>
      </trkpt>
      <trkpt lat="45.84274" lon="3.03754">
        <ele>591</ele>
        <time>2019-04-17T15:56:41Z</time>
      </trkpt>
      <trkpt lat="45.84264" lon="3.03793">
        <ele>590</ele>
        <time>2019-04-17T15:57:41Z</time>
      </trkpt>
      <trkpt lat="45.84242" lon="3.03926">
        <ele>585</ele>
        <time>2019-04-17T15:58:41Z</time>
      </trkpt>
      <trkpt lat="45.84232" lon="3.03954">
        <ele>585</ele>
        <time>2019-04-17T15:59:41Z</time>
      </trkpt>
      <trkpt lat="45.84189" lon="3.04023">
        <ele>581</ele>
        <time>2019-04-17T16:00:41Z</time>
      </trkpt>
      <trkpt lat="45.84145" lon="3.04066">
        <ele>578</ele>
        <time>2019-04-17T16:01:41Z</time>
      </trkpt>
      <trkpt lat="45.84138" lon="3.04077">
        <ele>578</ele>
        <time>2019-04-17T16:02:41Z</time>
      </trkpt>
      <trkpt lat="45.8412" lon="3.04112">
        <ele>575</ele>
        <time>2019-04-17T16:03:41Z</time>
      </trkpt>
      <trkpt lat="45.84099" lon="3.04141">
        <ele>573</ele>
        <time>2019-04-17T16:04:41Z</time>
      </trkpt>
      <trkpt lat="45.84085" lon="3.04172">
        <ele>571</ele>
        <time>2019-04-17T16:05:41Z</time>
      </trkpt>
      <trkpt lat="45.84073" lon="3.04217">
        <ele>567</ele>
        <time>2019-04-17T16:06:41Z</time>
      </trkpt>
      <trkpt lat="45.84065" lon="3.04239">
        <ele>566</ele>
        <time>2019-04-17T16:07:41Z</time>
      </trkpt>
      <trkpt lat="45.84047" lon="3.04266">
        <ele>563</ele>
        <time>2019-04-17T16:08:41Z</time>
      </trkpt>
      <trkpt lat="45.84042" lon="3.04272">
        <ele>563</ele>
        <time>2019-04-17T16:09:41Z</time>
      </trkpt>
      <trkpt lat="45.84028" lon="3.04281">
        <ele>562</ele>
        <time>2019-04-17T16:10:41Z</time>
      </trkpt>
      <trkpt lat="45.83995" lon="3.0429">
        <ele>561</ele>
        <time>2019-04-17T16:11:41Z</time>
      </trkpt>
      <trkpt lat="45.83989" lon="3.04294">
        <ele>560</ele>
        <time>2019-04-17T16:12:41Z</time>
      </trkpt>
      <trkpt lat="45.83968" lon="3.04313">
        <ele>557</ele>
        <time>2019-04-17T16:13:41Z</time>
      </trkpt>
      <trkpt lat="45.83954" lon="3.04332">
        <ele>555</ele>
        <time>2019-04-17T16:14:41Z</time>
      </trkpt>
      <trkpt lat="45.83946" lon="3.04349">
        <ele>553</ele>
        <time>2019-04-17T16:15:41Z</time>
      </trkpt>
      <trkpt lat="45.83943" lon="3.04364">
        <ele>552</ele>
        <time>2019-04-17T16:16:41Z</time>
      </trkpt>
      <trkpt lat="45.83941" lon="3.04382">
        <ele>551</ele>
        <time>2019-04-17T16:17:41Z</time>
      </trkpt>
      <trkpt lat="45.83942" lon="3.04406">
        <ele>550</ele>
        <time>2019-04-17T16:18:41Z</time>
      </trkpt>
      <trkpt lat="45.83953" lon="3.0447">
        <ele>547</ele>
        <time>2019-04-17T16:19:41Z</time>
      </trkpt>
      <trkpt lat="45.83953" lon="3.04488">
        <ele>547</ele>
        <time>2019-04-17T16:20:41Z</time>
      </trkpt>
      <trkpt lat="45.83945" lon="3.04515">
        <ele>545</ele>
        <time>2019-04-17T16:21:41Z</time>
      </trkpt>
      <trkpt lat="45.83941" lon="3.04523">
        <ele>544</ele>
        <time>2019-04-17T16:22:41Z</time>
      </trkpt>
      <trkpt lat="45.83929" lon="3.04536">
        <ele>543</ele>
        <time>2019-04-17T16:23:41Z</time>
      </trkpt>
      <trkpt lat="45.83918" lon="3.04543">
        <ele>543</ele>
        <time>2019-04-17T16:24:41Z</time>
      </trkpt>
      <trkpt lat="45.8391" lon="3.04546">
        <ele>542</ele>
        <time>2019-04-17T16:25:41Z</time>
      </trkpt>
      <trkpt lat="45.83889" lon="3.04545">
        <ele>540</ele>
        <time>2019-04-17T16:26:41Z</time>
      </trkpt>
      <trkpt lat="45.83871" lon="3.04535">
        <ele>538</ele>
        <time>2019-04-17T16:27:41Z</time>
      </trkpt>
      <trkpt lat="45.83828" lon="3.04498">
        <ele>534</ele>
        <time>2019-04-17T16:28:41Z</time>
      </trkpt>
      <trkpt lat="45.83813" lon="3.04489">
        <ele>534</ele>
        <time>2019-04-17T16:29:41Z</time>
      </trkpt>
      <trkpt lat="45.83798" lon="3.04487">
        <ele>533</ele>
        <time>2019-04-17T16:30:41Z</time>
      </trkpt>
      <trkpt lat="45.83778" lon="3.04495">
        <ele>532</ele>
        <time>2019-04-17T16:31:41Z</time>
      </trkpt>
      <trkpt lat="45.83764" lon="3.04505">
        <ele>531</ele>
        <time>2019-04-17T16:32:41Z</time>
      </trkpt>
      <trkpt lat="45.8375" lon="3.04518">
        <ele>529</ele>
        <time>2019-04-17T16:33:41Z</time>
      </trkpt>
      <trkpt lat="45.83701" lon="3.04586">
        <ele>526</ele>
        <time>2019-04-17T16:34:41Z</time>
      </trkpt>
      <trkpt lat="45.83688" lon="3.04612">
        <ele>525</ele>
        <time>2019-04-17T16:35:41Z</time>
      </trkpt>
      <trkpt lat="45.8367" lon="3.04656">
        <ele>524</ele>
        <time>2019-04-17T16:36:41Z</time>
      </trkpt>
      <trkpt lat="45.83663" lon="3.04666">
        <ele>524</ele>
        <time>2019-04-17T16:37:41Z</time>
      </trkpt>
      <trkpt lat="45.83655" lon="3.04674">
        <ele>523</ele>
        <time>2019-04-17T16:38:41Z</time>
      </trkpt>
      <trkpt lat="45.83642" lon="3.04678">
        <ele>522</ele>
        <time>2019-04-17T16:39:41Z</time>
      </trkpt>
      <trkpt lat="45.83632" lon="3.04679">
        <ele>521</ele>
        <time>2019-04-17T16:40:41Z</time>
      </trkpt>
      <trkpt lat="45.83589" lon="3.0468">
        <ele>518</ele>
        <time>2019-04-17T16:41:41Z</time>
      </trkpt>
      <trkpt lat="45.83571" lon="3.04675">
        <ele>517</ele>
        <time>2019-04-17T16:42:41Z</time>
      </trkpt>
      <trkpt lat="45.8355" lon="3.04659">
        <ele>516</ele>
        <time>2019-04-17T16:43:41Z</time>
      </trkpt>
      <trkpt lat="45.83537" lon="3.04652">
        <ele>516</ele>
        <time>2019-04-17T16:44:41Z</time>
      </trkpt>
      <trkpt lat="45.8352" lon="3.0465">
        <ele>515</ele>
        <time>2019-04-17T16:45:41Z</time>
      </trkpt>
      <trkpt lat="45.83508" lon="3.04658">
        <ele>514</ele>
        <time>2019-04-17T16:46:41Z</time>
      </trkpt>
      <trkpt lat="45.83548" lon="3.04711">
        <ele>514</ele>
        <time>2019-04-17T16:47:41Z</time>
      </trkpt>
      <trkpt lat="45.83612" lon="3.04789">
        <ele>515</ele>
        <time>2019-04-17T16:48:41Z</time>
      </trkpt>
      <trkpt lat="45.83699" lon="3.04874">
        <ele>520</ele>
        <time>2019-04-17T16:49:41Z</time>
      </trkpt>
      <trkpt lat="45.83727" lon="3.04892">
        <ele>522</ele>
        <time>2019-04-17T16:50:41Z</time>
      </trkpt>
      <trkpt lat="45.83737" lon="3.04896">
        <ele>522</ele>
        <time>2019-04-17T16:51:41Z</time>
      </trkpt>
      <trkpt lat="45.8377" lon="3.04901">
        <ele>524</ele>
        <time>2019-04-17T16:52:41Z</time>
      </trkpt>
      <trkpt lat="45.83795" lon="3.04898">
        <ele>525</ele>
        <time>2019-04-17T16:53:41Z</time>
      </trkpt>
      <trkpt lat="45.83817" lon="3.04887">
        <ele>525</ele>
        <time>2019-04-17T16:54:41Z</time>
      </trkpt>
      <trkpt lat="45.83956" lon="3.048">
        <ele>535</ele>
        <time>2019-04-17T16:55:41Z</time>
      </trkpt>
      <trkpt lat="45.84081" lon="3.04724">
        <ele>537</ele>
        <time>2019-04-17T16:56:41Z</time>
      </trkpt>
      <trkpt lat="45.84145" lon="3.04703">
        <ele>536</ele>
        <time>2019-04-17T16:57:41Z</time>
      </trkpt>
      <trkpt lat="45.84156" lon="3.04702">
        <ele>536</ele>
        <time>2019-04-17T16:58:41Z</time>
      </trkpt>
      <trkpt lat="45.84157" lon="3.04709">
        <ele>536</ele>
        <time>2019-04-17T16:59:41Z</time>
      </trkpt>
      <trkpt lat="45.84162" lon="3.04721">
        <ele>536</ele>
        <time>2019-04-17T17:00:41Z</time>
      </trkpt>
      <trkpt lat="45.84169" lon="3.04729">
        <ele>535</ele>
        <time>2019-04-17T17:01:41Z</time>
      </trkpt>
      <trkpt lat="45.84156" lon="3.04764">
        <ele>535</ele>
        <time>2019-04-17T17:02:41Z</time>
      </trkpt>
      <trkpt lat="45.84131" lon="3.0486">
        <ele>533</ele>
        <time>2019-04-17T17:03:41Z</time>
      </trkpt>
      <trkpt lat="45.84125" lon="3.04894">
        <ele>532</ele>
        <time>2019-04-17T17:04:41Z</time>
      </trkpt>
      <trkpt lat="45.84118" lon="3.0495">
        <ele>530</ele>
        <time>2019-04-17T17:05:41Z</time>
      </trkpt>
      <trkpt lat="45.84114" lon="3.05006">
        <ele>529</ele>
        <time>2019-04-17T17:06:41Z</time>
      </trkpt>
      <trkpt lat="45.84113" lon="3.05064">
        <ele>528</ele>
        <time>2019-04-17T17:07:41Z</time>
      </trkpt>
      <trkpt lat="45.84115" lon="3.05105">
        <ele>527</ele>
        <time>2019-04-17T17:08:41Z</time>
      </trkpt>
      <trkpt lat="45.84122" lon="3.05165">
        <ele>525</ele>
        <time>2019-04-17T17:09:41Z</time>
      </trkpt>
      <trkpt lat="45.84131" lon="3.05222">
        <ele>524</ele>
        <time>2019-04-17T17:10:41Z</time>
      </trkpt>
      <trkpt lat="45.84148" lon="3.0529">
        <ele>524</ele>
        <time>2019-04-17T17:11:41Z</time>
      </trkpt>
      <trkpt lat="45.84284" lon="3.05727">
        <ele>516</ele>
        <time>2019-04-17T17:12:41Z</time>
      </trkpt>
      <trkpt lat="45.84298" lon="3.05767">
        <ele>515</ele>
        <time>2019-04-17T17:13:41Z</time>
      </trkpt>
      <trkpt lat="45.84318" lon="3.05818">
        <ele>514</ele>
        <time>2019-04-17T17:14:41Z</time>
      </trkpt>
      <trkpt lat="45.84338" lon="3.0586">
        <ele>513</ele>
        <time>2019-04-17T17:15:41Z</time>
      </trkpt>
      <trkpt lat="45.84356" lon="3.05894">
        <ele>512</ele>
        <time>2019-04-17T17:16:41Z</time>
      </trkpt>
      <trkpt lat="45.84392" lon="3.05951">
        <ele>511</ele>
        <time>2019-04-17T17:17:41Z</time>
      </trkpt>
      <trkpt lat="45.8453" lon="3.06152">
        <ele>500</ele>
        <time>2019-04-17T17:18:41Z</time>
      </trkpt>
      <trkpt lat="45.84521" lon="3.06164">
        <ele>500</ele>
        <time>2019-04-17T17:19:41Z</time>
      </trkpt>
      <trkpt lat="45.84516" lon="3.06176">
        <ele>500</ele>
        <time>2019-04-17T17:20:41Z</time>
      </trkpt>
      <trkpt lat="45.84501" lon="3.06226">
        <ele>501</ele>
        <time>2019-04-17T17:21:41Z</time>
      </trkpt>
      <trkpt lat="45.84486" lon="3.06298">
        <ele>502</ele>
        <time>2019-04-17T17:22:41Z</time>
      </trkpt>
      <trkpt lat="45.84472" lon="3.0635">
        <ele>502</ele>
        <time>2019-04-17T17:23:41Z</time>
      </trkpt>
      <trkpt lat="45.84462" lon="3.0638">
        <ele>501</ele>
        <time>2019-04-17T17:24:41Z</time>
      </trkpt>
      <trkpt lat="45.84448" lon="3.06407">
        <ele>501</ele>
        <time>2019-04-17T17:25:41Z</time>
      </trkpt>
      <trkpt lat="45.84425" lon="3.06438">
        <ele>501</ele>
        <time>2019-04-17T17:26:41Z</time>
      </trkpt>
      <trkpt lat="45.84415" lon="3.06455">
        <ele>502</ele>
        <time>2019-04-17T17:27:41Z</time>
      </trkpt>
      <trkpt lat="45.84383" lon="3.06532">
        <ele>502</ele>
        <time>2019-04-17T17:28:41Z</time>
      </trkpt>
      <trkpt lat="45.84342" lon="3.06618">
        <ele>501</ele>
        <time>2019-04-17T17:29:41Z</time>
      </trkpt>
      <trkpt lat="45.84331" lon="3.06647">
        <ele>500</ele>
        <time>2019-04-17T17:30:41Z</time>
      </trkpt>
      <trkpt lat="45.84307" lon="3.06737">
        <ele>499</ele>
        <time>2019-04-17T17:31:41Z</time>
      </trkpt>
      <trkpt lat="45.84297" lon="3.06767">
        <ele>499</ele>
        <time>2019-04-17T17:32:41Z</time>
      </trkpt>
      <trkpt lat="45.84228" lon="3.06925">
        <ele>497</ele>
        <time>2019-04-17T17:33:41Z</time>
      </trkpt>
      <trkpt lat="45.84206" lon="3.06988">
        <ele>498</ele>
        <time>2019-04-17T17:34:41Z</time>
      </trkpt>
      <trkpt lat="45.8419" lon="3.07041">
        <ele>498</ele>
        <time>2019-04-17T17:35:41Z</time>
      </trkpt>
      <trkpt lat="45.84166" lon="3.07144">
        <ele>497</ele>
        <time>2019-04-17T17:36:41Z</time>
      </trkpt>
      <trkpt lat="45.84145" lon="3.07205">
        <ele>497</ele>
        <time>2019-04-17T17:37:41Z</time>
      </trkpt>
      <trkpt lat="45.84135" lon="3.07228">
        <ele>497</ele>
        <time>2019-04-17T17:38:41Z</time>
      </trkpt>
      <trkpt lat="45.84126" lon="3.07244">
        <ele>498</ele>
        <time>2019-04-17T17:39:41Z</time>
      </trkpt>
      <trkpt lat="45.84111" lon="3.0726">
        <ele>498</ele>
        <time>2019-04-17T17:40:41Z</time>
      </trkpt>
      <trkpt lat="45.84051" lon="3.07317">
        <ele>495</ele>
        <time>2019-04-17T17:41:41Z</time>
      </trkpt>
      <trkpt lat="45.8399" lon="3.07359">
        <ele>490</ele>
        <time>2019-04-17T17:42:41Z</time>
      </trkpt>
      <trkpt lat="45.83986" lon="3.07363">
        <ele>490</ele>
        <time>2019-04-17T17:43:41Z</time>
      </trkpt>
      <trkpt lat="45.83983" lon="3.07372">
        <ele>489</ele>
        <time>2019-04-17T17:44:41Z</time>
      </trkpt>
      <trkpt lat="45.83983" lon="3.0738">
        <ele>488</ele>
        <time>2019-04-17T17:45:41Z</time>
      </trkpt>
      <trkpt lat="45.83984" lon="3.07398">
        <ele>486</ele>
        <time>2019-04-17T17:46:41Z</time>
      </trkpt>
      <trkpt lat="45.83991" lon="3.07417">
        <ele>484</ele>
        <time>2019-04-17T17:47:41Z</time>
      </trkpt>
      <trkpt lat="45.83993" lon="3.0743">
        <ele>483</ele>
        <time>2019-04-17T17:48:41Z</time>
      </trkpt>
      <trkpt lat="45.83989" lon="3.07434">
        <ele>483</ele>
        <time>2019-04-17T17:49:41Z</time>
      </trkpt>
      <trkpt lat="45.83989" lon="3.0744">
        <ele>483</ele>
        <time>2019-04-17T17:50:41Z</time>
      </trkpt>
      <trkpt lat="45.83991" lon="3.07442">
        <ele>482</ele>
        <time>2019-04-17T17:51:41Z</time>
      </trkpt>
      <trkpt lat="45.83996" lon="3.07442">
        <ele>482</ele>
        <time>2019-04-17T17:52:41Z</time>
      </trkpt>
      <trkpt lat="45.83996" lon="3.07433">
        <ele>483</ele>
        <time>2019-04-17T17:53:41Z</time>
      </trkpt>
      <trkpt lat="45.84022" lon="3.0745">
        <ele>484</ele>
        <time>2019-04-17T17:54:41Z</time>
      </trkpt>
      <trkpt lat="45.84033" lon="3.07465">
        <ele>484</ele>
        <time>2019-04-17T17:55:41Z</time>
      </trkpt>
      <trkpt lat="45.84037" lon="3.07475">
        <ele>484</ele>
        <time>2019-04-17T17:56:41Z</time>
      </trkpt>
      <trkpt lat="45.84039" lon="3.07487">
        <ele>484</ele>
        <time>2019-04-17T17:57:41Z</time>
      </trkpt>
      <trkpt lat="45.84036" lon="3.07501">
        <ele>483</ele>
        <time>2019-04-17T17:58:41Z</time>
      </trkpt>
      <trkpt lat="45.84075" lon="3.07529">
        <ele>489</ele>
        <time>2019-04-17T17:59:41Z</time>
      </trkpt>
      <trkpt lat="45.84069" lon="3.0757">
        <ele>489</ele>
        <time>2019-04-17T18:00:41Z</time>
      </trkpt>
      <trkpt lat="45.84063" lon="3.07582">
        <ele>489</ele>
        <time>2019-04-17T18:01:41Z</time>
      </trkpt>
      <trkpt lat="45.84058" lon="3.07597">
        <ele>488</ele>
        <time>2019-04-17T18:02:41Z</time>
      </trkpt>
      <trkpt lat="45.84057" lon="3.0763">
        <ele>488</ele>
        <time>2019-04-17T18:03:41Z</time>
      </trkpt>
      <trkpt lat="45.84054" lon="3.0765">
        <ele>487</ele>
        <time>2019-04-17T18:04:41Z</time>
      </trkpt>
      <trkpt lat="45.84046" lon="3.07692">
        <ele>484</ele>
        <time>2019-04-17T18:05:41Z</time>
      </trkpt>
      <trkpt lat="45.84053" lon="3.07729">
        <ele>484</ele>
        <time>2019-04-17T18:06:41Z</time>
      </trkpt>
      <trkpt lat="45.84055" lon="3.07807">
        <ele>482</ele>
        <time>2019-04-17T18:07:41Z</time>
      </trkpt>
      <trkpt lat="45.8406" lon="3.07878">
        <ele>483</ele>
        <time>2019-04-17T18:08:41Z</time>
      </trkpt>
      <trkpt lat="45.84078" lon="3.07964">
        <ele>488</ele>
        <time>2019-04-17T18:09:41Z</time>
      </trkpt>
      <trkpt lat="45.84083" lon="3.0802">
        <ele>490</ele>
        <time>2019-04-17T18:10:41Z</time>
      </trkpt>
      <trkpt lat="45.8408" lon="3.08099">
        <ele>489</ele>
        <time>2019-04-17T18:11:41Z</time>
      </trkpt>
      <trkpt lat="45.84084" lon="3.08119">
        <ele>489</ele>
        <time>2019-04-17T18:12:41Z</time>
      </trkpt>
      <trkpt lat="45.84099" lon="3.08154">
        <ele>491</ele>
        <time>2019-04-17T18:13:41Z</time>
      </trkpt>
      <trkpt lat="45.84117" lon="3.08177">
        <ele>495</ele>
        <time>2019-04-17T18:14:41Z</time>
      </trkpt>
      <trkpt lat="45.84136" lon="3.08195">
        <ele>499</ele>
        <time>2019-04-17T18:15:41Z</time>
      </trkpt>
      <trkpt lat="45.84147" lon="3.08209">
        <ele>501</ele>
        <time>2019-04-17T18:16:41Z</time>
      </trkpt>
      <trkpt lat="45.84171" lon="3.08273">
        <ele>500</ele>
        <time>2019-04-17T18:17:41Z</time>
      </trkpt>
      <trkpt lat="45.84188" lon="3.08311">
        <ele>498</ele>
        <time>2019-04-17T18:18:41Z</time>
      </trkpt>
      <trkpt lat="45.84171" lon="3.0834">
        <ele>495</ele>
        <time>2019-04-17T18:19:41Z</time>
      </trkpt>
      <trkpt lat="45.8415" lon="3.08396">
        <ele>490</ele>
        <time>2019-04-17T18:20:41Z</time>
      </trkpt>
      <trkpt lat="45.84145" lon="3.0842">
        <ele>488</ele>
        <time>2019-04-17T18:21:41Z</time>
      </trkpt>
      <trkpt lat="45.84142" lon="3.08445">
        <ele>486</ele>
        <time>2019-04-17T18:22:41Z</time>
      </trkpt>
      <trkpt lat="45.8414" lon="3.0848">
        <ele>485</ele>
        <time>2019-04-17T18:23:41Z</time>
      </trkpt>
      <trkpt lat="45.84142" lon="3.08515">
        <ele>483</ele>
        <time>2019-04-17T18:24:41Z</time>
      </trkpt>
      <trkpt lat="45.84146" lon="3.08537">
        <ele>481</ele>
        <time>2019-04-17T18:25:41Z</time>
      </trkpt>
      <trkpt lat="45.84151" lon="3.08559">
        <ele>480</ele>
        <time>2019-04-17T18:26:41Z</time>
      </trkpt>
      <trkpt lat="45.84159" lon="3.08582">
        <ele>478</ele>
        <time>2019-04-17T18:27:41Z</time>
      </trkpt>
      <trkpt lat="45.84169" lon="3.08604">
        <ele>475</ele>
        <time>2019-04-17T18:28:41Z</time>
      </trkpt>
      <trkpt lat="45.84187" lon="3.08634">
        <ele>471</ele>
        <time>2019-04-17T18:29:41Z</time>
      </trkpt>
      <trkpt lat="45.84199" lon="3.0865">
        <ele>469</ele>
        <time>2019-04-17T18:30:41Z</time>
      </trkpt>
      <trkpt lat="45.84219" lon="3.08667">
        <ele>466</ele>
        <time>2019-04-17T18:31:41Z</time>
      </trkpt>
      <trkpt lat="45.84586" lon="3.08889">
        <ele>443</ele>
        <time>2019-04-17T18:32:41Z</time>
      </trkpt>
      <trkpt lat="45.84604" lon="3.08902">
        <ele>442</ele>
        <time>2019-04-17T18:33:41Z</time>
      </trkpt>
      <trkpt lat="45.84638" lon="3.08938">
        <ele>439</ele>
        <time>2019-04-17T18:34:41Z</time>
      </trkpt>
      <trkpt lat="45.84711" lon="3.09028">
        <ele>435</ele>
        <time>2019-04-17T18:35:41Z</time>
      </trkpt>
      <trkpt lat="45.84727" lon="3.09051">
        <ele>435</ele>
        <time>2019-04-17T18:36:41Z</time>
      </trkpt>
      <trkpt lat="45.84739" lon="3.0908">
        <ele>432</ele>
        <time>2019-04-17T18:37:41Z</time>
      </trkpt>
      <trkpt lat="45.84743" lon="3.09098">
        <ele>430</ele>
        <time>2019-04-17T18:38:41Z</time>
      </trkpt>
      <trkpt lat="45.84766" lon="3.09266">
        <ele>417</ele>
        <time>2019-04-17T18:39:41Z</time>
      </trkpt>
      <trkpt lat="45.84771" lon="3.0929">
        <ele>415</ele>
        <time>2019-04-17T18:40:41Z</time>
      </trkpt>
      <trkpt lat="45.84778" lon="3.09314">
        <ele>413</ele>
        <time>2019-04-17T18:41:41Z</time>
      </trkpt>
      <trkpt lat="45.84788" lon="3.09337">
        <ele>411</ele>
        <time>2019-04-17T18:42:41Z</time>
      </trkpt>
      <trkpt lat="45.84812" lon="3.09377">
        <ele>409</ele>
        <time>2019-04-17T18:43:41Z</time>
      </trkpt>
      <trkpt lat="45.84853" lon="3.09429">
        <ele>405</ele>
        <time>2019-04-17T18:44:41Z</time>
      </trkpt>
      <trkpt lat="45.84872" lon="3.09458">
        <ele>403</ele>
        <time>2019-04-17T18:45:41Z</time>
      </trkpt>
      <trkpt lat="45.84884" lon="3.09483">
        <ele>401</ele>
        <time>2019-04-17T18:46:41Z</time>
      </trkpt>
      <trkpt lat="45.84892" lon="3.09508">
        <ele>400</ele>
        <time>2019-04-17T18:47:41Z</time>
      </trkpt>
      <trkpt lat="45.84896" lon="3.09533">
        <ele>398</ele>
        <time>2019-04-17T18:48:41Z</time>
      </trkpt>
      <trkpt lat="45.84898" lon="3.09553">
        <ele>397</ele>
        <time>2019-04-17T18:49:41Z</time>
      </trkpt>
      <trkpt lat="45.84897" lon="3.09577">
        <ele>396</ele>
        <time>2019-04-17T18:50:41Z</time>
      </trkpt>
      <trkpt lat="45.84884" lon="3.09685">
        <ele>389</ele>
        <time>2019-04-17T18:51:41Z</time>
      </trkpt>
      <trkpt lat="45.84882" lon="3.09734">
        <ele>386</ele>
        <time>2019-04-17T18:52:41Z</time>
      </trkpt>
      <trkpt lat="45.84884" lon="3.09765">
        <ele>384</ele>
        <time>2019-04-17T18:53:41Z</time>
      </trkpt>
      <trkpt lat="45.84888" lon="3.09797">
        <ele>382</ele>
        <time>2019-04-17T18:54:41Z</time>
      </trkpt>
      <trkpt lat="45.84913" lon="3.09915">
        <ele>374</ele>
        <time>2019-04-17T18:55:41Z</time>
      </trkpt>
      <trkpt lat="45.8492" lon="3.09956">
        <ele>371</ele>
        <time>2019-04-17T18:56:41Z</time>
      </trkpt>
      <trkpt lat="45.84923" lon="3.09993">
        <ele>368</ele>
        <time>2019-04-17T18:57:41Z</time>
      </trkpt>
      <trkpt lat="45.84924" lon="3.10187">
        <ele>363</ele>
        <time>2019-04-17T18:58:41Z</time>
      </trkpt>
      <trkpt lat="45.84923" lon="3.10216">
        <ele>361</ele>
        <time>2019-04-17T18:59:41Z</time>
      </trkpt>
      <trkpt lat="45.84921" lon="3.10233">
        <ele>361</ele>
        <time>2019-04-17T19:00:41Z</time>
      </trkpt>
      <trkpt lat="45.84917" lon="3.10261">
        <ele>359</ele>
        <time>2019-04-17T19:01:41Z</time>
      </trkpt>
      <trkpt lat="45.8491" lon="3.10288">
        <ele>358</ele>
        <time>2019-04-17T19:02:41Z</time>
      </trkpt>
      <trkpt lat="45.84895" lon="3.10325">
        <ele>355</ele>
        <time>2019-04-17T19:03:41Z</time>
      </trkpt>
      <trkpt lat="45.84871" lon="3.10369">
        <ele>352</ele>
        <time>2019-04-17T19:04:41Z</time>
      </trkpt>
      <trkpt lat="45.8484" lon="3.10403">
        <ele>349</ele>
        <time>2019-04-17T19:05:41Z</time>
      </trkpt>
      <trkpt lat="45.84823" lon="3.10417">
        <ele>349</ele>
        <time>2019-04-17T19:06:41Z</time>
      </trkpt>
      <trkpt lat="45.84411" lon="3.10683">
        <ele>343</ele>
        <time>2019-04-17T19:07:41Z</time>
      </trkpt>
      <trkpt lat="45.8437" lon="3.10718">
        <ele>345</ele>
        <time>2019-04-17T19:08:41Z</time>
      </trkpt>
      <trkpt lat="45.84347" lon="3.10743">
        <ele>345</ele>
        <time>2019-04-17T19:09:41Z</time>
      </trkpt>
      <trkpt lat="45.84335" lon="3.10759">
        <ele>345</ele>
        <time>2019-04-17T19:10:41Z</time>
      </trkpt>
      <trkpt lat="45.84314" lon="3.10793">
        <ele>346</ele>
        <time>2019-04-17T19:11:41Z</time>
      </trkpt>
      <trkpt lat="45.8429" lon="3.10848">
        <ele>349</ele>
        <time>2019-04-17T19:12:41Z</time>
      </trkpt>
      <trkpt lat="45.84273" lon="3.10902">
        <ele>351</ele>
        <time>2019-04-17T19:13:41Z</time>
      </trkpt>
      <trkpt lat="45.84267" lon="3.10928">
        <ele>352</ele>
        <time>2019-04-17T19:14:41Z</time>
      </trkpt>
      <trkpt lat="45.84258" lon="3.11001">
        <ele>352</ele>
        <time>2019-04-17T19:15:41Z</time>
      </trkpt>
      <trkpt lat="45.84236" lon="3.11262">
        <ele>357</ele>
        <time>2019-04-17T19:16:41Z</time>
      </trkpt>
      <trkpt lat="45.84229" lon="3.11296">
        <ele>356</ele>
        <time>2019-04-17T19:17:41Z</time>
      </trkpt>
      <trkpt lat="45.84221" lon="3.11313">
        <ele>356</ele>
        <time>2019-04-17T19:18:41Z</time>
      </trkpt>
      <trkpt lat="45.84221" lon="3.11323">
        <ele>355</ele>
        <time>2019-04-17T19:19:41Z</time>
      </trkpt>
      <trkpt lat="45.84224" lon="3.1133">
        <ele>355</ele>
        <time>2019-04-17T19:20:41Z</time>
      </trkpt>
      <trkpt lat="45.84228" lon="3.11334">
        <ele>355</ele>
        <time>2019-04-17T19:21:41Z</time>
      </trkpt>
      <trkpt lat="45.84232" lon="3.11346">
        <ele>355</ele>
        <time>2019-04-17T19:22:41Z</time>
      </trkpt>
      <trkpt lat="45.84238" lon="3.1138">
        <ele>355</ele>
        <time>2019-04-17T19:23:41Z</time>
      </trkpt>
      <trkpt lat="45.84251" lon="3.11548">
        <ele>357</ele>
        <time>2019-04-17T19:24:41Z</time>
      </trkpt>
      <trkpt lat="45.84244" lon="3.11596">
        <ele>357</ele>
        <time>2019-04-17T19:25:41Z</time>
      </trkpt>
      <trkpt lat="45.8424" lon="3.11606">
        <ele>357</ele>
        <time>2019-04-17T19:26:41Z</time>
      </trkpt>
      <trkpt lat="45.84229" lon="3.11617">
        <ele>357</ele>
        <time>2019-04-17T19:27:41Z</time>
      </trkpt>
      <trkpt lat="45.84224" lon="3.11625">
        <ele>357</ele>
        <time>2019-04-17T19:28:41Z</time>
      </trkpt>
      <trkpt lat="45.84221" lon="3.11636">
        <ele>357</ele>
        <time>2019-04-17T19:29:41Z</time>
      </trkpt>
      <trkpt lat="45.8422" lon="3.11649">
        <ele>357</ele>
        <time>2019-04-17T19:30:41Z</time>
      </trkpt>
      <trkpt lat="45.84217" lon="3.11657">
        <ele>357</ele>
        <time>2019-04-17T19:31:41Z</time>
      </trkpt>
      <trkpt lat="45.84212" lon="3.11666">
        <ele>357</ele>
        <time>2019-04-17T19:32:41Z</time>
      </trkpt>
      <trkpt lat="45.84188" lon="3.11689">
        <ele>357</ele>
        <time>2019-04-17T19:33:41Z</time>
      </trkpt>
      <trkpt lat="45.84082" lon="3.11737">
        <ele>355</ele>
        <time>2019-04-17T19:34:41Z</time>
      </trkpt>
      <trkpt lat="45.84053" lon="3.11745">
        <ele>354</ele>
        <time>2019-04-17T19:35:41Z</time>
      </trkpt>
      <trkpt lat="45.83858" lon="3.11786">
        <ele>352</ele>
        <time>2019-04-17T19:36:41Z</time>
      </trkpt>
      <trkpt lat="45.83812" lon="3.11792">
        <ele>352</ele>
        <time>2019-04-17T19:37:41Z</time>
      </trkpt>
      <trkpt lat="45.83805" lon="3.11785">
        <ele>352</ele>
        <time>2019-04-17T19:38:41Z</time>
      </trkpt>
      <trkpt lat="45.83797" lon="3.11783">
        <ele>351</ele>
        <time>2019-04-17T19:39:41Z</time>
      </trkpt>
      <trkpt lat="45.8379" lon="3.11785">
        <ele>351</ele>
        <time>2019-04-17T19:40:41Z</time>
      </trkpt>
      <trkpt lat="45.83783" lon="3.11791">
        <ele>351</ele>
        <time>2019-04-17T19:41:41Z</time>
      </trkpt>
      <trkpt lat="45.83779" lon="3.118">
        <ele>351</ele>
        <time>2019-04-17T19:42:41Z</time>
      </trkpt>
      <trkpt lat="45.83777" lon="3.11813">
        <ele>351</ele>
        <time>2019-04-17T19:43:41Z</time>
      </trkpt>
      <trkpt lat="45.83779" lon="3.11825">
        <ele>351</ele>
        <time>2019-04-17T19:44:41Z</time>
      </trkpt>
      <trkpt lat="45.83785" lon="3.11835">
        <ele>351</ele>
        <time>2019-04-17T19:45:41Z</time>
      </trkpt>
      <trkpt lat="45.83791" lon="3.11839">
        <ele>351</ele>
        <time>2019-04-17T19:46:41Z</time>
      </trkpt>
      <trkpt lat="45.83795" lon="3.11852">
        <ele>351</ele>
        <time>2019-04-17T19:47:41Z</time>
      </trkpt>
      <trkpt lat="45.83803" lon="3.11885">
        <ele>351</ele>
        <time>2019-04-17T19:48:41Z</time>
      </trkpt>
      <trkpt lat="45.83796" lon="3.11984">
        <ele>351</ele>
        <time>2019-04-17T19:49:41Z</time>
      </trkpt>
      <trkpt lat="45.83797" lon="3.1204">
        <ele>350</ele>
        <time>2019-04-17T19:50:41Z</time>
      </trkpt>
      <trkpt lat="45.83802" lon="3.12106">
        <ele>350</ele>
        <time>2019-04-17T19:51:41Z</time>
      </trkpt>
      <trkpt lat="45.8383" lon="3.1232">
        <ele>348</ele>
        <time>2019-04-17T19:52:41Z</time>
      </trkpt>
      <trkpt lat="45.83831" lon="3.12368">
        <ele>348</ele>
        <time>2019-04-17T19:53:41Z</time>
      </trkpt>
      <trkpt lat="45.83827" lon="3.12407">
        <ele>347</ele>
        <time>2019-04-17T19:54:41Z</time>
      </trkpt>
      <trkpt lat="45.83759" lon="3.12771">
        <ele>344</ele>
        <time>2019-04-17T19:55:41Z</time>
      </trkpt>
      <trkpt lat="45.83697" lon="3.13131">
        <ele>341</ele>
        <time>2019-04-17T19:56:41Z</time>
      </trkpt>
      <trkpt lat="45.8369" lon="3.13209">
        <ele>341</ele>
        <time>2019-04-17T19:57:41Z</time>
      </trkpt>
      <trkpt lat="45.83684" lon="3.13434">
        <ele>341</ele>
        <time>2019-04-17T19:58:41Z</time>
      </trkpt>
      <trkpt lat="45.83676" lon="3.1355">
        <ele>341</ele>
        <time>2019-04-17T19:59:41Z</time>
      </trkpt>
      <trkpt lat="45.83672" lon="3.13671">
        <ele>339</ele>
        <time>2019-04-17T20:00:41Z</time>
      </trkpt>
      <trkpt lat="45.83673" lon="3.13698">
        <ele>339</ele>
        <time>2019-04-17T20:01:41Z</time>
      </trkpt>
      <trkpt lat="45.83701" lon="3.13809">
        <ele>338</ele>
        <time>2019-04-17T20:02:41Z</time>
      </trkpt>
      <trkpt lat="45.83717" lon="3.1387">
        <ele>337</ele>
        <time>2019-04-17T20:03:41Z</time>
      </trkpt>
      <trkpt lat="45.83728" lon="3.13903">
        <ele>336</ele>
        <time>2019-04-17T20:04:41Z</time>
      </trkpt>
      <trkpt lat="45.83742" lon="3.13932">
        <ele>335</ele>
        <time>2019-04-17T20:05:41Z</time>
      </trkpt>
      <trkpt lat="45.83769" lon="3.13966">
        <ele>334</ele>
        <time>2019-04-17T20:06:41Z</time>
      </trkpt>
      <trkpt lat="45.83793" lon="3.13984">
        <ele>334</ele>
        <time>2019-04-17T20:07:41Z</time>
      </trkpt>
      <trkpt lat="45.83878" lon="3.14021">
        <ele>338</ele>
        <time>2019-04-17T20:08:41Z</time>
      </trkpt>
      <trkpt lat="45.83902" lon="3.14033">
        <ele>339</ele>
        <time>2019-04-17T20:09:41Z</time>
      </trkpt>
      <trkpt lat="45.83922" lon="3.14047">
        <ele>340</ele>
        <time>2019-04-17T20:10:41Z</time>
      </trkpt>
      <trkpt lat="45.83943" lon="3.14069">
        <ele>340</ele>
        <time>2019-04-17T20:11:41Z</time>
      </trkpt>
      <trkpt lat="45.83972" lon="3.14115">
        <ele>341</ele>
        <time>2019-04-17T20:12:41Z</time>
      </trkpt>
      <trkpt lat="45.83984" lon="3.14139">
        <ele>341</ele>
        <time>2019-04-17T20:13:41Z</time>
      </trkpt>
      <trkpt lat="45.83993" lon="3.14163">
        <ele>342</ele>
        <time>2019-04-17T20:14:41Z</time>
      </trkpt>
      <trkpt lat="45.84" lon="3.14194">
        <ele>341</ele>
        <time>2019-04-17T20:15:41Z</time>
      </trkpt>
      <trkpt lat="45.84029" lon="3.14366">
        <ele>340</ele>
        <time>2019-04-17T20:16:41Z</time>
      </trkpt>
      <trkpt lat="45.84038" lon="3.14433">
        <ele>341</ele>
        <time>2019-04-17T20:17:41Z</time>
      </trkpt>
      <trkpt lat="45.84038" lon="3.14444">
        <ele>341</ele>
        <time>2019-04-17T20:18:41Z</time>
      </trkpt>
      <trkpt lat="45.84035" lon="3.14457">
        <ele>341</ele>
        <time>2019-04-17T20:19:41Z</time>
      </trkpt>
      <trkpt lat="45.84036" lon="3.14465">
        <ele>341</ele>
        <time>2019-04-17T20:20:41Z</time>
      </trkpt>
      <trkpt lat="45.8404" lon="3.14474">
        <ele>340</ele>
        <time>2019-04-17T20:21:41Z</time>
      </trkpt>
      <trkpt lat="45.84045" lon="3.14479">
        <ele>340</ele>
        <time>2019-04-17T20:22:41Z</time>
      </trkpt>
      <trkpt lat="45.84052" lon="3.14502">
        <ele>340</ele>
        <time>2019-04-17T20:23:41Z</time>
      </trkpt>
      <trkpt lat="45.84062" lon="3.14586">
        <ele>341</ele>
        <time>2019-04-17T20:24:41Z</time>
      </trkpt>
      <trkpt lat="45.84088" lon="3.14735">
        <ele>340</ele>
        <time>2019-04-17T20:25:41Z</time>
      </trkpt>
      <trkpt lat="45.84154" lon="3.15157">
        <ele>338</ele>
        <time>2019-04-17T20:26:41Z</time>
      </trkpt>
      <trkpt lat="45.84169" lon="3.15282">
        <ele>337</ele>
        <time>2019-04-17T20:27:41Z</time>
      </trkpt>
      <trkpt lat="45.84183" lon="3.15482">
        <ele>334</ele>
        <time>2019-04-17T20:28:41Z</time>
      </trkpt>
      <trkpt lat="45.84186" lon="3.15568">
        <ele>332</ele>
        <time>2019-04-17T20:29:41Z</time>
      </trkpt>
      <trkpt lat="45.84187" lon="3.15654">
        <ele>329</ele>
        <time>2019-04-17T20:30:41Z</time>
      </trkpt>
      <trkpt lat="45.84186" lon="3.15697">
        <ele>328</ele>
        <time>2019-04-17T20:31:41Z</time>
      </trkpt>
      <trkpt lat="45.84178" lon="3.15763">
        <ele>326</ele>
        <time>2019-04-17T20:32:41Z</time>
      </trkpt>
      <trkpt lat="45.84174" lon="3.15778">
        <ele>326</ele>
        <time>2019-04-17T20:33:41Z</time>
      </trkpt>
      <trkpt lat="45.84162" lon="3.15784">
        <ele>325</ele>
        <time>2019-04-17T20:34:41Z</time>
      </trkpt>
      <trkpt lat="45.84156" lon="3.15791">
        <ele>325</ele>
        <time>2019-04-17T20:35:41Z</time>
      </trkpt>
      <trkpt lat="45.84151" lon="3.158">
        <ele>325</ele>
        <time>2019-04-17T20:36:41Z</time>
      </trkpt>
      <trkpt lat="45.84147" lon="3.15817">
        <ele>324</ele>
        <time>2019-04-17T20:37:41Z</time>
      </trkpt>
      <trkpt lat="45.84147" lon="3.1583">
        <ele>324</ele>
        <time>2019-04-17T20:38:41Z</time>
      </trkpt>
      <trkpt lat="45.84149" lon="3.15838">
        <ele>324</ele>
        <time>2019-04-17T20:39:41Z</time>
      </trkpt>
      <trkpt lat="45.84154" lon="3.1585">
        <ele>324</ele>
        <time>2019-04-17T20:40:41Z</time>
      </trkpt>
      <trkpt lat="45.84158" lon="3.15857">
        <ele>324</ele>
        <time>2019-04-17T20:41:41Z</time>
      </trkpt>
      <trkpt lat="45.84167" lon="3.15864">
        <ele>324</ele>
        <time>2019-04-17T20:42:41Z</time>
      </trkpt>
      <trkpt lat="45.84175" lon="3.15867">
        <ele>324</ele>
        <time>2019-04-17T20:43:41Z</time>
      </trkpt>
      <trkpt lat="45.84189" lon="3.15864">
        <ele>324</ele>
        <time>2019-04-17T20:44:41Z</time>
      </trkpt>
      <trkpt lat="45.84196" lon="3.15859">
        <ele>324</ele>
        <time>2019-04-17T20:45:41Z</time>
      </trkpt>
      <trkpt lat="45.84202" lon="3.15851">
        <ele>324</ele>
        <time>2019-04-17T20:46:41Z</time>
      </trkpt>
      <trkpt lat="45.84211" lon="3.15847">
        <ele>324</ele>
        <time>2019-04-17T20:47:41Z</time>
      </trkpt>
      <trkpt lat="45.84219" lon="3.15845">
        <ele>324</ele>
        <time>2019-04-17T20:48:41Z</time>
      </trkpt>
      <trkpt lat="45.84229" lon="3.15845">
        <ele>324</ele>
        <time>2019-04-17T20:49:41Z</time>
      </trkpt>
      <trkpt lat="45.84258" lon="3.1586">
        <ele>324</ele>
        <time>2019-04-17T20:50:41Z</time>
      </trkpt>
      <trkpt lat="45.84278" lon="3.15888">
        <ele>323</ele>
        <time>2019-04-17T20:51:41Z</time>
      </trkpt>
      <trkpt lat="45.84298" lon="3.15933">
        <ele>322</ele>
        <time>2019-04-17T20:52:41Z</time>
      </trkpt>
      <trkpt lat="45.84313" lon="3.15979">
        <ele>322</ele>
        <time>2019-04-17T20:53:41Z</time>
      </trkpt>
      <trkpt lat="45.8435" lon="3.16118">
        <ele>321</ele>
        <time>2019-04-17T20:54:41Z</time>
      </trkpt>
      <trkpt lat="45.84378" lon="3.1621">
        <ele>321</ele>
        <time>2019-04-17T20:55:41Z</time>
      </trkpt>
      <trkpt lat="45.84416" lon="3.16314">
        <ele>320</ele>
        <time>2019-04-17T20:56:41Z</time>
      </trkpt>
      <trkpt lat="45.8446" lon="3.164">
        <ele>320</ele>
        <time>2019-04-17T20:57:41Z</time>
      </trkpt>
      <trkpt lat="45.84479" lon="3.16436">
        <ele>320</ele>
        <time>2019-04-17T20:58:41Z</time>
      </trkpt>
      <trkpt lat="45.84498" lon="3.16463">
        <ele>320</ele>
        <time>2019-04-17T20:59:41Z</time>
      </trkpt>
      <trkpt lat="45.84521" lon="3.16482">
        <ele>320</ele>
        <time>2019-04-17T21:00:41Z</time>
      </trkpt>
      <trkpt lat="45.84544" lon="3.16494">
        <ele>320</ele>
        <time>2019-04-17T21:01:41Z</time>
      </trkpt>
      <trkpt lat="45.84601" lon="3.1651">
        <ele>319</ele>
        <time>2019-04-17T21:02:41Z</time>
      </trkpt>
      <trkpt lat="45.84612" lon="3.1652">
        <ele>319</ele>
        <time>2019-04-17T21:03:41Z</time>
      </trkpt>
      <trkpt lat="45.84623" lon="3.16538">
        <ele>319</ele>
        <time>2019-04-17T21:04:41Z</time>
      </trkpt>
      <trkpt lat="45.84626" lon="3.16559">
        <ele>319</ele>
        <time>2019-04-17T21:05:41Z</time>
      </trkpt>
      <trkpt lat="45.84622" lon="3.1658">
        <ele>319</ele>
        <time>2019-04-17T21:06:41Z</time>
      </trkpt>
      <trkpt lat="45.84617" lon="3.1659">
        <ele>320</ele>
        <time>2019-04-17T21:07:41Z</time>
      </trkpt>
      <trkpt lat="45.84608" lon="3.16594">
        <ele>320</ele>
        <time>2019-04-17T21:08:41Z</time>
      </trkpt>
      <trkpt lat="45.84598" lon="3.16604">
        <ele>320</ele>
        <time>2019-04-17T21:09:41Z</time>
      </trkpt>
      <trkpt lat="45.8459" lon="3.16617">
        <ele>320</ele>
        <time>2019-04-17T21:10:41Z</time>
      </trkpt>
      <trkpt lat="45.84585" lon="3.16628">
        <ele>320</ele>
        <time>2019-04-17T21:11:41Z</time>
      </trkpt>
      <trkpt lat="45.84582" lon="3.16644">
        <ele>320</ele>
        <time>2019-04-17T21:12:41Z</time>
      </trkpt>
      <trkpt lat="45.84582" lon="3.16655">
        <ele>320</ele>
        <time>2019-04-17T21:13:41Z</time>
      </trkpt>
      <trkpt lat="45.84584" lon="3.1667">
        <ele>320</ele>
        <time>2019-04-17T21:14:41Z</time>
      </trkpt>
      <trkpt lat="45.84588" lon="3.16684">
        <ele>320</ele>
        <time>2019-04-17T21:15:41Z</time>
      </trkpt>
      <trkpt lat="45.84594" lon="3.16696">
        <ele>319</ele>
        <time>2019-04-17T21:16:41Z</time>
      </trkpt>
      <trkpt lat="45.84579" lon="3.16709">
        <ele>319</ele>
        <time>2019-04-17T21:17:41Z</time>
      </trkpt>
      <trkpt lat="45.84551" lon="3.16744">
        <ele>318</ele>
        <time>2019-04-17T21:18:41Z</time>
      </trkpt>
      <trkpt lat="45.84526" lon="3.16781">
        <ele>318</ele>
        <time>2019-04-17T21:19:41Z</time>
      </trkpt>
      <trkpt lat="45.84503" lon="3.16825">
        <ele>318</ele>
        <time>2019-04-17T21:20:41Z</time>
      </trkpt>
      <trkpt lat="45.84487" lon="3.16867">
        <ele>318</ele>
        <time>2019-04-17T21:21:41Z</time>
      </trkpt>
      <trkpt lat="45.84369" lon="3.1732">
        <ele>317</ele>
        <time>2019-04-17T21:22:41Z</time>
      </trkpt>
      <trkpt lat="45.84356" lon="3.17376">
        <ele>317</ele>
        <time>2019-04-17T21:23:41Z</time>
      </trkpt>
      <trkpt lat="45.84348" lon="3.1744">
        <ele>317</ele>
        <time>2019-04-17T21:24:41Z</time>
      </trkpt>
      <trkpt lat="45.84345" lon="3.17513">
        <ele>317</ele>
        <time>2019-04-17T21:25:41Z</time>
      </trkpt>
      <trkpt lat="45.84347" lon="3.17571">
        <ele>317</ele>
        <time>2019-04-17T21:26:41Z</time>
      </trkpt>
      <trkpt lat="45.84352" lon="3.17619">
        <ele>317</ele>
        <time>2019-04-17T21:27:41Z</time>
      </trkpt>
      <trkpt lat="45.84361" lon="3.17676">
        <ele>317</ele>
        <time>2019-04-17T21:28:41Z</time>
      </trkpt>
      <trkpt lat="45.84373" lon="3.17726">
        <ele>317</ele>
        <time>2019-04-17T21:29:41Z</time>
      </trkpt>
      <trkpt lat="45.84401" lon="3.17809">
        <ele>317</ele>
        <time>2019-04-17T21:30:41Z</time>
      </trkpt>
      <trkpt lat="45.84654" lon="3.18306">
        <ele>317</ele>
        <time>2019-04-17T21:31:41Z</time>
      </trkpt>
      <trkpt lat="45.84733" lon="3.18444">
        <ele>317</ele>
        <time>2019-04-17T21:32:41Z</time>
      </trkpt>
      <trkpt lat="45.84727" lon="3.18458">
        <ele>317</ele>
        <time>2019-04-17T21:33:41Z</time>
      </trkpt>
      <trkpt lat="45.84727" lon="3.18466">
        <ele>317</ele>
        <time>2019-04-17T21:34:41Z</time>
      </trkpt>
      <trkpt lat="45.84728" lon="3.18474">
        <ele>317</ele>
        <time>2019-04-17T21:35:41Z</time>
      </trkpt>
      <trkpt lat="45.84732" lon="3.18482">
        <ele>317</ele>
        <time>2019-04-17T21:36:41Z</time>
      </trkpt>
      <trkpt lat="45.84737" lon="3.18487">
        <ele>317</ele>
        <time>2019-04-17T21:37:41Z</time>
      </trkpt>
      <trkpt lat="45.84743" lon="3.1849">
        <ele>317</ele>
        <time>2019-04-17T21:38:41Z</time>
      </trkpt>
      <trkpt lat="45.8475" lon="3.1849">
        <ele>317</ele>
        <time>2019-04-17T21:39:41Z</time>
      </trkpt>
      <trkpt lat="45.84753" lon="3.18559">
        <ele>317</ele>
        <time>2019-04-17T21:40:41Z</time>
      </trkpt>
      <trkpt lat="45.84749" lon="3.18594">
        <ele>317</ele>
        <time>2019-04-17T21:41:41Z</time>
      </trkpt>
      <trkpt lat="45.84729" lon="3.18665">
        <ele>317</ele>
        <time>2019-04-17T21:42:41Z</time>
      </trkpt>
      <trkpt lat="45.84647" lon="3.18851">
        <ele>316</ele>
        <time>2019-04-17T21:43:41Z</time>
      </trkpt>
      <trkpt lat="45.84636" lon="3.18881">
        <ele>317</ele>
        <time>2019-04-17T21:44:41Z</time>
      </trkpt>
      <trkpt lat="45.84626" lon="3.18921">
        <ele>317</ele>
        <time>2019-04-17T21:45:41Z</time>
      </trkpt>
      <trkpt lat="45.84587" lon="3.19168">
        <ele>316</ele>
        <time>2019-04-17T21:46:41Z</time>
      </trkpt>
      <trkpt lat="45.84582" lon="3.19209">
        <ele>316</ele>
        <time>2019-04-17T21:47:41Z</time>
      </trkpt>
      <trkpt lat="45.84581" lon="3.19255">
        <ele>315</ele>
        <time>2019-04-17T21:48:41Z</time>
      </trkpt>
      <trkpt lat="45.84587" lon="3.19595">
        <ele>316</ele>
        <time>2019-04-17T21:49:41Z</time>
      </trkpt>
      <trkpt lat="45.84584" lon="3.19641">
        <ele>315</ele>
        <time>2019-04-17T21:50:41Z</time>
      </trkpt>
      <trkpt lat="45.84527" lon="3.20011">
        <ele>317</ele>
        <time>2019-04-17T21:51:41Z</time>
      </trkpt>
      <trkpt lat="45.84515" lon="3.20058">
        <ele>317</ele>
        <time>2019-04-17T21:52:41Z</time>
      </trkpt>
      <trkpt lat="45.84464" lon="3.20181">
        <ele>317</ele>
        <time>2019-04-17T21:53:41Z</time>
      </trkpt>
      <trkpt lat="45.8445" lon="3.20224">
        <ele>316</ele>
        <time>2019-04-17T21:54:41Z</time>
      </trkpt>
      <trkpt lat="45.84434" lon="3.20286">
        <ele>316</ele>
        <time>2019-04-17T21:55:41Z</time>
      </trkpt>
      <trkpt lat="45.84367" lon="3.20574">
        <ele>315</ele>
        <time>2019-04-17T21:56:41Z</time>
      </trkpt>
      <trkpt lat="45.84354" lon="3.20618">
        <ele>315</ele>
        <time>2019-04-17T21:57:41Z</time>
      </trkpt>
      <trkpt lat="45.84341" lon="3.20649">
        <ele>315</ele>
        <time>2019-04-17T21:58:41Z</time>
      </trkpt>
      <trkpt lat="45.84252" lon="3.20814">
        <ele>316</ele>
        <time>2019-04-17T21:59:41Z</time>
      </trkpt>
      <trkpt lat="45.84235" lon="3.20856">
        <ele>316</ele>
        <time>2019-04-17T22:00:41Z</time>
      </trkpt>
      <trkpt lat="45.8416" lon="3.21142">
        <ele>317</ele>
        <time>2019-04-17T22:01:41Z</time>
      </trkpt>
      <trkpt lat="45.84155" lon="3.2114">
        <ele>317</ele>
        <time>2019-04-17T22:02:41Z</time>
      </trkpt>
      <trkpt lat="45.84144" lon="3.21141">
        <ele>317</ele>
        <time>2019-04-17T22:03:41Z</time>
      </trkpt>
      <trkpt lat="45.84139" lon="3.21145">
        <ele>317</ele>
        <time>2019-04-17T22:04:41Z</time>
      </trkpt>
      <trkpt lat="45.84133" lon="3.21157">
        <ele>316</ele>
        <time>2019-04-17T22:05:41Z</time>
      </trkpt>
      <trkpt lat="45.84132" lon="3.21172">
        <ele>316</ele>
        <time>2019-04-17T22:06:41Z</time>
      </trkpt>
      <trkpt lat="45.84138" lon="3.21186">
        <ele>316</ele>
        <time>2019-04-17T22:07:41Z</time>
      </trkpt>
      <trkpt lat="45.84143" lon="3.21191">
        <ele>316</ele>
        <time>2019-04-17T22:08:41Z</time>
      </trkpt>
      <trkpt lat="45.84149" lon="3.21193">
        <ele>316</ele>
        <time>2019-04-17T22:09:41Z</time>
      </trkpt>
      <trkpt lat="45.84155" lon="3.21193">
        <ele>316</ele>
        <time>2019-04-17T22:10:41Z</time>
      </trkpt>
      <trkpt lat="45.84193" lon="3.21429">
        <ele>317</ele>
        <time>2019-04-17T22:11:41Z</time>
      </trkpt>
      <trkpt lat="45.84201" lon="3.21501">
        <ele>318</ele>
        <time>2019-04-17T22:12:41Z</time>
      </trkpt>
      <trkpt lat="45.84197" lon="3.21545">
        <ele>318</ele>
        <time>2019-04-17T22:13:41Z</time>
      </trkpt>
      <trkpt lat="45.84171" lon="3.22">
        <ele>319</ele>
        <time>2019-04-17T22:14:41Z</time>
      </trkpt>
      <trkpt lat="45.84166" lon="3.22063">
        <ele>321</ele>
        <time>2019-04-17T22:15:41Z</time>
      </trkpt>
      <trkpt lat="45.84153" lon="3.22116">
        <ele>321</ele>
        <time>2019-04-17T22:16:41Z</time>
      </trkpt>
      <trkpt lat="45.84133" lon="3.22163">
        <ele>322</ele>
        <time>2019-04-17T22:17:41Z</time>
      </trkpt>
      <trkpt lat="45.84071" lon="3.22281">
        <ele>320</ele>
        <time>2019-04-17T22:18:41Z</time>
      </trkpt>
      <trkpt lat="45.84042" lon="3.2234">
        <ele>319</ele>
        <time>2019-04-17T22:19:41Z</time>
      </trkpt>
      <trkpt lat="45.8402" lon="3.22406">
        <ele>320</ele>
        <time>2019-04-17T22:20:41Z</time>
      </trkpt>
      <trkpt lat="45.84011" lon="3.22459">
        <ele>320</ele>
        <time>2019-04-17T22:21:41Z</time>
      </trkpt>
      <trkpt lat="45.83999" lon="3.22635">
        <ele>320</ele>
        <time>2019-04-17T22:22:41Z</time>
      </trkpt>
      <trkpt lat="45.83994" lon="3.2275">
        <ele>322</ele>
        <time>2019-04-17T22:23:41Z</time>
      </trkpt>
      <trkpt lat="45.83996" lon="3.22867">
        <ele>320</ele>
        <time>2019-04-17T22:24:41Z</time>
      </trkpt>
      <trkpt lat="45.84007" lon="3.23052">
        <ele>323</ele>
        <time>2019-04-17T22:25:41Z</time>
      </trkpt>
      <trkpt lat="45.84046" lon="3.23618">
        <ele>324</ele>
        <time>2019-04-17T22:26:41Z</time>
      </trkpt>
      <trkpt lat="45.84108" lon="3.24028">
        <ele>321</ele>
        <time>2019-04-17T22:27:41Z</time>
      </trkpt>
      <trkpt lat="45.8411" lon="3.24194">
        <ele>321</ele>
        <time>2019-04-17T22:28:41Z</time>
      </trkpt>
      <trkpt lat="45.84115" lon="3.24257">
        <ele>320</ele>
        <time>2019-04-17T22:29:41Z</time>
      </trkpt>
      <trkpt lat="45.8416" lon="3.24466">
        <ele>322</ele>
        <time>2019-04-17T22:30:41Z</time>
      </trkpt>
      <trkpt lat="45.84178" lon="3.24556">
        <ele>324</ele>
        <time>2019-04-17T22:31:41Z</time>
      </trkpt>
      <trkpt lat="45.84184" lon="3.2457">
        <ele>324</ele>
        <time>2019-04-17T22:32:41Z</time>
      </trkpt>
      <trkpt lat="45.84189" lon="3.24607">
        <ele>324</ele>
        <time>2019-04-17T22:33:41Z</time>
      </trkpt>
      <trkpt lat="45.84189" lon="3.24639">
        <ele>324</ele>
        <time>2019-04-17T22:34:41Z</time>
      </trkpt>
      <trkpt lat="45.84181" lon="3.24673">
        <ele>323</ele>
        <time>2019-04-17T22:35:41Z</time>
      </trkpt>
      <trkpt lat="45.84097" lon="3.24844">
        <ele>321</ele>
        <time>2019-04-17T22:36:41Z</time>
      </trkpt>
      <trkpt lat="45.84055" lon="3.24906">
        <ele>319</ele>
        <time>2019-04-17T22:37:41Z</time>
      </trkpt>
      <trkpt lat="45.84028" lon="3.24955">
        <ele>319</ele>
        <time>2019-04-17T22:38:41Z</time>
      </trkpt>
      <trkpt lat="45.83932" lon="3.25182">
        <ele>318</ele>
        <time>2019-04-17T22:39:41Z</time>
      </trkpt>
      <trkpt lat="45.8374" lon="3.25525">
        <ele>323</ele>
        <time>2019-04-17T22:40:41Z</time>
      </trkpt>
      <trkpt lat="45.83718" lon="3.2557">
        <ele>324</ele>
        <time>2019-04-17T22:41:41Z</time>
      </trkpt>
      <trkpt lat="45.83706" lon="3.25603">
        <ele>324</ele>
        <time>2019-04-17T22:42:41Z</time>
      </trkpt>
      <trkpt lat="45.83696" lon="3.25642">
        <ele>323</ele>
        <time>2019-04-17T22:43:41Z</time>
      </trkpt>
      <trkpt lat="45.83685" lon="3.2571">
        <ele>323</ele>
        <time>2019-04-17T22:44:41Z</time>
      </trkpt>
      <trkpt lat="45.83683" lon="3.25746">
        <ele>323</ele>
        <time>2019-04-17T22:45:41Z</time>
      </trkpt>
      <trkpt lat="45.83683" lon="3.25783">
        <ele>323</ele>
        <time>2019-04-17T22:46:41Z</time>
      </trkpt>
      <trkpt lat="45.83685" lon="3.25826">
        <ele>324</ele>
        <time>2019-04-17T22:47:41Z</time>
      </trkpt>
      <trkpt lat="45.83822" lon="3.26553">
        <ele>312</ele>
        <time>2019-04-17T22:48:41Z</time>
      </trkpt>
      <trkpt lat="45.83834" lon="3.2663">
        <ele>312</ele>
        <time>2019-04-17T22:49:41Z</time>
      </trkpt>
      <trkpt lat="45.83847" lon="3.26755">
        <ele>311</ele>
        <time>2019-04-17T22:50:41Z</time>
      </trkpt>
      <trkpt lat="45.83854" lon="3.26789">
        <ele>312</ele>
        <time>2019-04-17T22:51:41Z</time>
      </trkpt>
      <trkpt lat="45.83862" lon="3.26824">
        <ele>312</ele>
        <time>2019-04-17T22:52:41Z</time>
      </trkpt>
      <trkpt lat="45.83891" lon="3.26931">
        <ele>313</ele>
        <time>2019-04-17T22:53:41Z</time>
      </trkpt>
      <trkpt lat="45.839" lon="3.26987">
        <ele>313</ele>
        <time>2019-04-17T22:54:41Z</time>
      </trkpt>
      <trkpt lat="45.83899" lon="3.27003">
        <ele>312</ele>
        <time>2019-04-17T22:55:41Z</time>
      </trkpt>
      <trkpt lat="45.83893" lon="3.27018">
        <ele>311</ele>
        <time>2019-04-17T22:56:41Z</time>
      </trkpt>
      <trkpt lat="45.83946" lon="3.27077">
        <ele>310</ele>
        <time>2019-04-17T22:57:41Z</time>
      </trkpt>
      <trkpt lat="45.8399" lon="3.27135">
        <ele>311</ele>
        <time>2019-04-17T22:58:41Z</time>
      </trkpt>
      <trkpt lat="45.84021" lon="3.27166">
        <ele>312</ele>
        <time>2019-04-17T22:59:41Z</time>
      </trkpt>
      <trkpt lat="45.8427" lon="3.2738">
        <ele>313</ele>
        <time>2019-04-17T23:00:41Z</time>
      </trkpt>
      <trkpt lat="45.84375" lon="3.27491">
        <ele>317</ele>
        <time>2019-04-17T23:01:41Z</time>
      </trkpt>
      <trkpt lat="45.84429" lon="3.27559">
        <ele>317</ele>
        <time>2019-04-17T23:02:41Z</time>
      </trkpt>
      <trkpt lat="45.84459" lon="3.27637">
        <ele>319</ele>
        <time>2019-04-17T23:03:41Z</time>
      </trkpt>
      <trkpt lat="45.84563" lon="3.27991">
        <ele>316</ele>
        <time>2019-04-17T23:04:41Z</time>
      </trkpt>
      <trkpt lat="45.84588" lon="3.28038">
        <ele>315</ele>
        <time>2019-04-17T23:05:41Z</time>
      </trkpt>
      <trkpt lat="45.84701" lon="3.28158">
        <ele>313</ele>
        <time>2019-04-17T23:06:41Z</time>
      </trkpt>
      <trkpt lat="45.84846" lon="3.28306">
        <ele>309</ele>
        <time>2019-04-17T23:07:41Z</time>
      </trkpt>
      <trkpt lat="45.84879" lon="3.28325">
        <ele>310</ele>
        <time>2019-04-17T23:08:41Z</time>
      </trkpt>
      <trkpt lat="45.84914" lon="3.28334">
        <ele>311</ele>
        <time>2019-04-17T23:09:41Z</time>
      </trkpt>
      <trkpt lat="45.84985" lon="3.28346">
        <ele>311</ele>
        <time>2019-04-17T23:10:41Z</time>
      </trkpt>
      <trkpt lat="45.85025" lon="3.28355">
        <ele>311</ele>
        <time>2019-04-17T23:11:41Z</time>
      </trkpt>
      <trkpt lat="45.85068" lon="3.28375">
        <ele>311</ele>
        <time>2019-04-17T23:12:41Z</time>
      </trkpt>
      <trkpt lat="45.85109" lon="3.28405">
        <ele>309</ele>
        <time>2019-04-17T23:13:41Z</time>
      </trkpt>
      <trkpt lat="45.85151" lon="3.28448">
        <ele>307</ele>
        <time>2019-04-17T23:14:41Z</time>
      </trkpt>
      <trkpt lat="45.85184" lon="3.28494">
        <ele>307</ele>
        <time>2019-04-17T23:15:41Z</time>
      </trkpt>
      <trkpt lat="45.85362" lon="3.28786">
        <ele>308</ele>
        <time>2019-04-17T23:16:41Z</time>
      </trkpt>
      <trkpt lat="45.85467" lon="3.28953">
        <ele>309</ele>
        <time>2019-04-17T23:17:41Z</time>
      </trkpt>
      <trkpt lat="45.8549" lon="3.28998">
        <ele>309</ele>
        <time>2019-04-17T23:18:41Z</time>
      </trkpt>
      <trkpt lat="45.8559" lon="3.29274">
        <ele>305</ele>
        <time>2019-04-17T23:19:41Z</time>
      </trkpt>
      <trkpt lat="45.85639" lon="3.29391">
        <ele>304</ele>
        <time>2019-04-17T23:20:41Z</time>
      </trkpt>
      <trkpt lat="45.85729" lon="3.2968">
        <ele>304</ele>
        <time>2019-04-17T23:21:41Z</time>
      </trkpt>
      <trkpt lat="45.85776" lon="3.29774">
        <ele>305</ele>
        <time>2019-04-17T23:22:41Z</time>
      </trkpt>
      <trkpt lat="45.8582" lon="3.29912">
        <ele>305</ele>
        <time>2019-04-17T23:23:41Z</time>
      </trkpt>
      <trkpt lat="45.85838" lon="3.29949">
        <ele>306</ele>
        <time>2019-04-17T23:24:41Z</time>
      </trkpt>
      <trkpt lat="45.85855" lon="3.29968">
        <ele>306</ele>
        <time>2019-04-17T23:25:41Z</time>
      </trkpt>
      <trkpt lat="45.8588" lon="3.29991">
        <ele>306</ele>
        <time>2019-04-17T23:26:41Z</time>
      </trkpt>
      <trkpt lat="45.85948" lon="3.30043">
        <ele>307</ele>
        <time>2019-04-17T23:27:41Z</time>
      </trkpt>
      <trkpt lat="45.85978" lon="3.30073">
        <ele>307</ele>
        <time>2019-04-17T23:28:41Z</time>
      </trkpt>
      <trkpt lat="45.85989" lon="3.3008">
        <ele>307</ele>
        <time>2019-04-17T23:29:41Z</time>
      </trkpt>
      <trkpt lat="45.85992" lon="3.3009">
        <ele>307</ele>
        <time>2019-04-17T23:30:41Z</time>
      </trkpt>
      <trkpt lat="45.8599" lon="3.30113">
        <ele>308</ele>
        <time>2019-04-17T23:31:41Z</time>
      </trkpt>
      <trkpt lat="45.86017" lon="3.30163">
        <ele>309</ele>
        <time>2019-04-17T23:32:41Z</time>
      </trkpt>
      <trkpt lat="45.86057" lon="3.30203">
        <ele>309</ele>
        <time>2019-04-17T23:33:41Z</time>
      </trkpt>
      <trkpt lat="45.86169" lon="3.30339">
        <ele>306</ele>
        <time>2019-04-17T23:34:41Z</time>
      </trkpt>
      <trkpt lat="45.86182" lon="3.3035">
        <ele>305</ele>
        <time>2019-04-17T23:35:41Z</time>
      </trkpt>
      <trkpt lat="45.8619" lon="3.30355">
        <ele>304</ele>
        <time>2019-04-17T23:36:41Z</time>
      </trkpt>
      <trkpt lat="45.86205" lon="3.30357">
        <ele>304</ele>
        <time>2019-04-17T23:37:41Z</time>
      </trkpt>
      <trkpt lat="45.86213" lon="3.30363">
        <ele>303</ele>
        <time>2019-04-17T23:38:41Z</time>
      </trkpt>
      <trkpt lat="45.86217" lon="3.30374">
        <ele>302</ele>
        <time>2019-04-17T23:39:41Z</time>
      </trkpt>
      <trkpt lat="45.8622" lon="3.30385">
        <ele>300</ele>
        <time>2019-04-17T23:40:41Z</time>
      </trkpt>
      <trkpt lat="45.8622" lon="3.30398">
        <ele>299</ele>
        <time>2019-04-17T23:41:41Z</time>
      </trkpt>
      <trkpt lat="45.86212" lon="3.30494">
        <ele>295</ele>
        <time>2019-04-17T23:42:41Z</time>
      </trkpt>
      <trkpt lat="45.86205" lon="3.3054">
        <ele>294</ele>
        <time>2019-04-17T23:43:41Z</time>
      </trkpt>
      <trkpt lat="45.86161" lon="3.30762">
        <ele>294</ele>
        <time>2019-04-17T23:44:41Z</time>
      </trkpt>
      <trkpt lat="45.86071" lon="3.31202">
        <ele>294</ele>
        <time>2019-04-17T23:45:41Z</time>
      </trkpt>
      <trkpt lat="45.86046" lon="3.3133">
        <ele>292</ele>
        <time>2019-04-17T23:46:41Z</time>
      </trkpt>
      <trkpt lat="45.86042" lon="3.31368">
        <ele>292</ele>
        <time>2019-04-17T23:47:41Z</time>
      </trkpt>
      <trkpt lat="45.86041" lon="3.31409">
        <ele>292</ele>
        <time>2019-04-17T23:48:41Z</time>
      </trkpt>
      <trkpt lat="45.86039" lon="3.31595">
        <ele>293</ele>
        <time>2019-04-17T23:49:41Z</time>
      </trkpt>
      <trkpt lat="45.8604" lon="3.31846">
        <ele>293</ele>
        <time>2019-04-17T23:50:41Z</time>
      </trkpt>
      <trkpt lat="45.86039" lon="3.32043">
        <ele>293</ele>
        <time>2019-04-17T23:51:41Z</time>
      </trkpt>
      <trkpt lat="45.86045" lon="3.32211">
        <ele>295</ele>
        <time>2019-04-17T23:52:41Z</time>
      </trkpt>
      <trkpt lat="45.86052" lon="3.32269">
        <ele>296</ele>
        <time>2019-04-17T23:53:41Z</time>
      </trkpt>
      <trkpt lat="45.86113" lon="3.32465">
        <ele>301</ele>
        <time>2019-04-17T23:54:41Z</time>
      </trkpt>
      <trkpt lat="45.86117" lon="3.32549">
        <ele>302</ele>
        <time>2019-04-17T23:55:41Z</time>
      </trkpt>
      <trkpt lat="45.86097" lon="3.32678">
        <ele>301</ele>
        <time>2019-04-17T23:56:41Z</time>
      </trkpt>
      <trkpt lat="45.86089" lon="3.32905">
        <ele>303</ele>
        <time>2019-04-17T23:57:41Z</time>
      </trkpt>
      <trkpt lat="45.86116" lon="3.33215">
        <ele>301</ele>
        <time>2019-04-17T23:58:41Z</time>
      </trkpt>
      <trkpt lat="45.86122" lon="3.33248">
        <ele>301</ele>
        <time>2019-04-17T23:59:41Z</time>
      </trkpt>
      <trkpt lat="45.8617" lon="3.33415">
        <ele>298</ele>
        <time>2019-04-18T00:00:41Z</time>
      </trkpt>
      <trkpt lat="45.86196" lon="3.33484">
        <ele>297</ele>
        <time>2019-04-18T00:01:41Z</time>
      </trkpt>
      <trkpt lat="45.8621" lon="3.33501">
        <ele>298</ele>
        <time>2019-04-18T00:02:41Z</time>
      </trkpt>
      <trkpt lat="45.86271" lon="3.33533">
        <ele>299</ele>
        <time>2019-04-18T00:03:41Z</time>
      </trkpt>
      <trkpt lat="45.86298" lon="3.33549">
        <ele>300</ele>
        <time>2019-04-18T00:04:41Z</time>
      </trkpt>
      <trkpt lat="45.86345" lon="3.3355">
        <ele>301</ele>
        <time>2019-04-18T00:05:41Z</time>
      </trkpt>
      <trkpt lat="45.86364" lon="3.33544">
        <ele>301</ele>
        <time>2019-04-18T00:06:41Z</time>
      </trkpt>
      <trkpt lat="45.86388" lon="3.33528">
        <ele>301</ele>
        <time>2019-04-18T00:07:41Z</time>
      </trkpt>
      <trkpt lat="45.86411" lon="3.33521">
        <ele>300</ele>
        <time>2019-04-18T00:08:41Z</time>
      </trkpt>
      <trkpt lat="45.86616" lon="3.33495">
        <ele>298</ele>
        <time>2019-04-18T00:09:41Z</time>
      </trkpt>
      <trkpt lat="45.86633" lon="3.33494">
        <ele>298</ele>
        <time>2019-04-18T00:10:41Z</time>
      </trkpt>
      <trkpt lat="45.86649" lon="3.33497">
        <ele>298</ele>
        <time>2019-04-18T00:11:41Z</time>
      </trkpt>
      <trkpt lat="45.8667" lon="3.33508">
        <ele>299</ele>
        <time>2019-04-18T00:12:41Z</time>
      </trkpt>
      <trkpt lat="45.86709" lon="3.33539">
        <ele>301</ele>
        <time>2019-04-18T00:13:41Z</time>
      </trkpt>
      <trkpt lat="45.86752" lon="3.33578">
        <ele>302</ele>
        <time>2019-04-18T00:14:41Z</time>
      </trkpt>
      <trkpt lat="45.86801" lon="3.33604">
        <ele>302</ele>
        <time>2019-04-18T00:15:41Z</time>
      </trkpt>
      <trkpt lat="45.86859" lon="3.33619">
        <ele>301</ele>
        <time>2019-04-18T00:16:41Z</time>
      </trkpt>
      <trkpt lat="45.86963" lon="3.3363">
        <ele>301</ele>
        <time>2019-04-18T00:17:41Z</time>
      </trkpt>
      <trkpt lat="45.86992" lon="3.33635">
        <ele>301</ele>
        <time>2019-04-18T00:18:41Z</time>
      </trkpt>
      <trkpt lat="45.87023" lon="3.33643">
        <ele>301</ele>
        <time>2019-04-18T00:19:41Z</time>
      </trkpt>
      <trkpt lat="45.8705" lon="3.33654">
        <ele>301</ele>
        <time>2019-04-18T00:20:41Z</time>
      </trkpt>
      <trkpt lat="45.87074" lon="3.33667">
        <ele>301</ele>
        <time>2019-04-18T00:21:41Z</time>
      </trkpt>
      <trkpt lat="45.87122" lon="3.33698">
        <ele>300</ele>
        <time>2019-04-18T00:22:41Z</time>
      </trkpt>
      <trkpt lat="45.87158" lon="3.33727">
        <ele>299</ele>
        <time>2019-04-18T00:23:41Z</time>
      </trkpt>
      <trkpt lat="45.87187" lon="3.33755">
        <ele>297</ele>
        <time>2019-04-18T00:24:41Z</time>
      </trkpt>
      <trkpt lat="45.87216" lon="3.33786">
        <ele>297</ele>
        <time>2019-04-18T00:25:41Z</time>
      </trkpt>
      <trkpt lat="45.87239" lon="3.33813">
        <ele>297</ele>
        <time>2019-04-18T00:26:41Z</time>
      </trkpt>
      <trkpt lat="45.87265" lon="3.33866">
        <ele>296</ele>
        <time>2019-04-18T00:27:41Z</time>
      </trkpt>
      <trkpt lat="45.87291" lon="3.33929">
        <ele>295</ele>
        <time>2019-04-18T00:28:41Z</time>
      </trkpt>
      <trkpt lat="45.87303" lon="3.33962">
        <ele>296</ele>
        <time>2019-04-18T00:29:41Z</time>
      </trkpt>
      <trkpt lat="45.87343" lon="3.34102">
        <ele>299</ele>
        <time>2019-04-18T00:30:41Z</time>
      </trkpt>
      <trkpt lat="45.87355" lon="3.34134">
        <ele>299</ele>
        <time>2019-04-18T00:31:41Z</time>
      </trkpt>
      <trkpt lat="45.87367" lon="3.34158">
        <ele>299</ele>
        <time>2019-04-18T00:32:41Z</time>
      </trkpt>
      <trkpt lat="45.87381" lon="3.34181">
        <ele>299</ele>
        <time>2019-04-18T00:33:41Z</time>
      </trkpt>
      <trkpt lat="45.87411" lon="3.34216">
        <ele>299</ele>
        <time>2019-04-18T00:34:41Z</time>
      </trkpt>
      <trkpt lat="45.87428" lon="3.3423">
        <ele>299</ele>
        <time>2019-04-18T00:35:41Z</time>
      </trkpt>
      <trkpt lat="45.8745" lon="3.34243">
        <ele>298</ele>
        <time>2019-04-18T00:36:41Z</time>
      </trkpt>
      <trkpt lat="45.87519" lon="3.34275">
        <ele>298</ele>
        <time>2019-04-18T00:37:41Z</time>
      </trkpt>
      <trkpt lat="45.87549" lon="3.34299">
        <ele>299</ele>
        <time>2019-04-18T00:38:41Z</time>
      </trkpt>
      <trkpt lat="45.87681" lon="3.34444">
        <ele>298</ele>
        <time>2019-04-18T00:39:41Z</time>
      </trkpt>
      <trkpt lat="45.8771" lon="3.34463">
        <ele>297</ele>
        <time>2019-04-18T00:40:41Z</time>
      </trkpt>
      <trkpt lat="45.87722" lon="3.34475">
        <ele>297</ele>
        <time>2019-04-18T00:41:41Z</time>
      </trkpt>
      <trkpt lat="45.87741" lon="3.34498">
        <ele>297</ele>
        <time>2019-04-18T00:42:41Z</time>
      </trkpt>
      <trkpt lat="45.87774" lon="3.34551">
        <ele>298</ele>
        <time>2019-04-18T00:43:41Z</time>
      </trkpt>
      <trkpt lat="45.87788" lon="3.34576">
        <ele>299</ele>
        <time>2019-04-18T00:44:41Z</time>
      </trkpt>
      <trkpt lat="45.87805" lon="3.34611">
        <ele>299</ele>
        <time>2019-04-18T00:45:41Z</time>
      </trkpt>
      <trkpt lat="45.87818" lon="3.34632">
        <ele>300</ele>
        <time>2019-04-18T00:46:41Z</time>
      </trkpt>
      <trkpt lat="45.87866" lon="3.347">
        <ele>300</ele>
        <time>2019-04-18T00:47:41Z</time>
      </trkpt>
      <trkpt lat="45.87925" lon="3.34768">
        <ele>300</ele>
        <time>2019-04-18T00:48:41Z</time>
      </trkpt>
      <trkpt lat="45.8795" lon="3.34792">
        <ele>300</ele>
        <time>2019-04-18T00:49:41Z</time>
      </trkpt>
      <trkpt lat="45.88001" lon="3.34819">
        <ele>300</ele>
        <time>2019-04-18T00:50:41Z</time>
      </trkpt>
      <trkpt lat="45.88026" lon="3.34829">
        <ele>300</ele>
        <time>2019-04-18T00:51:41Z</time>
      </trkpt>
      <trkpt lat="45.88053" lon="3.34836">
        <ele>299</ele>
        <time>2019-04-18T00:52:41Z</time>
      </trkpt>
      <trkpt lat="45.88131" lon="3.34847">
        <ele>297</ele>
        <time>2019-04-18T00:53:41Z</time>
      </trkpt>
      <trkpt lat="45.88145" lon="3.34852">
        <ele>297</ele>
        <time>2019-04-18T00:54:41Z</time>
      </trkpt>
      <trkpt lat="45.8816" lon="3.34862">
        <ele>297</ele>
        <time>2019-04-18T00:55:41Z</time>
      </trkpt>
      <trkpt lat="45.88231" lon="3.34935">
        <ele>297</ele>
        <time>2019-04-18T00:56:41Z</time>
      </trkpt>
      <trkpt lat="45.88262" lon="3.34962">
        <ele>297</ele>
        <time>2019-04-18T00:57:41Z</time>
      </trkpt>
      <trkpt lat="45.8828" lon="3.34973">
        <ele>298</ele>
        <time>2019-04-18T00:58:41Z</time>
      </trkpt>
      <trkpt lat="45.88373" lon="3.35013">
        <ele>298</ele>
        <time>2019-04-18T00:59:41Z</time>
      </trkpt>
      <trkpt lat="45.88483" lon="3.35032">
        <ele>299</ele>
        <time>2019-04-18T01:00:41Z</time>
      </trkpt>
      <trkpt lat="45.88513" lon="3.35032">
        <ele>298</ele>
        <time>2019-04-18T01:01:41Z</time>
      </trkpt>
      <trkpt lat="45.88661" lon="3.35">
        <ele>294</ele>
        <time>2019-04-18T01:02:41Z</time>
      </trkpt>
      <trkpt lat="45.88709" lon="3.3498">
        <ele>295</ele>
        <time>2019-04-18T01:03:41Z</time>
      </trkpt>
      <trkpt lat="45.88793" lon="3.34941">
        <ele>295</ele>
        <time>2019-04-18T01:04:41Z</time>
      </trkpt>
      <trkpt lat="45.88856" lon="3.34902">
        <ele>294</ele>
        <time>2019-04-18T01:05:41Z</time>
      </trkpt>
      <trkpt lat="45.88875" lon="3.34894">
        <ele>294</ele>
        <time>2019-04-18T01:06:41Z</time>
      </trkpt>
      <trkpt lat="45.88923" lon="3.34883">
        <ele>294</ele>
        <time>2019-04-18T01:07:41Z</time>
      </trkpt>
      <trkpt lat="45.88953" lon="3.34885">
        <ele>296</ele>
        <time>2019-04-18T01:08:41Z</time>
      </trkpt>
      <trkpt lat="45.88968" lon="3.34892">
        <ele>297</ele>
        <time>2019-04-18T01:09:41Z</time>
      </trkpt>
      <trkpt lat="45.89023" lon="3.34926">
        <ele>300</ele>
        <time>2019-04-18T01:10:41Z</time>
      </trkpt>
      <trkpt lat="45.89044" lon="3.34934">
        <ele>300</ele>
        <time>2019-04-18T01:11:41Z</time>
      </trkpt>
      <trkpt lat="45.89033" lon="3.34983">
        <ele>304</ele>
        <time>2019-04-18T01:12:41Z</time>
      </trkpt>
      <trkpt lat="45.89021" lon="3.35018">
        <ele>308</ele>
        <time>2019-04-18T01:13:41Z</time>
      </trkpt>
      <trkpt lat="45.89002" lon="3.35039">
        <ele>313</ele>
        <time>2019-04-18T01:14:41Z</time>
      </trkpt>
      <trkpt lat="45.8898" lon="3.35046">
        <ele>314</ele>
        <time>2019-04-18T01:15:41Z</time>
      </trkpt>
      <trkpt lat="45.8897" lon="3.35051">
        <ele>315</ele>
        <time>2019-04-18T01:16:41Z</time>
      </trkpt>
      <trkpt lat="45.88951" lon="3.35078">
        <ele>320</ele>
        <time>2019-04-18T01:17:41Z</time>
      </trkpt>
      <trkpt lat="45.88943" lon="3.35096">
        <ele>322</ele>
        <time>2019-04-18T01:18:41Z</time>
      </trkpt>
      <trkpt lat="45.88942" lon="3.35117">
        <ele>324</ele>
        <time>2019-04-18T01:19:41Z</time>
      </trkpt>
      <trkpt lat="45.88943" lon="3.35139">
        <ele>325</ele>
        <time>2019-04-18T01:20:41Z</time>
      </trkpt>
      <trkpt lat="45.88956" lon="3.35139">
        <ele>325</ele>
        <time>2019-04-18T01:21:41Z</time>
      </trkpt>
      <trkpt lat="45.88965" lon="3.35148">
        <ele>326</ele>
        <time>2019-04-18T01:22:41Z</time>
      </trkpt>
      <trkpt lat="45.88971" lon="3.35165">
        <ele>328</ele>
        <time>2019-04-18T01:23:41Z</time>
      </trkpt>
      <trkpt lat="45.88975" lon="3.35193">
        <ele>328</ele>
        <time>2019-04-18T01:24:41Z</time>
      </trkpt>
      <trkpt lat="45.88978" lon="3.3524">
        <ele>328</ele>
        <time>2019-04-18T01:25:41Z</time>
      </trkpt>
      <trkpt lat="45.88974" lon="3.35292">
        <ele>328</ele>
        <time>2019-04-18T01:26:41Z</time>
      </trkpt>
      <trkpt lat="45.88976" lon="3.35312">
        <ele>328</ele>
        <time>2019-04-18T01:27:41Z</time>
      </trkpt>
      <trkpt lat="45.88989" lon="3.35335">
        <ele>328</ele>
        <time>2019-04-18T01:28:41Z</time>
      </trkpt>
      <trkpt lat="45.89043" lon="3.35409">
        <ele>328</ele>
        <time>2019-04-18T01:29:41Z</time>
      </trkpt>
      <trkpt lat="45.89055" lon="3.35434">
        <ele>327</ele>
        <time>2019-04-18T01:30:41Z</time>
      </trkpt>
      <trkpt lat="45.89062" lon="3.35463">
        <ele>327</ele>
        <time>2019-04-18T01:31:41Z</time>
      </trkpt>
      <trkpt lat="45.89066" lon="3.35502">
        <ele>327</ele>
        <time>2019-04-18T01:32:41Z</time>
      </trkpt>
      <trkpt lat="45.89075" lon="3.35528">
        <ele>327</ele>
        <time>2019-04-18T01:33:41Z</time>
      </trkpt>
      <trkpt lat="45.89101" lon="3.3557">
        <ele>328</ele>
        <time>2019-04-18T01:34:41Z</time>
      </trkpt>
      <trkpt lat="45.89169" lon="3.35659">
        <ele>327</ele>
        <time>2019-04-18T01:35:41Z</time>
      </trkpt>
      <trkpt lat="45.89157" lon="3.35682">
        <ele>327</ele>
        <time>2019-04-18T01:36:41Z</time>
      </trkpt>
      <trkpt lat="45.8914" lon="3.35733">
        <ele>326</ele>
        <time>2019-04-18T01:37:41Z</time>
      </trkpt>
      <trkpt lat="45.89136" lon="3.35761">
        <ele>326</ele>
        <time>2019-04-18T01:38:41Z</time>
      </trkpt>
      <trkpt lat="45.89136" lon="3.35812">
        <ele>326</ele>
        <time>2019-04-18T01:39:41Z</time>
      </trkpt>
      <trkpt lat="45.89132" lon="3.35862">
        <ele>326</ele>
        <time>2019-04-18T01:40:41Z</time>
      </trkpt>
      <trkpt lat="45.89136" lon="3.35905">
        <ele>325</ele>
        <time>2019-04-18T01:41:41Z</time>
      </trkpt>
      <trkpt lat="45.89145" lon="3.35941">
        <ele>326</ele>
        <time>2019-04-18T01:42:41Z</time>
      </trkpt>
      <trkpt lat="45.89175" lon="3.35964">
        <ele>326</ele>
        <time>2019-04-18T01:43:41Z</time>
      </trkpt>
      <trkpt lat="45.89221" lon="3.35987">
        <ele>326</ele>
        <time>2019-04-18T01:44:41Z</time>
      </trkpt>
      <trkpt lat="45.89243" lon="3.36012">
        <ele>326</ele>
        <time>2019-04-18T01:45:41Z</time>
      </trkpt>
      <trkpt lat="45.8926" lon="3.36077">
        <ele>326</ele>
        <time>2019-04-18T01:46:41Z</time>
      </trkpt>
      <trkpt lat="45.89281" lon="3.36177">
        <ele>328</ele>
        <time>2019-04-18T01:47:41Z</time>
      </trkpt>
      <trkpt lat="45.8933" lon="3.36304">
        <ele>327</ele>
        <time>2019-04-18T01:48:41Z</time>
      </trkpt>
      <trkpt lat="45.8934" lon="3.36347">
        <ele>327</ele>
        <time>2019-04-18T01:49:41Z</time>
      </trkpt>
      <trkpt lat="45.89344" lon="3.36445">
        <ele>327</ele>
        <time>2019-04-18T01:50:41Z</time>
      </trkpt>
      <trkpt lat="45.89351" lon="3.36551">
        <ele>327</ele>
        <time>2019-04-18T01:51:41Z</time>
      </trkpt>
      <trkpt lat="45.89363" lon="3.3668">
        <ele>328</ele>
        <time>2019-04-18T01:52:41Z</time>
      </trkpt>
      <trkpt lat="45.89387" lon="3.37001">
        <ele>324</ele>
        <time>2019-04-18T01:53:41Z</time>
      </trkpt>
      <trkpt lat="45.89393" lon="3.37051">
        <ele>324</ele>
        <time>2019-04-18T01:54:41Z</time>
      </trkpt>
      <trkpt lat="45.89403" lon="3.37106">
        <ele>323</ele>
        <time>2019-04-18T01:55:41Z</time>
      </trkpt>
      <trkpt lat="45.89412" lon="3.37173">
        <ele>324</ele>
        <time>2019-04-18T01:56:41Z</time>
      </trkpt>
      <trkpt lat="45.89413" lon="3.37244">
        <ele>324</ele>
        <time>2019-04-18T01:57:41Z</time>
      </trkpt>
      <trkpt lat="45.89407" lon="3.3739">
        <ele>322</ele>
        <time>2019-04-18T01:58:41Z</time>
      </trkpt>
      <trkpt lat="45.89382" lon="3.37504">
        <ele>319</ele>
        <time>2019-04-18T01:59:41Z</time>
      </trkpt>
      <trkpt lat="45.89375" lon="3.37554">
        <ele>319</ele>
        <time>2019-04-18T02:00:41Z</time>
      </trkpt>
      <trkpt lat="45.89382" lon="3.37599">
        <ele>318</ele>
        <time>2019-04-18T02:01:41Z</time>
      </trkpt>
      <trkpt lat="45.894" lon="3.37617">
        <ele>318</ele>
        <time>2019-04-18T02:02:41Z</time>
      </trkpt>
      <trkpt lat="45.89455" lon="3.3762">
        <ele>319</ele>
        <time>2019-04-18T02:03:41Z</time>
      </trkpt>
      <trkpt lat="45.89472" lon="3.3763">
        <ele>319</ele>
        <time>2019-04-18T02:04:41Z</time>
      </trkpt>
      <trkpt lat="45.89495" lon="3.3768">
        <ele>322</ele>
        <time>2019-04-18T02:05:41Z</time>
      </trkpt>
      <trkpt lat="45.89575" lon="3.37888">
        <ele>331</ele>
        <time>2019-04-18T02:06:41Z</time>
      </trkpt>
      <trkpt lat="45.89586" lon="3.37931">
        <ele>332</ele>
        <time>2019-04-18T02:07:41Z</time>
      </trkpt>
      <trkpt lat="45.89593" lon="3.37968">
        <ele>334</ele>
        <time>2019-04-18T02:08:41Z</time>
      </trkpt>
      <trkpt lat="45.89593" lon="3.37996">
        <ele>335</ele>
        <time>2019-04-18T02:09:41Z</time>
      </trkpt>
      <trkpt lat="45.89574" lon="3.38067">
        <ele>339</ele>
        <time>2019-04-18T02:10:41Z</time>
      </trkpt>
      <trkpt lat="45.89574" lon="3.38114">
        <ele>340</ele>
        <time>2019-04-18T02:11:41Z</time>
      </trkpt>
      <trkpt lat="45.89583" lon="3.38171">
        <ele>339</ele>
        <time>2019-04-18T02:12:41Z</time>
      </trkpt>
      <trkpt lat="45.89581" lon="3.38205">
        <ele>341</ele>
        <time>2019-04-18T02:13:41Z</time>
      </trkpt>
      <trkpt lat="45.89565" lon="3.3826">
        <ele>343</ele>
        <time>2019-04-18T02:14:41Z</time>
      </trkpt>
      <trkpt lat="45.89554" lon="3.38335">
        <ele>345</ele>
        <time>2019-04-18T02:15:41Z</time>
      </trkpt>
      <trkpt lat="45.89548" lon="3.38348">
        <ele>345</ele>
        <time>2019-04-18T02:16:41Z</time>
      </trkpt>
      <trkpt lat="45.89516" lon="3.38352">
        <ele>347</ele>
        <time>2019-04-18T02:17:41Z</time>
      </trkpt>
      <trkpt lat="45.89505" lon="3.38359">
        <ele>347</ele>
        <time>2019-04-18T02:18:41Z</time>
      </trkpt>
      <trkpt lat="45.89498" lon="3.38371">
        <ele>347</ele>
        <time>2019-04-18T02:19:41Z</time>
      </trkpt>
      <trkpt lat="45.89486" lon="3.38425">
        <ele>348</ele>
        <time>2019-04-18T02:20:41Z</time>
      </trkpt>
      <trkpt lat="45.89481" lon="3.38435">
        <ele>348</ele>
        <time>2019-04-18T02:21:41Z</time>
      </trkpt>
      <trkpt lat="45.89444" lon="3.38446">
        <ele>348</ele>
        <time>2019-04-18T02:22:41Z</time>
      </trkpt>
      <trkpt lat="45.89433" lon="3.38465">
        <ele>348</ele>
        <time>2019-04-18T02:23:41Z</time>
      </trkpt>
      <trkpt lat="45.89421" lon="3.38545">
        <ele>348</ele>
        <time>2019-04-18T02:24:41Z</time>
      </trkpt>
      <trkpt lat="45.89422" lon="3.38571">
        <ele>348</ele>
        <time>2019-04-18T02:25:41Z</time>
      </trkpt>
      <trkpt lat="45.89424" lon="3.38576">
        <ele>348</ele>
        <time>2019-04-18T02:26:41Z</time>
      </trkpt>
      <trkpt lat="45.89415" lon="3.38589">
        <ele>348</ele>
        <time>2019-04-18T02:27:41Z</time>
      </trkpt>
      <trkpt lat="45.89417" lon="3.38593">
        <ele>348</ele>
        <time>2019-04-18T02:28:41Z</time>
      </trkpt>
      <trkpt lat="45.89415" lon="3.38648">
        <ele>347</ele>
        <time>2019-04-18T02:29:41Z</time>
      </trkpt>
      <trkpt lat="45.89419" lon="3.38696">
        <ele>347</ele>
        <time>2019-04-18T02:30:41Z</time>
      </trkpt>
      <trkpt lat="45.89419" lon="3.38716">
        <ele>347</ele>
        <time>2019-04-18T02:31:41Z</time>
      </trkpt>
      <trkpt lat="45.89415" lon="3.38761">
        <ele>347</ele>
        <time>2019-04-18T02:32:41Z</time>
      </trkpt>
      <trkpt lat="45.89414" lon="3.38789">
        <ele>346</ele>
        <time>2019-04-18T02:33:41Z</time>
      </trkpt>
      <trkpt lat="45.89415" lon="3.38819">
        <ele>345</ele>
        <time>2019-04-18T02:34:41Z</time>
      </trkpt>
      <trkpt lat="45.89428" lon="3.38964">
        <ele>348</ele>
        <time>2019-04-18T02:35:41Z</time>
      </trkpt>
      <trkpt lat="45.89432" lon="3.38988">
        <ele>349</ele>
        <time>2019-04-18T02:36:41Z</time>
      </trkpt>
      <trkpt lat="45.89462" lon="3.39163">
        <ele>351</ele>
        <time>2019-04-18T02:37:41Z</time>
      </trkpt>
      <trkpt lat="45.89477" lon="3.39228">
        <ele>352</ele>
        <time>2019-04-18T02:38:41Z</time>
      </trkpt>
      <trkpt lat="45.8948" lon="3.39246">
        <ele>352</ele>
        <time>2019-04-18T02:39:41Z</time>
      </trkpt>
      <trkpt lat="45.89482" lon="3.39318">
        <ele>353</ele>
        <time>2019-04-18T02:40:41Z</time>
      </trkpt>
      <trkpt lat="45.89489" lon="3.39466">
        <ele>353</ele>
        <time>2019-04-18T02:41:41Z</time>
      </trkpt>
      <trkpt lat="45.89485" lon="3.39654">
        <ele>354</ele>
        <time>2019-04-18T02:42:41Z</time>
      </trkpt>
      <trkpt lat="45.89486" lon="3.39682">
        <ele>354</ele>
        <time>2019-04-18T02:43:41Z</time>
      </trkpt>
      <trkpt lat="45.89493" lon="3.39719">
        <ele>354</ele>
        <time>2019-04-18T02:44:41Z</time>
      </trkpt>
      <trkpt lat="45.89514" lon="3.39754">
        <ele>354</ele>
        <time>2019-04-18T02:45:41Z</time>
      </trkpt>
      <trkpt lat="45.89827" lon="3.40185">
        <ele>355</ele>
        <time>2019-04-18T02:46:41Z</time>
      </trkpt>
      <trkpt lat="45.89849" lon="3.40217">
        <ele>355</ele>
        <time>2019-04-18T02:47:41Z</time>
      </trkpt>
      <trkpt lat="45.89857" lon="3.40236">
        <ele>355</ele>
        <time>2019-04-18T02:48:41Z</time>
      </trkpt>
      <trkpt lat="45.8987" lon="3.40334">
        <ele>356</ele>
        <time>2019-04-18T02:49:41Z</time>
      </trkpt>
      <trkpt lat="45.89904" lon="3.40615">
        <ele>353</ele>
        <time>2019-04-18T02:50:41Z</time>
      </trkpt>
      <trkpt lat="45.89951" lon="3.40877">
        <ele>352</ele>
        <time>2019-04-18T02:51:41Z</time>
      </trkpt>
      <trkpt lat="45.89953" lon="3.40911">
        <ele>351</ele>
        <time>2019-04-18T02:52:41Z</time>
      </trkpt>
      <trkpt lat="45.89952" lon="3.40948">
        <ele>351</ele>
        <time>2019-04-18T02:53:41Z</time>
      </trkpt>
      <trkpt lat="45.89939" lon="3.41053">
        <ele>351</ele>
        <time>2019-04-18T02:54:41Z</time>
      </trkpt>
      <trkpt lat="45.89939" lon="3.41142">
        <ele>349</ele>
        <time>2019-04-18T02:55:41Z</time>
      </trkpt>
      <trkpt lat="45.89941" lon="3.41157">
        <ele>349</ele>
        <time>2019-04-18T02:56:41Z</time>
      </trkpt>
      <trkpt lat="45.89945" lon="3.41161">
        <ele>349</ele>
        <time>2019-04-18T02:57:41Z</time>
      </trkpt>
      <trkpt lat="45.89941" lon="3.41171">
        <ele>349</ele>
        <time>2019-04-18T02:58:41Z</time>
      </trkpt>
      <trkpt lat="45.89931" lon="3.41222">
        <ele>349</ele>
        <time>2019-04-18T02:59:41Z</time>
      </trkpt>
      <trkpt lat="45.89919" lon="3.41341">
        <ele>348</ele>
        <time>2019-04-18T03:00:41Z</time>
      </trkpt>
      <trkpt lat="45.89899" lon="3.41397">
        <ele>349</ele>
        <time>2019-04-18T03:01:41Z</time>
      </trkpt>
      <trkpt lat="45.89861" lon="3.41482">
        <ele>349</ele>
        <time>2019-04-18T03:02:41Z</time>
      </trkpt>
      <trkpt lat="45.89826" lon="3.41547">
        <ele>348</ele>
        <time>2019-04-18T03:03:41Z</time>
      </trkpt>
      <trkpt lat="45.89801" lon="3.4158">
        <ele>347</ele>
        <time>2019-04-18T03:04:41Z</time>
      </trkpt>
      <trkpt lat="45.89774" lon="3.41611">
        <ele>348</ele>
        <time>2019-04-18T03:05:41Z</time>
      </trkpt>
      <trkpt lat="45.89732" lon="3.4167">
        <ele>350</ele>
        <time>2019-04-18T03:06:41Z</time>
      </trkpt>
      <trkpt lat="45.89693" lon="3.41746">
        <ele>349</ele>
        <time>2019-04-18T03:07:41Z</time>
      </trkpt>
      <trkpt lat="45.89661" lon="3.41827">
        <ele>347</ele>
        <time>2019-04-18T03:08:41Z</time>
      </trkpt>
      <trkpt lat="45.8961" lon="3.41965">
        <ele>347</ele>
        <time>2019-04-18T03:09:41Z</time>
      </trkpt>
      <trkpt lat="45.89368" lon="3.42212">
        <ele>347</ele>
        <time>2019-04-18T03:10:41Z</time>
      </trkpt>
      <trkpt lat="45.89308" lon="3.42398">
        <ele>346</ele>
        <time>2019-04-18T03:11:41Z</time>
      </trkpt>
      <trkpt lat="45.89292" lon="3.42439">
        <ele>345</ele>
        <time>2019-04-18T03:12:41Z</time>
      </trkpt>
      <trkpt lat="45.89257" lon="3.42509">
        <ele>346</ele>
        <time>2019-04-18T03:13:41Z</time>
      </trkpt>
      <trkpt lat="45.8925" lon="3.42549">
        <ele>344</ele>
        <time>2019-04-18T03:14:41Z</time>
      </trkpt>
      <trkpt lat="45.89249" lon="3.42585">
        <ele>343</ele>
        <time>2019-04-18T03:15:41Z</time>
      </trkpt>
      <trkpt lat="45.89251" lon="3.4262">
        <ele>342</ele>
        <time>2019-04-18T03:16:41Z</time>
      </trkpt>
      <trkpt lat="45.89269" lon="3.42764">
        <ele>337</ele>
        <time>2019-04-18T03:17:41Z</time>
      </trkpt>
      <trkpt lat="45.89273" lon="3.42836">
        <ele>333</ele>
        <time>2019-04-18T03:18:41Z</time>
      </trkpt>
      <trkpt lat="45.89271" lon="3.42896">
        <ele>331</ele>
        <time>2019-04-18T03:19:41Z</time>
      </trkpt>
      <trkpt lat="45.89264" lon="3.42948">
        <ele>330</ele>
        <time>2019-04-18T03:20:41Z</time>
      </trkpt>
      <trkpt lat="45.89255" lon="3.42994">
        <ele>329</ele>
        <time>2019-04-18T03:21:41Z</time>
      </trkpt>
      <trkpt lat="45.89101" lon="3.43515">
        <ele>320</ele>
        <time>2019-04-18T03:22:41Z</time>
      </trkpt>
      <trkpt lat="45.89036" lon="3.43726">
        <ele>317</ele>
        <time>2019-04-18T03:23:41Z</time>
      </trkpt>
      <trkpt lat="45.88992" lon="3.43877">
        <ele>318</ele>
        <time>2019-04-18T03:24:41Z</time>
      </trkpt>
      <trkpt lat="45.88948" lon="3.44013">
        <ele>316</ele>
        <time>2019-04-18T03:25:41Z</time>
      </trkpt>
      <trkpt lat="45.88918" lon="3.44088">
        <ele>317</ele>
        <time>2019-04-18T03:26:41Z</time>
      </trkpt>
      <trkpt lat="45.88858" lon="3.44201">
        <ele>318</ele>
        <time>2019-04-18T03:27:41Z</time>
      </trkpt>
      <trkpt lat="45.888" lon="3.44286">
        <ele>317</ele>
        <time>2019-04-18T03:28:41Z</time>
      </trkpt>
      <trkpt lat="45.88744" lon="3.44353">
        <ele>315</ele>
        <time>2019-04-18T03:29:41Z</time>
      </trkpt>
      <trkpt lat="45.8858" lon="3.44513">
        <ele>315</ele>
        <time>2019-04-18T03:30:41Z</time>
      </trkpt>
      <trkpt lat="45.88552" lon="3.44548">
        <ele>315</ele>
        <time>2019-04-18T03:31:41Z</time>
      </trkpt>
      <trkpt lat="45.88592" lon="3.44604">
        <ele>314</ele>
        <time>2019-04-18T03:32:41Z</time>
      </trkpt>
      <trkpt lat="45.88674" lon="3.44739">
        <ele>312</ele>
        <time>2019-04-18T03:33:41Z</time>
      </trkpt>
      <trkpt lat="45.88736" lon="3.44803">
        <ele>313</ele>
        <time>2019-04-18T03:34:41Z</time>
      </trkpt>
      <trkpt lat="45.88831" lon="3.44874">
        <ele>312</ele>
        <time>2019-04-18T03:35:41Z</time>
      </trkpt>
      <trkpt lat="45.88848" lon="3.44895">
        <ele>312</ele>
        <time>2019-04-18T03:36:41Z</time>
      </trkpt>
      <trkpt lat="45.88886" lon="3.45185">
        <ele>304</ele>
        <time>2019-04-18T03:37:41Z</time>
      </trkpt>
      <trkpt lat="45.88902" lon="3.45232">
        <ele>304</ele>
        <time>2019-04-18T03:38:41Z</time>
      </trkpt>
      <trkpt lat="45.88929" lon="3.4534">
        <ele>303</ele>
        <time>2019-04-18T03:39:41Z</time>
      </trkpt>
      <trkpt lat="45.88976" lon="3.45507">
        <ele>305</ele>
        <time>2019-04-18T03:40:41Z</time>
      </trkpt>
      <trkpt lat="45.89095" lon="3.46021">
        <ele>299</ele>
        <time>2019-04-18T03:41:41Z</time>
      </trkpt>
      <trkpt lat="45.89127" lon="3.46175">
        <ele>300</ele>
        <time>2019-04-18T03:42:41Z</time>
      </trkpt>
      <trkpt lat="45.89164" lon="3.4644">
        <ele>298</ele>
        <time>2019-04-18T03:43:41Z</time>
      </trkpt>
      <trkpt lat="45.8916" lon="3.46507">
        <ele>296</ele>
        <time>2019-04-18T03:44:41Z</time>
      </trkpt>
      <trkpt lat="45.89145" lon="3.46568">
        <ele>293</ele>
        <time>2019-04-18T03:45:41Z</time>
      </trkpt>
      <trkpt lat="45.8913" lon="3.46608">
        <ele>291</ele>
        <time>2019-04-18T03:46:41Z</time>
      </trkpt>
      <trkpt lat="45.89103" lon="3.46662">
        <ele>288</ele>
        <time>2019-04-18T03:47:41Z</time>
      </trkpt>
      <trkpt lat="45.89083" lon="3.46721">
        <ele>285</ele>
        <time>2019-04-18T03:48:41Z</time>
      </trkpt>
      <trkpt lat="45.89075" lon="3.46768">
        <ele>284</ele>
        <time>2019-04-18T03:49:41Z</time>
      </trkpt>
      <trkpt lat="45.89074" lon="3.46801">
        <ele>283</ele>
        <time>2019-04-18T03:50:41Z</time>
      </trkpt>
      <trkpt lat="45.89079" lon="3.46957">
        <ele>283</ele>
        <time>2019-04-18T03:51:41Z</time>
      </trkpt>
      <trkpt lat="45.89078" lon="3.46994">
        <ele>283</ele>
        <time>2019-04-18T03:52:41Z</time>
      </trkpt>
      <trkpt lat="45.89074" lon="3.47019">
        <ele>284</ele>
        <time>2019-04-18T03:53:41Z</time>
      </trkpt>
      <trkpt lat="45.89067" lon="3.47045">
        <ele>284</ele>
        <time>2019-04-18T03:54:41Z</time>
      </trkpt>
      <trkpt lat="45.89057" lon="3.47071">
        <ele>284</ele>
        <time>2019-04-18T03:55:41Z</time>
      </trkpt>
      <trkpt lat="45.89004" lon="3.47181">
        <ele>283</ele>
        <time>2019-04-18T03:56:41Z</time>
      </trkpt>
      <trkpt lat="45.88996" lon="3.4721">
        <ele>284</ele>
        <time>2019-04-18T03:57:41Z</time>
      </trkpt>
      <trkpt lat="45.88989" lon="3.47242">
        <ele>284</ele>
        <time>2019-04-18T03:58:41Z</time>
      </trkpt>
      <trkpt lat="45.88986" lon="3.47287">
        <ele>283</ele>
        <time>2019-04-18T03:59:41Z</time>
      </trkpt>
      <trkpt lat="45.88989" lon="3.47326">
        <ele>282</ele>
        <time>2019-04-18T04:00:41Z</time>
      </trkpt>
      <trkpt lat="45.89022" lon="3.47512">
        <ele>282</ele>
        <time>2019-04-18T04:01:41Z</time>
      </trkpt>
      <trkpt lat="45.89038" lon="3.476">
        <ele>282</ele>
        <time>2019-04-18T04:02:41Z</time>
      </trkpt>
      <trkpt lat="45.89053" lon="3.47652">
        <ele>282</ele>
        <time>2019-04-18T04:03:41Z</time>
      </trkpt>
      <trkpt lat="45.89076" lon="3.47701">
        <ele>282</ele>
        <time>2019-04-18T04:04:41Z</time>
      </trkpt>
      <trkpt lat="45.89175" lon="3.47895">
        <ele>282</ele>
        <time>2019-04-18T04:05:41Z</time>
      </trkpt>
      <trkpt lat="45.89193" lon="3.47949">
        <ele>282</ele>
        <time>2019-04-18T04:06:41Z</time>
      </trkpt>
      <trkpt lat="45.892" lon="3.47987">
        <ele>283</ele>
        <time>2019-04-18T04:07:41Z</time>
      </trkpt>
      <trkpt lat="45.89205" lon="3.48038">
        <ele>285</ele>
        <time>2019-04-18T04:08:41Z</time>
      </trkpt>
      <trkpt lat="45.89209" lon="3.48122">
        <ele>290</ele>
        <time>2019-04-18T04:09:41Z</time>
      </trkpt>
      <trkpt lat="45.89208" lon="3.48144">
        <ele>291</ele>
        <time>2019-04-18T04:10:41Z</time>
      </trkpt>
      <trkpt lat="45.89204" lon="3.48157">
        <ele>291</ele>
        <time>2019-04-18T04:11:41Z</time>
      </trkpt>
      <trkpt lat="45.89192" lon="3.48184">
        <ele>292</ele>
        <time>2019-04-18T04:12:41Z</time>
      </trkpt>
      <trkpt lat="45.89142" lon="3.48178">
        <ele>290</ele>
        <time>2019-04-18T04:13:41Z</time>
      </trkpt>
      <trkpt lat="45.89093" lon="3.48174">
        <ele>290</ele>
        <time>2019-04-18T04:14:41Z</time>
      </trkpt>
      <trkpt lat="45.88984" lon="3.48246">
        <ele>292</ele>
        <time>2019-04-18T04:15:41Z</time>
      </trkpt>
      <trkpt lat="45.8897" lon="3.48261">
        <ele>292</ele>
        <time>2019-04-18T04:16:41Z</time>
      </trkpt>
      <trkpt lat="45.88932" lon="3.48308">
        <ele>292</ele>
        <time>2019-04-18T04:17:41Z</time>
      </trkpt>
      <trkpt lat="45.88819" lon="3.48439">
        <ele>295</ele>
        <time>2019-04-18T04:18:41Z</time>
      </trkpt>
      <trkpt lat="45.88806" lon="3.48451">
        <ele>295</ele>
        <time>2019-04-18T04:19:41Z</time>
      </trkpt>
      <trkpt lat="45.8879" lon="3.48461">
        <ele>295</ele>
        <time>2019-04-18T04:20:41Z</time>
      </trkpt>
      <trkpt lat="45.88749" lon="3.48481">
        <ele>295</ele>
        <time>2019-04-18T04:21:41Z</time>
      </trkpt>
      <trkpt lat="45.88596" lon="3.48537">
        <ele>294</ele>
        <time>2019-04-18T04:22:41Z</time>
      </trkpt>
      <trkpt lat="45.88536" lon="3.48551">
        <ele>295</ele>
        <time>2019-04-18T04:23:41Z</time>
      </trkpt>
      <trkpt lat="45.885" lon="3.48556">
        <ele>295</ele>
        <time>2019-04-18T04:24:41Z</time>
      </trkpt>
      <trkpt lat="45.88422" lon="3.48578">
        <ele>298</ele>
        <time>2019-04-18T04:25:41Z</time>
      </trkpt>
      <trkpt lat="45.88394" lon="3.48581">
        <ele>298</ele>
        <time>2019-04-18T04:26:41Z</time>
      </trkpt>
      <trkpt lat="45.88362" lon="3.48581">
        <ele>298</ele>
        <time>2019-04-18T04:27:41Z</time>
      </trkpt>
      <trkpt lat="45.88328" lon="3.48574">
        <ele>297</ele>
        <time>2019-04-18T04:28:41Z</time>
      </trkpt>
      <trkpt lat="45.87929" lon="3.48476">
        <ele>291</ele>
        <time>2019-04-18T04:29:41Z</time>
      </trkpt>
      <trkpt lat="45.87864" lon="3.48471">
        <ele>291</ele>
        <time>2019-04-18T04:30:41Z</time>
      </trkpt>
      <trkpt lat="45.87805" lon="3.48477">
        <ele>291</ele>
        <time>2019-04-18T04:31:41Z</time>
      </trkpt>
      <trkpt lat="45.87741" lon="3.48494">
        <ele>291</ele>
        <time>2019-04-18T04:32:41Z</time>
      </trkpt>
      <trkpt lat="45.87593" lon="3.48537">
        <ele>291</ele>
        <time>2019-04-18T04:33:41Z</time>
      </trkpt>
      <trkpt lat="45.87484" lon="3.4859">
        <ele>292</ele>
        <time>2019-04-18T04:34:41Z</time>
      </trkpt>
      <trkpt lat="45.87459" lon="3.486">
        <ele>293</ele>
        <time>2019-04-18T04:35:41Z</time>
      </trkpt>
      <trkpt lat="45.87422" lon="3.48611">
        <ele>294</ele>
        <time>2019-04-18T04:36:41Z</time>
      </trkpt>
      <trkpt lat="45.87382" lon="3.48619">
        <ele>294</ele>
        <time>2019-04-18T04:37:41Z</time>
      </trkpt>
      <trkpt lat="45.87349" lon="3.48629">
        <ele>294</ele>
        <time>2019-04-18T04:38:41Z</time>
      </trkpt>
      <trkpt lat="45.87325" lon="3.48639">
        <ele>293</ele>
        <time>2019-04-18T04:39:41Z</time>
      </trkpt>
      <trkpt lat="45.87247" lon="3.48684">
        <ele>290</ele>
        <time>2019-04-18T04:40:41Z</time>
      </trkpt>
      <trkpt lat="45.87182" lon="3.48724">
        <ele>293</ele>
        <time>2019-04-18T04:41:41Z</time>
      </trkpt>
      <trkpt lat="45.87162" lon="3.48739">
        <ele>293</ele>
        <time>2019-04-18T04:42:41Z</time>
      </trkpt>
      <trkpt lat="45.87128" lon="3.48782">
        <ele>294</ele>
        <time>2019-04-18T04:43:41Z</time>
      </trkpt>
      <trkpt lat="45.87089" lon="3.48854">
        <ele>294</ele>
        <time>2019-04-18T04:44:41Z</time>
      </trkpt>
      <trkpt lat="45.87062" lon="3.48894">
        <ele>293</ele>
        <time>2019-04-18T04:45:41Z</time>
      </trkpt>
      <trkpt lat="45.87042" lon="3.48913">
        <ele>292</ele>
        <time>2019-04-18T04:46:41Z</time>
      </trkpt>
      <trkpt lat="45.87015" lon="3.48936">
        <ele>291</ele>
        <time>2019-04-18T04:47:41Z</time>
      </trkpt>
      <trkpt lat="45.86867" lon="3.4904">
        <ele>292</ele>
        <time>2019-04-18T04:48:41Z</time>
      </trkpt>
      <trkpt lat="45.86851" lon="3.49057">
        <ele>293</ele>
        <time>2019-04-18T04:49:41Z</time>
      </trkpt>
      <trkpt lat="45.86807" lon="3.49112">
        <ele>296</ele>
        <time>2019-04-18T04:50:41Z</time>
      </trkpt>
      <trkpt lat="45.86784" lon="3.49147">
        <ele>297</ele>
        <time>2019-04-18T04:51:41Z</time>
      </trkpt>
      <trkpt lat="45.86744" lon="3.49199">
        <ele>299</ele>
        <time>2019-04-18T04:52:41Z</time>
      </trkpt>
      <trkpt lat="45.8672" lon="3.49235">
        <ele>299</ele>
        <time>2019-04-18T04:53:41Z</time>
      </trkpt>
      <trkpt lat="45.86702" lon="3.49273">
        <ele>299</ele>
        <time>2019-04-18T04:54:41Z</time>
      </trkpt>
      <trkpt lat="45.86675" lon="3.4934">
        <ele>298</ele>
        <time>2019-04-18T04:55:41Z</time>
      </trkpt>
      <trkpt lat="45.86669" lon="3.49377">
        <ele>299</ele>
        <time>2019-04-18T04:56:41Z</time>
      </trkpt>
      <trkpt lat="45.86655" lon="3.49452">
        <ele>300</ele>
        <time>2019-04-18T04:57:41Z</time>
      </trkpt>
      <trkpt lat="45.86649" lon="3.49494">
        <ele>300</ele>
        <time>2019-04-18T04:58:41Z</time>
      </trkpt>
      <trkpt lat="45.86635" lon="3.49535">
        <ele>302</ele>
        <time>2019-04-18T04:59:41Z</time>
      </trkpt>
      <trkpt lat="45.86623" lon="3.4956">
        <ele>302</ele>
        <time>2019-04-18T05:00:41Z</time>
      </trkpt>
      <trkpt lat="45.8661" lon="3.49572">
        <ele>302</ele>
        <time>2019-04-18T05:01:41Z</time>
      </trkpt>
      <trkpt lat="45.86578" lon="3.49578">
        <ele>301</ele>
        <time>2019-04-18T05:02:41Z</time>
      </trkpt>
      <trkpt lat="45.8656" lon="3.49587">
        <ele>300</ele>
        <time>2019-04-18T05:03:41Z</time>
      </trkpt>
      <trkpt lat="45.86544" lon="3.496">
        <ele>300</ele>
        <time>2019-04-18T05:04:41Z</time>
      </trkpt>
      <trkpt lat="45.86536" lon="3.49615">
        <ele>301</ele>
        <time>2019-04-18T05:05:41Z</time>
      </trkpt>
      <trkpt lat="45.86529" lon="3.49634">
        <ele>301</ele>
        <time>2019-04-18T05:06:41Z</time>
      </trkpt>
      <trkpt lat="45.86521" lon="3.49665">
        <ele>302</ele>
        <time>2019-04-18T05:07:41Z</time>
      </trkpt>
      <trkpt lat="45.86491" lon="3.49829">
        <ele>302</ele>
        <time>2019-04-18T05:08:41Z</time>
      </trkpt>
      <trkpt lat="45.86482" lon="3.49903">
        <ele>303</ele>
        <time>2019-04-18T05:09:41Z</time>
      </trkpt>
      <trkpt lat="45.86481" lon="3.49995">
        <ele>302</ele>
        <time>2019-04-18T05:10:41Z</time>
      </trkpt>
      <trkpt lat="45.86493" lon="3.50177">
        <ele>304</ele>
        <time>2019-04-18T05:11:41Z</time>
      </trkpt>
      <trkpt lat="45.86494" lon="3.50236">
        <ele>304</ele>
        <time>2019-04-18T05:12:41Z</time>
      </trkpt>
      <trkpt lat="45.86486" lon="3.50333">
        <ele>304</ele>
        <time>2019-04-18T05:13:41Z</time>
      </trkpt>
      <trkpt lat="45.86478" lon="3.50489">
        <ele>304</ele>
        <time>2019-04-18T05:14:41Z</time>
      </trkpt>
      <trkpt lat="45.86473" lon="3.50514">
        <ele>304</ele>
        <time>2019-04-18T05:15:41Z</time>
      </trkpt>
      <trkpt lat="45.86471" lon="3.50522">
        <ele>304</ele>
        <time>2019-04-18T05:16:41Z</time>
      </trkpt>
      <trkpt lat="45.86458" lon="3.50536">
        <ele>303</ele>
        <time>2019-04-18T05:17:41Z</time>
      </trkpt>
      <trkpt lat="45.86445" lon="3.50534">
        <ele>303</ele>
        <time>2019-04-18T05:18:41Z</time>
      </trkpt>
      <trkpt lat="45.86432" lon="3.50541">
        <ele>303</ele>
        <time>2019-04-18T05:19:41Z</time>
      </trkpt>
      <trkpt lat="45.86428" lon="3.50547">
        <ele>303</ele>
        <time>2019-04-18T05:20:41Z</time>
      </trkpt>
      <trkpt lat="45.86423" lon="3.50558">
        <ele>303</ele>
        <time>2019-04-18T05:21:41Z</time>
      </trkpt>
      <trkpt lat="45.86421" lon="3.50571">
        <ele>303</ele>
        <time>2019-04-18T05:22:41Z</time>
      </trkpt>
      <trkpt lat="45.86416" lon="3.50581">
        <ele>303</ele>
        <time>2019-04-18T05:23:41Z</time>
      </trkpt>
      <trkpt lat="45.86399" lon="3.50595">
        <ele>304</ele>
        <time>2019-04-18T05:24:41Z</time>
      </trkpt>
      <trkpt lat="45.86362" lon="3.50635">
        <ele>306</ele>
        <time>2019-04-18T05:25:41Z</time>
      </trkpt>
      <trkpt lat="45.86314" lon="3.50741">
        <ele>311</ele>
        <time>2019-04-18T05:26:41Z</time>
      </trkpt>
      <trkpt lat="45.86301" lon="3.50783">
        <ele>316</ele>
        <time>2019-04-18T05:27:41Z</time>
      </trkpt>
      <trkpt lat="45.86286" lon="3.50849">
        <ele>321</ele>
        <time>2019-04-18T05:28:41Z</time>
      </trkpt>
      <trkpt lat="45.86272" lon="3.5088">
        <ele>323</ele>
        <time>2019-04-18T05:29:41Z</time>
      </trkpt>
      <trkpt lat="45.86194" lon="3.50977">
        <ele>331</ele>
        <time>2019-04-18T05:30:41Z</time>
      </trkpt>
      <trkpt lat="45.86164" lon="3.51022">
        <ele>333</ele>
        <time>2019-04-18T05:31:41Z</time>
      </trkpt>
      <trkpt lat="45.86149" lon="3.51055">
        <ele>334</ele>
        <time>2019-04-18T05:32:41Z</time>
      </trkpt>
      <trkpt lat="45.86129" lon="3.51121">
        <ele>337</ele>
        <time>2019-04-18T05:33:41Z</time>
      </trkpt>
      <trkpt lat="45.86115" lon="3.51207">
        <ele>339</ele>
        <time>2019-04-18T05:34:41Z</time>
      </trkpt>
      <trkpt lat="45.86102" lon="3.51323">
        <ele>344</ele>
        <time>2019-04-18T05:35:41Z</time>
      </trkpt>
      <trkpt lat="45.86093" lon="3.51432">
        <ele>351</ele>
        <time>2019-04-18T05:36:41Z</time>
      </trkpt>
      <trkpt lat="45.86091" lon="3.51479">
        <ele>356</ele>
        <time>2019-04-18T05:37:41Z</time>
      </trkpt>
      <trkpt lat="45.86101" lon="3.51499">
        <ele>358</ele>
        <time>2019-04-18T05:38:41Z</time>
      </trkpt>
      <trkpt lat="45.86142" lon="3.51526">
        <ele>360</ele>
        <time>2019-04-18T05:39:41Z</time>
      </trkpt>
      <trkpt lat="45.86151" lon="3.51552">
        <ele>361</ele>
        <time>2019-04-18T05:40:41Z</time>
      </trkpt>
      <trkpt lat="45.86144" lon="3.51565">
        <ele>363</ele>
        <time>2019-04-18T05:41:41Z</time>
      </trkpt>
      <trkpt lat="45.86139" lon="3.51581">
        <ele>364</ele>
        <time>2019-04-18T05:42:41Z</time>
      </trkpt>
      <trkpt lat="45.86115" lon="3.51631">
        <ele>366</ele>
        <time>2019-04-18T05:43:41Z</time>
      </trkpt>
      <trkpt lat="45.86102" lon="3.51694">
        <ele>368</ele>
        <time>2019-04-18T05:44:41Z</time>
      </trkpt>
      <trkpt lat="45.86091" lon="3.51787">
        <ele>368</ele>
        <time>2019-04-18T05:45:41Z</time>
      </trkpt>
      <trkpt lat="45.86092" lon="3.51835">
        <ele>368</ele>
        <time>2019-04-18T05:46:41Z</time>
      </trkpt>
      <trkpt lat="45.86113" lon="3.5197">
        <ele>371</ele>
        <time>2019-04-18T05:47:41Z</time>
      </trkpt>
      <trkpt lat="45.8612" lon="3.5201">
        <ele>372</ele>
        <time>2019-04-18T05:48:41Z</time>
      </trkpt>
      <trkpt lat="45.86148" lon="3.52129">
        <ele>378</ele>
        <time>2019-04-18T05:49:41Z</time>
      </trkpt>
      <trkpt lat="45.86159" lon="3.52158">
        <ele>380</ele>
        <time>2019-04-18T05:50:41Z</time>
      </trkpt>
      <trkpt lat="45.86173" lon="3.52181">
        <ele>381</ele>
        <time>2019-04-18T05:51:41Z</time>
      </trkpt>
      <trkpt lat="45.86302" lon="3.52356">
        <ele>388</ele>
        <time>2019-04-18T05:52:41Z</time>
      </trkpt>
      <trkpt lat="45.86328" lon="3.52404">
        <ele>392</ele>
        <time>2019-04-18T05:53:41Z</time>
      </trkpt>
      <trkpt lat="45.86358" lon="3.52475">
        <ele>395</ele>
        <time>2019-04-18T05:54:41Z</time>
      </trkpt>
      <trkpt lat="45.86362" lon="3.52515">
        <ele>396</ele>
        <time>2019-04-18T05:55:41Z</time>
      </trkpt>
      <trkpt lat="45.86357" lon="3.52549">
        <ele>397</ele>
        <time>2019-04-18T05:56:41Z</time>
      </trkpt>
      <trkpt lat="45.86347" lon="3.52594">
        <ele>399</ele>
        <time>2019-04-18T05:57:41Z</time>
      </trkpt>
      <trkpt lat="45.86346" lon="3.52628">
        <ele>401</ele>
        <time>2019-04-18T05:58:41Z</time>
      </trkpt>
      <trkpt lat="45.86361" lon="3.52679">
        <ele>402</ele>
        <time>2019-04-18T05:59:41Z</time>
      </trkpt>
      <trkpt lat="45.86369" lon="3.52718">
        <ele>404</ele>
        <time>2019-04-18T06:00:41Z</time>
      </trkpt>
      <trkpt lat="45.8636" lon="3.52748">
        <ele>408</ele>
        <time>2019-04-18T06:01:41Z</time>
      </trkpt>
      <trkpt lat="45.86355" lon="3.52786">
        <ele>411</ele>
        <time>2019-04-18T06:02:41Z</time>
      </trkpt>
      <trkpt lat="45.86344" lon="3.52824">
        <ele>414</ele>
        <time>2019-04-18T06:03:41Z</time>
      </trkpt>
      <trkpt lat="45.86342" lon="3.52867">
        <ele>416</ele>
        <time>2019-04-18T06:04:41Z</time>
      </trkpt>
      <trkpt lat="45.86348" lon="3.52891">
        <ele>417</ele>
        <time>2019-04-18T06:05:41Z</time>
      </trkpt>
      <trkpt lat="45.86407" lon="3.53006">
        <ele>422</ele>
        <time>2019-04-18T06:06:41Z</time>
      </trkpt>
      <trkpt lat="45.86427" lon="3.53039">
        <ele>422</ele>
        <time>2019-04-18T06:07:41Z</time>
      </trkpt>
      <trkpt lat="45.86429" lon="3.53044">
        <ele>422</ele>
        <time>2019-04-18T06:08:41Z</time>
      </trkpt>
      <trkpt lat="45.86429" lon="3.53051">
        <ele>421</ele>
        <time>2019-04-18T06:09:41Z</time>
      </trkpt>
      <trkpt lat="45.86422" lon="3.53057">
        <ele>421</ele>
        <time>2019-04-18T06:10:41Z</time>
      </trkpt>
      <trkpt lat="45.86421" lon="3.53061">
        <ele>421</ele>
        <time>2019-04-18T06:11:41Z</time>
      </trkpt>
      <trkpt lat="45.86422" lon="3.53066">
        <ele>421</ele>
        <time>2019-04-18T06:12:41Z</time>
      </trkpt>
      <trkpt lat="45.8643" lon="3.5307">
        <ele>421</ele>
        <time>2019-04-18T06:13:41Z</time>
      </trkpt>
      <trkpt lat="45.86438" lon="3.53067">
        <ele>422</ele>
        <time>2019-04-18T06:14:41Z</time>
      </trkpt>
      <trkpt lat="45.86439" lon="3.53065">
        <ele>422</ele>
        <time>2019-04-18T06:15:41Z</time>
      </trkpt>
      <trkpt lat="45.86454" lon="3.53074">
        <ele>423</ele>
        <time>2019-04-18T06:16:41Z</time>
      </trkpt>
      <trkpt lat="45.86608" lon="3.53262">
        <ele>430</ele>
        <time>2019-04-18T06:17:41Z</time>
      </trkpt>
      <trkpt lat="45.86615" lon="3.53285">
        <ele>432</ele>
        <time>2019-04-18T06:18:41Z</time>
      </trkpt>
      <trkpt lat="45.86612" lon="3.53317">
        <ele>433</ele>
        <time>2019-04-18T06:19:41Z</time>
      </trkpt>
      <trkpt lat="45.86603" lon="3.53337">
        <ele>433</ele>
        <time>2019-04-18T06:20:41Z</time>
      </trkpt>
      <trkpt lat="45.86589" lon="3.53348">
        <ele>433</ele>
        <time>2019-04-18T06:21:41Z</time>
      </trkpt>
      <trkpt lat="45.86537" lon="3.53365">
        <ele>431</ele>
        <time>2019-04-18T06:22:41Z</time>
      </trkpt>
      <trkpt lat="45.86499" lon="3.53381">
        <ele>430</ele>
        <time>2019-04-18T06:23:41Z</time>
      </trkpt>
      <trkpt lat="45.86454" lon="3.53413">
        <ele>430</ele>
        <time>2019-04-18T06:24:41Z</time>
      </trkpt>
      <trkpt lat="45.86445" lon="3.53418">
        <ele>430</ele>
        <time>2019-04-18T06:25:41Z</time>
      </trkpt>
      <trkpt lat="45.8644" lon="3.53423">
        <ele>430</ele>
        <time>2019-04-18T06:26:41Z</time>
      </trkpt>
      <trkpt lat="45.86437" lon="3.53437">
        <ele>432</ele>
        <time>2019-04-18T06:27:41Z</time>
      </trkpt>
      <trkpt lat="45.86437" lon="3.53445">
        <ele>432</ele>
        <time>2019-04-18T06:28:41Z</time>
      </trkpt>
      <trkpt lat="45.86434" lon="3.53451">
        <ele>433</ele>
        <time>2019-04-18T06:29:41Z</time>
      </trkpt>
      <trkpt lat="45.86432" lon="3.53458">
        <ele>433</ele>
        <time>2019-04-18T06:30:41Z</time>
      </trkpt>
      <trkpt lat="45.86418" lon="3.5347">
        <ele>433</ele>
        <time>2019-04-18T06:31:41Z</time>
      </trkpt>
      <trkpt lat="45.86403" lon="3.53471">
        <ele>432</ele>
        <time>2019-04-18T06:32:41Z</time>
      </trkpt>
      <trkpt lat="45.86385" lon="3.5347">
        <ele>431</ele>
        <time>2019-04-18T06:33:41Z</time>
      </trkpt>
      <trkpt lat="45.86319" lon="3.53456">
        <ele>426</ele>
        <time>2019-04-18T06:34:41Z</time>
      </trkpt>
      <trkpt lat="45.86288" lon="3.53455">
        <ele>424</ele>
        <time>2019-04-18T06:35:41Z</time>
      </trkpt>
      <trkpt lat="45.86236" lon="3.5346">
        <ele>421</ele>
        <time>2019-04-18T06:36:41Z</time>
      </trkpt>
      <trkpt lat="45.8622" lon="3.5347">
        <ele>421</ele>
        <time>2019-04-18T06:37:41Z</time>
      </trkpt>
      <trkpt lat="45.8613" lon="3.53558">
        <ele>421</ele>
        <time>2019-04-18T06:38:41Z</time>
      </trkpt>
      <trkpt lat="45.86055" lon="3.53666">
        <ele>419</ele>
        <time>2019-04-18T06:39:41Z</time>
      </trkpt>
      <trkpt lat="45.86032" lon="3.53702">
        <ele>417</ele>
        <time>2019-04-18T06:40:41Z</time>
      </trkpt>
      <trkpt lat="45.86025" lon="3.53733">
        <ele>417</ele>
        <time>2019-04-18T06:41:41Z</time>
      </trkpt>
      <trkpt lat="45.86023" lon="3.53752">
        <ele>418</ele>
        <time>2019-04-18T06:42:41Z</time>
      </trkpt>
      <trkpt lat="45.86025" lon="3.53762">
        <ele>417</ele>
        <time>2019-04-18T06:43:41Z</time>
      </trkpt>
      <trkpt lat="45.86034" lon="3.53782">
        <ele>417</ele>
        <time>2019-04-18T06:44:41Z</time>
      </trkpt>
      <trkpt lat="45.86045" lon="3.5379">
        <ele>417</ele>
        <time>2019-04-18T06:45:41Z</time>
      </trkpt>
      <trkpt lat="45.86113" lon="3.53813">
        <ele>420</ele>
        <time>2019-04-18T06:46:41Z</time>
      </trkpt>
      <trkpt lat="45.86126" lon="3.53829">
        <ele>420</ele>
        <time>2019-04-18T06:47:41Z</time>
      </trkpt>
      <trkpt lat="45.86136" lon="3.53843">
        <ele>419</ele>
        <time>2019-04-18T06:48:41Z</time>
      </trkpt>
      <trkpt lat="45.86189" lon="3.53945">
        <ele>420</ele>
        <time>2019-04-18T06:49:41Z</time>
      </trkpt>
      <trkpt lat="45.86194" lon="3.53961">
        <ele>420</ele>
        <time>2019-04-18T06:50:41Z</time>
      </trkpt>
      <trkpt lat="45.86185" lon="3.5398">
        <ele>418</ele>
        <time>2019-04-18T06:51:41Z</time>
      </trkpt>
      <trkpt lat="45.86152" lon="3.54007">
        <ele>413</ele>
        <time>2019-04-18T06:52:41Z</time>
      </trkpt>
      <trkpt lat="45.8613" lon="3.54019">
        <ele>411</ele>
        <time>2019-04-18T06:53:41Z</time>
      </trkpt>
      <trkpt lat="45.86111" lon="3.54019">
        <ele>408</ele>
        <time>2019-04-18T06:54:41Z</time>
      </trkpt>
      <trkpt lat="45.8607" lon="3.54036">
        <ele>405</ele>
        <time>2019-04-18T06:55:41Z</time>
      </trkpt>
      <trkpt lat="45.86046" lon="3.54048">
        <ele>403</ele>
        <time>2019-04-18T06:56:41Z</time>
      </trkpt>
      <trkpt lat="45.86029" lon="3.54066">
        <ele>403</ele>
        <time>2019-04-18T06:57:41Z</time>
      </trkpt>
      <trkpt lat="45.86015" lon="3.54103">
        <ele>405</ele>
        <time>2019-04-18T06:58:41Z</time>
      </trkpt>
      <trkpt lat="45.86002" lon="3.54148">
        <ele>409</ele>
        <time>2019-04-18T06:59:41Z</time>
      </trkpt>
      <trkpt lat="45.85976" lon="3.54219">
        <ele>412</ele>
        <time>2019-04-18T07:00:41Z</time>
      </trkpt>
      <trkpt lat="45.85953" lon="3.54274">
        <ele>414</ele>
        <time>2019-04-18T07:01:41Z</time>
      </trkpt>
      <trkpt lat="45.85945" lon="3.54316">
        <ele>414</ele>
        <time>2019-04-18T07:02:41Z</time>
      </trkpt>
      <trkpt lat="45.8595" lon="3.54364">
        <ele>415</ele>
        <time>2019-04-18T07:03:41Z</time>
      </trkpt>
      <trkpt lat="45.85992" lon="3.54524">
        <ele>425</ele>
        <time>2019-04-18T07:04:41Z</time>
      </trkpt>
      <trkpt lat="45.86012" lon="3.54579">
        <ele>428</ele>
        <time>2019-04-18T07:05:41Z</time>
      </trkpt>
      <trkpt lat="45.86013" lon="3.54598">
        <ele>431</ele>
        <time>2019-04-18T07:06:41Z</time>
      </trkpt>
      <trkpt lat="45.86006" lon="3.54619">
        <ele>433</ele>
        <time>2019-04-18T07:07:41Z</time>
      </trkpt>
      <trkpt lat="45.85996" lon="3.54626">
        <ele>433</ele>
        <time>2019-04-18T07:08:41Z</time>
      </trkpt>
      <trkpt lat="45.85981" lon="3.54627">
        <ele>433</ele>
        <time>2019-04-18T07:09:41Z</time>
      </trkpt>
      <trkpt lat="45.8596" lon="3.54619">
        <ele>432</ele>
        <time>2019-04-18T07:10:41Z</time>
      </trkpt>
      <trkpt lat="45.85929" lon="3.54593">
        <ele>429</ele>
        <time>2019-04-18T07:11:41Z</time>
      </trkpt>
      <trkpt lat="45.85914" lon="3.54587">
        <ele>427</ele>
        <time>2019-04-18T07:12:41Z</time>
      </trkpt>
      <trkpt lat="45.8589" lon="3.54581">
        <ele>425</ele>
        <time>2019-04-18T07:13:41Z</time>
      </trkpt>
      <trkpt lat="45.85865" lon="3.5459">
        <ele>425</ele>
        <time>2019-04-18T07:14:41Z</time>
      </trkpt>
      <trkpt lat="45.85828" lon="3.54626">
        <ele>429</ele>
        <time>2019-04-18T07:15:41Z</time>
      </trkpt>
      <trkpt lat="45.85802" lon="3.54644">
        <ele>430</ele>
        <time>2019-04-18T07:16:41Z</time>
      </trkpt>
      <trkpt lat="45.85736" lon="3.54676">
        <ele>431</ele>
        <time>2019-04-18T07:17:41Z</time>
      </trkpt>
      <trkpt lat="45.85721" lon="3.54685">
        <ele>430</ele>
        <time>2019-04-18T07:18:41Z</time>
      </trkpt>
      <trkpt lat="45.85686" lon="3.54716">
        <ele>430</ele>
        <time>2019-04-18T07:19:41Z</time>
      </trkpt>
      <trkpt lat="45.85674" lon="3.54733">
        <ele>431</ele>
        <time>2019-04-18T07:20:41Z</time>
      </trkpt>
      <trkpt lat="45.85665" lon="3.54757">
        <ele>432</ele>
        <time>2019-04-18T07:21:41Z</time>
      </trkpt>
      <trkpt lat="45.85661" lon="3.54778">
        <ele>431</ele>
        <time>2019-04-18T07:22:41Z</time>
      </trkpt>
      <trkpt lat="45.85667" lon="3.54904">
        <ele>428</ele>
        <time>2019-04-18T07:23:41Z</time>
      </trkpt>
      <trkpt lat="45.85661" lon="3.54926">
        <ele>425</ele>
        <time>2019-04-18T07:24:41Z</time>
      </trkpt>
      <trkpt lat="45.85676" lon="3.54954">
        <ele>423</ele>
        <time>2019-04-18T07:25:41Z</time>
      </trkpt>
      <trkpt lat="45.85695" lon="3.5497">
        <ele>423</ele>
        <time>2019-04-18T07:26:41Z</time>
      </trkpt>
      <trkpt lat="45.85696" lon="3.54967">
        <ele>424</ele>
        <time>2019-04-18T07:27:41Z</time>
      </trkpt>
      <trkpt lat="45.85695" lon="3.5497">
        <ele>423</ele>
        <time>2019-04-18T07:28:41Z</time>
      </trkpt>
      <trkpt lat="45.85727" lon="3.54985">
        <ele>424</ele>
        <time>2019-04-18T07:29:41Z</time>
      </trkpt>
      <trkpt lat="45.85753" lon="3.54995">
        <ele>424</ele>
        <time>2019-04-18T07:30:41Z</time>
      </trkpt>
      <trkpt lat="45.85776" lon="3.55001">
        <ele>425</ele>
        <time>2019-04-18T07:31:41Z</time>
      </trkpt>
      <trkpt lat="45.8579" lon="3.55003">
        <ele>425</ele>
        <time>2019-04-18T07:32:41Z</time>
      </trkpt>
      <trkpt lat="45.85805" lon="3.55001">
        <ele>427</ele>
        <time>2019-04-18T07:33:41Z</time>
      </trkpt>
      <trkpt lat="45.85874" lon="3.54971">
        <ele>437</ele>
        <time>2019-04-18T07:34:41Z</time>
      </trkpt>
      <trkpt lat="45.85912" lon="3.54977">
        <ele>437</ele>
        <time>2019-04-18T07:35:41Z</time>
      </trkpt>
      <trkpt lat="45.85948" lon="3.54988">
        <ele>440</ele>
        <time>2019-04-18T07:36:41Z</time>
      </trkpt>
      <trkpt lat="45.85976" lon="3.55016">
        <ele>441</ele>
        <time>2019-04-18T07:37:41Z</time>
      </trkpt>
      <trkpt lat="45.85986" lon="3.55032">
        <ele>443</ele>
        <time>2019-04-18T07:38:41Z</time>
      </trkpt>
      <trkpt lat="45.85984" lon="3.55045">
        <ele>442</ele>
        <time>2019-04-18T07:39:41Z</time>
      </trkpt>
      <trkpt lat="45.85952" lon="3.55081">
        <ele>434</ele>
        <time>2019-04-18T07:40:41Z</time>
      </trkpt>
      <trkpt lat="45.85945" lon="3.55101">
        <ele>433</ele>
        <time>2019-04-18T07:41:41Z</time>
      </trkpt>
      <trkpt lat="45.85941" lon="3.55125">
        <ele>433</ele>
        <time>2019-04-18T07:42:41Z</time>
      </trkpt>
      <trkpt lat="45.85942" lon="3.55152">
        <ele>435</ele>
        <time>2019-04-18T07:43:41Z</time>
      </trkpt>
      <trkpt lat="45.85951" lon="3.55224">
        <ele>442</ele>
        <time>2019-04-18T07:44:41Z</time>
      </trkpt>
      <trkpt lat="45.85946" lon="3.55267">
        <ele>442</ele>
        <time>2019-04-18T07:45:41Z</time>
      </trkpt>
      <trkpt lat="45.85947" lon="3.55285">
        <ele>442</ele>
        <time>2019-04-18T07:46:41Z</time>
      </trkpt>
      <trkpt lat="45.85953" lon="3.55362">
        <ele>444</ele>
        <time>2019-04-18T07:47:41Z</time>
      </trkpt>
      <trkpt lat="45.85958" lon="3.55382">
        <ele>444</ele>
        <time>2019-04-18T07:48:41Z</time>
      </trkpt>
      <trkpt lat="45.85965" lon="3.55388">
        <ele>444</ele>
        <time>2019-04-18T07:49:41Z</time>
      </trkpt>
      <trkpt lat="45.85977" lon="3.55389">
        <ele>445</ele>
        <time>2019-04-18T07:50:41Z</time>
      </trkpt>
      <trkpt lat="45.86009" lon="3.55371">
        <ele>448</ele>
        <time>2019-04-18T07:51:41Z</time>
      </trkpt>
      <trkpt lat="45.8608" lon="3.55349">
        <ele>455</ele>
        <time>2019-04-18T07:52:41Z</time>
      </trkpt>
      <trkpt lat="45.86105" lon="3.55337">
        <ele>462</ele>
        <time>2019-04-18T07:53:41Z</time>
      </trkpt>
      <trkpt lat="45.86129" lon="3.55333">
        <ele>467</ele>
        <time>2019-04-18T07:54:41Z</time>
      </trkpt>
      <trkpt lat="45.86248" lon="3.55395">
        <ele>466</ele>
        <time>2019-04-18T07:55:41Z</time>
      </trkpt>
      <trkpt lat="45.86274" lon="3.55411">
        <ele>469</ele>
        <time>2019-04-18T07:56:41Z</time>
      </trkpt>
      <trkpt lat="45.8629" lon="3.55436">
        <ele>467</ele>
        <time>2019-04-18T07:57:41Z</time>
      </trkpt>
      <trkpt lat="45.8631" lon="3.55461">
        <ele>468</ele>
        <time>2019-04-18T07:58:41Z</time>
      </trkpt>
      <trkpt lat="45.86338" lon="3.55483">
        <ele>474</ele>
        <time>2019-04-18T07:59:41Z</time>
      </trkpt>
      <trkpt lat="45.86342" lon="3.55509">
        <ele>473</ele>
        <time>2019-04-18T08:00:41Z</time>
      </trkpt>
      <trkpt lat="45.86339" lon="3.55554">
        <ele>476</ele>
        <time>2019-04-18T08:01:41Z</time>
      </trkpt>
      <trkpt lat="45.86333" lon="3.55579">
        <ele>474</ele>
        <time>2019-04-18T08:02:41Z</time>
      </trkpt>
      <trkpt lat="45.86315" lon="3.55618">
        <ele>469</ele>
        <time>2019-04-18T08:03:41Z</time>
      </trkpt>
      <trkpt lat="45.86309" lon="3.55645">
        <ele>470</ele>
        <time>2019-04-18T08:04:41Z</time>
      </trkpt>
      <trkpt lat="45.86304" lon="3.55681">
        <ele>470</ele>
        <time>2019-04-18T08:05:41Z</time>
      </trkpt>
      <trkpt lat="45.86304" lon="3.55716">
        <ele>471</ele>
        <time>2019-04-18T08:06:41Z</time>
      </trkpt>
      <trkpt lat="45.86309" lon="3.5574">
        <ele>474</ele>
        <time>2019-04-18T08:07:41Z</time>
      </trkpt>
      <trkpt lat="45.86323" lon="3.55782">
        <ele>482</ele>
        <time>2019-04-18T08:08:41Z</time>
      </trkpt>
      <trkpt lat="45.86323" lon="3.55799">
        <ele>482</ele>
        <time>2019-04-18T08:09:41Z</time>
      </trkpt>
      <trkpt lat="45.86299" lon="3.55846">
        <ele>475</ele>
        <time>2019-04-18T08:10:41Z</time>
      </trkpt>
      <trkpt lat="45.86271" lon="3.55888">
        <ele>470</ele>
        <time>2019-04-18T08:11:41Z</time>
      </trkpt>
      <trkpt lat="45.86266" lon="3.55908">
        <ele>472</ele>
        <time>2019-04-18T08:12:41Z</time>
      </trkpt>
      <trkpt lat="45.86264" lon="3.55928">
        <ele>471</ele>
        <time>2019-04-18T08:13:41Z</time>
      </trkpt>
      <trkpt lat="45.86265" lon="3.55944">
        <ele>470</ele>
        <time>2019-04-18T08:14:41Z</time>
      </trkpt>
      <trkpt lat="45.86271" lon="3.5597">
        <ele>470</ele>
        <time>2019-04-18T08:15:41Z</time>
      </trkpt>
      <trkpt lat="45.86282" lon="3.55991">
        <ele>473</ele>
        <time>2019-04-18T08:16:41Z</time>
      </trkpt>
      <trkpt lat="45.86303" lon="3.56016">
        <ele>475</ele>
        <time>2019-04-18T08:17:41Z</time>
      </trkpt>
      <trkpt lat="45.86344" lon="3.56054">
        <ele>477</ele>
        <time>2019-04-18T08:18:41Z</time>
      </trkpt>
      <trkpt lat="45.86374" lon="3.56075">
        <ele>480</ele>
        <time>2019-04-18T08:19:41Z</time>
      </trkpt>
      <trkpt lat="45.86411" lon="3.5611">
        <ele>479</ele>
        <time>2019-04-18T08:20:41Z</time>
      </trkpt>
      <trkpt lat="45.86437" lon="3.56129">
        <ele>479</ele>
        <time>2019-04-18T08:21:41Z</time>
      </trkpt>
      <trkpt lat="45.865" lon="3.56162">
        <ele>482</ele>
        <time>2019-04-18T08:22:41Z</time>
      </trkpt>
      <trkpt lat="45.86518" lon="3.56173">
        <ele>482</ele>
        <time>2019-04-18T08:23:41Z</time>
      </trkpt>
      <trkpt lat="45.8653" lon="3.56185">
        <ele>483</ele>
        <time>2019-04-18T08:24:41Z</time>
      </trkpt>
      <trkpt lat="45.86538" lon="3.56202">
        <ele>483</ele>
        <time>2019-04-18T08:25:41Z</time>
      </trkpt>
      <trkpt lat="45.86543" lon="3.56218">
        <ele>483</ele>
        <time>2019-04-18T08:26:41Z</time>
      </trkpt>
      <trkpt lat="45.86545" lon="3.56237">
        <ele>482</ele>
        <time>2019-04-18T08:27:41Z</time>
      </trkpt>
      <trkpt lat="45.86542" lon="3.56257">
        <ele>482</ele>
        <time>2019-04-18T08:28:41Z</time>
      </trkpt>
      <trkpt lat="45.86536" lon="3.56275">
        <ele>484</ele>
        <time>2019-04-18T08:29:41Z</time>
      </trkpt>
      <trkpt lat="45.86475" lon="3.56382">
        <ele>483</ele>
        <time>2019-04-18T08:30:41Z</time>
      </trkpt>
      <trkpt lat="45.86466" lon="3.56407">
        <ele>483</ele>
        <time>2019-04-18T08:31:41Z</time>
      </trkpt>
      <trkpt lat="45.8646" lon="3.56432">
        <ele>482</ele>
        <time>2019-04-18T08:32:41Z</time>
      </trkpt>
      <trkpt lat="45.86458" lon="3.56457">
        <ele>481</ele>
        <time>2019-04-18T08:33:41Z</time>
      </trkpt>
      <trkpt lat="45.86459" lon="3.5648">
        <ele>481</ele>
        <time>2019-04-18T08:34:41Z</time>
      </trkpt>
      <trkpt lat="45.86463" lon="3.56504">
        <ele>482</ele>
        <time>2019-04-18T08:35:41Z</time>
      </trkpt>
      <trkpt lat="45.86472" lon="3.56535">
        <ele>479</ele>
        <time>2019-04-18T08:36:41Z</time>
      </trkpt>
      <trkpt lat="45.86484" lon="3.56557">
        <ele>480</ele>
        <time>2019-04-18T08:37:41Z</time>
      </trkpt>
      <trkpt lat="45.86499" lon="3.56577">
        <ele>482</ele>
        <time>2019-04-18T08:38:41Z</time>
      </trkpt>
      <trkpt lat="45.86559" lon="3.56626">
        <ele>492</ele>
        <time>2019-04-18T08:39:41Z</time>
      </trkpt>
      <trkpt lat="45.86589" lon="3.56658">
        <ele>497</ele>
        <time>2019-04-18T08:40:41Z</time>
      </trkpt>
      <trkpt lat="45.86598" lon="3.56676">
        <ele>495</ele>
        <time>2019-04-18T08:41:41Z</time>
      </trkpt>
      <trkpt lat="45.86604" lon="3.56702">
        <ele>490</ele>
        <time>2019-04-18T08:42:41Z</time>
      </trkpt>
      <trkpt lat="45.86608" lon="3.56729">
        <ele>484</ele>
        <time>2019-04-18T08:43:41Z</time>
      </trkpt>
      <trkpt lat="45.86606" lon="3.56757">
        <ele>478</ele>
        <time>2019-04-18T08:44:41Z</time>
      </trkpt>
      <trkpt lat="45.86604" lon="3.56774">
        <ele>479</ele>
        <time>2019-04-18T08:45:41Z</time>
      </trkpt>
      <trkpt lat="45.86595" lon="3.56811">
        <ele>481</ele>
        <time>2019-04-18T08:46:41Z</time>
      </trkpt>
      <trkpt lat="45.86584" lon="3.56836">
        <ele>483</ele>
        <time>2019-04-18T08:47:41Z</time>
      </trkpt>
      <trkpt lat="45.86572" lon="3.56847">
        <ele>488</ele>
        <time>2019-04-18T08:48:41Z</time>
      </trkpt>
      <trkpt lat="45.86559" lon="3.56855">
        <ele>491</ele>
        <time>2019-04-18T08:49:41Z</time>
      </trkpt>
      <trkpt lat="45.8655" lon="3.56857">
        <ele>491</ele>
        <time>2019-04-18T08:50:41Z</time>
      </trkpt>
      <trkpt lat="45.86491" lon="3.56839">
        <ele>475</ele>
        <time>2019-04-18T08:51:41Z</time>
      </trkpt>
      <trkpt lat="45.86476" lon="3.5684">
        <ele>473</ele>
        <time>2019-04-18T08:52:41Z</time>
      </trkpt>
      <trkpt lat="45.86463" lon="3.56845">
        <ele>472</ele>
        <time>2019-04-18T08:53:41Z</time>
      </trkpt>
      <trkpt lat="45.86457" lon="3.5685">
        <ele>472</ele>
        <time>2019-04-18T08:54:41Z</time>
      </trkpt>
      <trkpt lat="45.8645" lon="3.56862">
        <ele>473</ele>
        <time>2019-04-18T08:55:41Z</time>
      </trkpt>
      <trkpt lat="45.86445" lon="3.56883">
        <ele>476</ele>
        <time>2019-04-18T08:56:41Z</time>
      </trkpt>
      <trkpt lat="45.86443" lon="3.56931">
        <ele>485</ele>
        <time>2019-04-18T08:57:41Z</time>
      </trkpt>
      <trkpt lat="45.86426" lon="3.57056">
        <ele>495</ele>
        <time>2019-04-18T08:58:41Z</time>
      </trkpt>
      <trkpt lat="45.86422" lon="3.57073">
        <ele>495</ele>
        <time>2019-04-18T08:59:41Z</time>
      </trkpt>
      <trkpt lat="45.86404" lon="3.57109">
        <ele>491</ele>
        <time>2019-04-18T09:00:41Z</time>
      </trkpt>
      <trkpt lat="45.86398" lon="3.57125">
        <ele>491</ele>
        <time>2019-04-18T09:01:41Z</time>
      </trkpt>
      <trkpt lat="45.86394" lon="3.57144">
        <ele>492</ele>
        <time>2019-04-18T09:02:41Z</time>
      </trkpt>
      <trkpt lat="45.86387" lon="3.57237">
        <ele>501</ele>
        <time>2019-04-18T09:03:41Z</time>
      </trkpt>
      <trkpt lat="45.86385" lon="3.57256">
        <ele>502</ele>
        <time>2019-04-18T09:04:41Z</time>
      </trkpt>
      <trkpt lat="45.86374" lon="3.57282">
        <ele>499</ele>
        <time>2019-04-18T09:05:41Z</time>
      </trkpt>
      <trkpt lat="45.86356" lon="3.57317">
        <ele>496</ele>
        <time>2019-04-18T09:06:41Z</time>
      </trkpt>
      <trkpt lat="45.86351" lon="3.57328">
        <ele>495</ele>
        <time>2019-04-18T09:07:41Z</time>
      </trkpt>
      <trkpt lat="45.8635" lon="3.57339">
        <ele>495</ele>
        <time>2019-04-18T09:08:41Z</time>
      </trkpt>
      <trkpt lat="45.86351" lon="3.57351">
        <ele>495</ele>
        <time>2019-04-18T09:09:41Z</time>
      </trkpt>
      <trkpt lat="45.86354" lon="3.57361">
        <ele>496</ele>
        <time>2019-04-18T09:10:41Z</time>
      </trkpt>
      <trkpt lat="45.8636" lon="3.5737">
        <ele>498</ele>
        <time>2019-04-18T09:11:41Z</time>
      </trkpt>
      <trkpt lat="45.86433" lon="3.5745">
        <ele>526</ele>
        <time>2019-04-18T09:12:41Z</time>
      </trkpt>
      <trkpt lat="45.86441" lon="3.57471">
        <ele>527</ele>
        <time>2019-04-18T09:13:41Z</time>
      </trkpt>
      <trkpt lat="45.8644" lon="3.57489">
        <ele>525</ele>
        <time>2019-04-18T09:14:41Z</time>
      </trkpt>
      <trkpt lat="45.86437" lon="3.57497">
        <ele>523</ele>
        <time>2019-04-18T09:15:41Z</time>
      </trkpt>
      <trkpt lat="45.86429" lon="3.57508">
        <ele>520</ele>
        <time>2019-04-18T09:16:41Z</time>
      </trkpt>
      <trkpt lat="45.86417" lon="3.57517">
        <ele>515</ele>
        <time>2019-04-18T09:17:41Z</time>
      </trkpt>
      <trkpt lat="45.86408" lon="3.57528">
        <ele>512</ele>
        <time>2019-04-18T09:18:41Z</time>
      </trkpt>
      <trkpt lat="45.86402" lon="3.57541">
        <ele>510</ele>
        <time>2019-04-18T09:19:41Z</time>
      </trkpt>
      <trkpt lat="45.86398" lon="3.57563">
        <ele>510</ele>
        <time>2019-04-18T09:20:41Z</time>
      </trkpt>
      <trkpt lat="45.86398" lon="3.57587">
        <ele>513</ele>
        <time>2019-04-18T09:21:41Z</time>
      </trkpt>
      <trkpt lat="45.86399" lon="3.57599">
        <ele>514</ele>
        <time>2019-04-18T09:22:41Z</time>
      </trkpt>
      <trkpt lat="45.86407" lon="3.57642">
        <ele>522</ele>
        <time>2019-04-18T09:23:41Z</time>
      </trkpt>
      <trkpt lat="45.86403" lon="3.57707">
        <ele>524</ele>
        <time>2019-04-18T09:24:41Z</time>
      </trkpt>
      <trkpt lat="45.86394" lon="3.57766">
        <ele>521</ele>
        <time>2019-04-18T09:25:41Z</time>
      </trkpt>
      <trkpt lat="45.86395" lon="3.57792">
        <ele>522</ele>
        <time>2019-04-18T09:26:41Z</time>
      </trkpt>
      <trkpt lat="45.864" lon="3.57835">
        <ele>525</ele>
        <time>2019-04-18T09:27:41Z</time>
      </trkpt>
      <trkpt lat="45.86399" lon="3.57868">
        <ele>525</ele>
        <time>2019-04-18T09:28:41Z</time>
      </trkpt>
      <trkpt lat="45.86401" lon="3.57912">
        <ele>527</ele>
        <time>2019-04-18T09:29:41Z</time>
      </trkpt>
      <trkpt lat="45.86398" lon="3.57963">
        <ele>526</ele>
        <time>2019-04-18T09:30:41Z</time>
      </trkpt>
      <trkpt lat="45.86409" lon="3.57996">
        <ele>530</ele>
        <time>2019-04-18T09:31:41Z</time>
      </trkpt>
      <trkpt lat="45.86472" lon="3.58048">
        <ele>539</ele>
        <time>2019-04-18T09:32:41Z</time>
      </trkpt>
      <trkpt lat="45.86478" lon="3.58064">
        <ele>539</ele>
        <time>2019-04-18T09:33:41Z</time>
      </trkpt>
      <trkpt lat="45.86476" lon="3.58099">
        <ele>536</ele>
        <time>2019-04-18T09:34:41Z</time>
      </trkpt>
      <trkpt lat="45.86468" lon="3.58155">
        <ele>531</ele>
        <time>2019-04-18T09:35:41Z</time>
      </trkpt>
      <trkpt lat="45.86468" lon="3.58196">
        <ele>530</ele>
        <time>2019-04-18T09:36:41Z</time>
      </trkpt>
      <trkpt lat="45.86491" lon="3.58312">
        <ele>535</ele>
        <time>2019-04-18T09:37:41Z</time>
      </trkpt>
      <trkpt lat="45.86513" lon="3.58388">
        <ele>540</ele>
        <time>2019-04-18T09:38:41Z</time>
      </trkpt>
      <trkpt lat="45.86541" lon="3.58448">
        <ele>542</ele>
        <time>2019-04-18T09:39:41Z</time>
      </trkpt>
      <trkpt lat="45.86551" lon="3.58462">
        <ele>542</ele>
        <time>2019-04-18T09:40:41Z</time>
      </trkpt>
      <trkpt lat="45.86563" lon="3.58476">
        <ele>542</ele>
        <time>2019-04-18T09:41:41Z</time>
      </trkpt>
      <trkpt lat="45.8659" lon="3.58483">
        <ele>544</ele>
        <time>2019-04-18T09:42:41Z</time>
      </trkpt>
      <trkpt lat="45.866" lon="3.58492">
        <ele>544</ele>
        <time>2019-04-18T09:43:41Z</time>
      </trkpt>
      <trkpt lat="45.86609" lon="3.58504">
        <ele>545</ele>
        <time>2019-04-18T09:44:41Z</time>
      </trkpt>
      <trkpt lat="45.86637" lon="3.58587">
        <ele>543</ele>
        <time>2019-04-18T09:45:41Z</time>
      </trkpt>
      <trkpt lat="45.86647" lon="3.58625">
        <ele>542</ele>
        <time>2019-04-18T09:46:41Z</time>
      </trkpt>
      <trkpt lat="45.86635" lon="3.587">
        <ele>540</ele>
        <time>2019-04-18T09:47:41Z</time>
      </trkpt>
      <trkpt lat="45.86603" lon="3.58751">
        <ele>537</ele>
        <time>2019-04-18T09:48:41Z</time>
      </trkpt>
      <trkpt lat="45.86563" lon="3.5881">
        <ele>534</ele>
        <time>2019-04-18T09:49:41Z</time>
      </trkpt>
      <trkpt lat="45.86555" lon="3.58836">
        <ele>534</ele>
        <time>2019-04-18T09:50:41Z</time>
      </trkpt>
      <trkpt lat="45.86553" lon="3.58854">
        <ele>532</ele>
        <time>2019-04-18T09:51:41Z</time>
      </trkpt>
      <trkpt lat="45.8656" lon="3.58867">
        <ele>531</ele>
        <time>2019-04-18T09:52:41Z</time>
      </trkpt>
      <trkpt lat="45.86569" lon="3.58877">
        <ele>530</ele>
        <time>2019-04-18T09:53:41Z</time>
      </trkpt>
      <trkpt lat="45.86659" lon="3.58928">
        <ele>535</ele>
        <time>2019-04-18T09:54:41Z</time>
      </trkpt>
      <trkpt lat="45.86677" lon="3.58941">
        <ele>536</ele>
        <time>2019-04-18T09:55:41Z</time>
      </trkpt>
      <trkpt lat="45.86688" lon="3.58957">
        <ele>535</ele>
        <time>2019-04-18T09:56:41Z</time>
      </trkpt>
      <trkpt lat="45.86692" lon="3.58973">
        <ele>534</ele>
        <time>2019-04-18T09:57:41Z</time>
      </trkpt>
      <trkpt lat="45.8669" lon="3.58998">
        <ele>532</ele>
        <time>2019-04-18T09:58:41Z</time>
      </trkpt>
      <trkpt lat="45.86659" lon="3.5905">
        <ele>532</ele>
        <time>2019-04-18T09:59:41Z</time>
      </trkpt>
      <trkpt lat="45.86656" lon="3.59075">
        <ele>534</ele>
        <time>2019-04-18T10:00:41Z</time>
      </trkpt>
      <trkpt lat="45.86657" lon="3.59105">
        <ele>535</ele>
        <time>2019-04-18T10:01:41Z</time>
      </trkpt>
      <trkpt lat="45.86661" lon="3.59121">
        <ele>534</ele>
        <time>2019-04-18T10:02:41Z</time>
      </trkpt>
      <trkpt lat="45.8667" lon="3.59134">
        <ele>533</ele>
        <time>2019-04-18T10:03:41Z</time>
      </trkpt>
      <trkpt lat="45.86676" lon="3.59138">
        <ele>533</ele>
        <time>2019-04-18T10:04:41Z</time>
      </trkpt>
      <trkpt lat="45.86714" lon="3.59141">
        <ele>537</ele>
        <time>2019-04-18T10:05:41Z</time>
      </trkpt>
      <trkpt lat="45.86727" lon="3.59145">
        <ele>538</ele>
        <time>2019-04-18T10:06:41Z</time>
      </trkpt>
      <trkpt lat="45.86738" lon="3.59154">
        <ele>538</ele>
        <time>2019-04-18T10:07:41Z</time>
      </trkpt>
      <trkpt lat="45.86751" lon="3.59176">
        <ele>537</ele>
        <time>2019-04-18T10:08:41Z</time>
      </trkpt>
      <trkpt lat="45.86762" lon="3.59201">
        <ele>540</ele>
        <time>2019-04-18T10:09:41Z</time>
      </trkpt>
      <trkpt lat="45.86785" lon="3.5926">
        <ele>544</ele>
        <time>2019-04-18T10:10:41Z</time>
      </trkpt>
      <trkpt lat="45.86805" lon="3.59321">
        <ele>542</ele>
        <time>2019-04-18T10:11:41Z</time>
      </trkpt>
      <trkpt lat="45.86818" lon="3.59374">
        <ele>540</ele>
        <time>2019-04-18T10:12:41Z</time>
      </trkpt>
      <trkpt lat="45.86819" lon="3.59403">
        <ele>539</ele>
        <time>2019-04-18T10:13:41Z</time>
      </trkpt>
      <trkpt lat="45.86816" lon="3.59427">
        <ele>539</ele>
        <time>2019-04-18T10:14:41Z</time>
      </trkpt>
      <trkpt lat="45.8681" lon="3.59454">
        <ele>538</ele>
        <time>2019-04-18T10:15:41Z</time>
      </trkpt>
      <trkpt lat="45.86806" lon="3.59488">
        <ele>537</ele>
        <time>2019-04-18T10:16:41Z</time>
      </trkpt>
      <trkpt lat="45.86808" lon="3.59506">
        <ele>536</ele>
        <time>2019-04-18T10:17:41Z</time>
      </trkpt>
      <trkpt lat="45.86813" lon="3.59522">
        <ele>535</ele>
        <time>2019-04-18T10:18:41Z</time>
      </trkpt>
      <trkpt lat="45.86822" lon="3.59538">
        <ele>534</ele>
        <time>2019-04-18T10:19:41Z</time>
      </trkpt>
      <trkpt lat="45.86852" lon="3.59577">
        <ele>533</ele>
        <time>2019-04-18T10:20:41Z</time>
      </trkpt>
      <trkpt lat="45.8686" lon="3.59593">
        <ele>533</ele>
        <time>2019-04-18T10:21:41Z</time>
      </trkpt>
      <trkpt lat="45.86868" lon="3.59628">
        <ele>533</ele>
        <time>2019-04-18T10:22:41Z</time>
      </trkpt>
      <trkpt lat="45.86923" lon="3.5994">
        <ele>535</ele>
        <time>2019-04-18T10:23:41Z</time>
      </trkpt>
      <trkpt lat="45.86923" lon="3.59963">
        <ele>536</ele>
        <time>2019-04-18T10:24:41Z</time>
      </trkpt>
      <trkpt lat="45.86913" lon="3.60028">
        <ele>539</ele>
        <time>2019-04-18T10:25:41Z</time>
      </trkpt>
      <trkpt lat="45.86912" lon="3.6005">
        <ele>540</ele>
        <time>2019-04-18T10:26:41Z</time>
      </trkpt>
      <trkpt lat="45.86915" lon="3.60092">
        <ele>542</ele>
        <time>2019-04-18T10:27:41Z</time>
      </trkpt>
      <trkpt lat="45.86915" lon="3.60112">
        <ele>544</ele>
        <time>2019-04-18T10:28:41Z</time>
      </trkpt>
      <trkpt lat="45.86911" lon="3.60132">
        <ele>545</ele>
        <time>2019-04-18T10:29:41Z</time>
      </trkpt>
      <trkpt lat="45.86905" lon="3.6015">
        <ele>547</ele>
        <time>2019-04-18T10:30:41Z</time>
      </trkpt>
      <trkpt lat="45.86846" lon="3.60253">
        <ele>544</ele>
        <time>2019-04-18T10:31:41Z</time>
      </trkpt>
      <trkpt lat="45.8684" lon="3.60276">
        <ele>544</ele>
        <time>2019-04-18T10:32:41Z</time>
      </trkpt>
      <trkpt lat="45.86839" lon="3.60288">
        <ele>544</ele>
        <time>2019-04-18T10:33:41Z</time>
      </trkpt>
      <trkpt lat="45.86844" lon="3.6034">
        <ele>546</ele>
        <time>2019-04-18T10:34:41Z</time>
      </trkpt>
      <trkpt lat="45.86854" lon="3.60396">
        <ele>546</ele>
        <time>2019-04-18T10:35:41Z</time>
      </trkpt>
      <trkpt lat="45.86868" lon="3.6045">
        <ele>546</ele>
        <time>2019-04-18T10:36:41Z</time>
      </trkpt>
      <trkpt lat="45.86909" lon="3.60538">
        <ele>546</ele>
        <time>2019-04-18T10:37:41Z</time>
      </trkpt>
      <trkpt lat="45.86928" lon="3.60585">
        <ele>546</ele>
        <time>2019-04-18T10:38:41Z</time>
      </trkpt>
      <trkpt lat="45.86938" lon="3.60618">
        <ele>545</ele>
        <time>2019-04-18T10:39:41Z</time>
      </trkpt>
      <trkpt lat="45.86961" lon="3.60654">
        <ele>545</ele>
        <time>2019-04-18T10:40:41Z</time>
      </trkpt>
      <trkpt lat="45.86967" lon="3.60674">
        <ele>544</ele>
        <time>2019-04-18T10:41:41Z</time>
      </trkpt>
      <trkpt lat="45.86976" lon="3.60709">
        <ele>545</ele>
        <time>2019-04-18T10:42:41Z</time>
      </trkpt>
      <trkpt lat="45.86998" lon="3.60878">
        <ele>547</ele>
        <time>2019-04-18T10:43:41Z</time>
      </trkpt>
      <trkpt lat="45.86998" lon="3.6092">
        <ele>548</ele>
        <time>2019-04-18T10:44:41Z</time>
      </trkpt>
      <trkpt lat="45.86992" lon="3.60964">
        <ele>550</ele>
        <time>2019-04-18T10:45:41Z</time>
      </trkpt>
      <trkpt lat="45.8699" lon="3.60989">
        <ele>550</ele>
        <time>2019-04-18T10:46:41Z</time>
      </trkpt>
      <trkpt lat="45.87001" lon="3.61052">
        <ele>552</ele>
        <time>2019-04-18T10:47:41Z</time>
      </trkpt>
      <trkpt lat="45.8702" lon="3.61098">
        <ele>558</ele>
        <time>2019-04-18T10:48:41Z</time>
      </trkpt>
      <trkpt lat="45.87031" lon="3.61118">
        <ele>560</ele>
        <time>2019-04-18T10:49:41Z</time>
      </trkpt>
      <trkpt lat="45.87045" lon="3.61138">
        <ele>563</ele>
        <time>2019-04-18T10:50:41Z</time>
      </trkpt>
      <trkpt lat="45.87065" lon="3.61162">
        <ele>565</ele>
        <time>2019-04-18T10:51:41Z</time>
      </trkpt>
      <trkpt lat="45.87071" lon="3.61174">
        <ele>566</ele>
        <time>2019-04-18T10:52:41Z</time>
      </trkpt>
      <trkpt lat="45.87077" lon="3.61206">
        <ele>566</ele>
        <time>2019-04-18T10:53:41Z</time>
      </trkpt>
      <trkpt lat="45.87075" lon="3.61227">
        <ele>566</ele>
        <time>2019-04-18T10:54:41Z</time>
      </trkpt>
      <trkpt lat="45.87057" lon="3.61323">
        <ele>571</ele>
        <time>2019-04-18T10:55:41Z</time>
      </trkpt>
      <trkpt lat="45.87055" lon="3.61342">
        <ele>572</ele>
        <time>2019-04-18T10:56:41Z</time>
      </trkpt>
      <trkpt lat="45.87055" lon="3.61359">
        <ele>572</ele>
        <time>2019-04-18T10:57:41Z</time>
      </trkpt>
      <trkpt lat="45.87058" lon="3.61389">
        <ele>572</ele>
        <time>2019-04-18T10:58:41Z</time>
      </trkpt>
      <trkpt lat="45.87062" lon="3.6141">
        <ele>572</ele>
        <time>2019-04-18T10:59:41Z</time>
      </trkpt>
      <trkpt lat="45.87091" lon="3.61498">
        <ele>566</ele>
        <time>2019-04-18T11:00:41Z</time>
      </trkpt>
      <trkpt lat="45.87096" lon="3.61537">
        <ele>569</ele>
        <time>2019-04-18T11:01:41Z</time>
      </trkpt>
      <trkpt lat="45.87111" lon="3.61687">
        <ele>574</ele>
        <time>2019-04-18T11:02:41Z</time>
      </trkpt>
      <trkpt lat="45.87119" lon="3.6183">
        <ele>574</ele>
        <time>2019-04-18T11:03:41Z</time>
      </trkpt>
      <trkpt lat="45.87123" lon="3.61857">
        <ele>574</ele>
        <time>2019-04-18T11:04:41Z</time>
      </trkpt>
      <trkpt lat="45.87134" lon="3.61896">
        <ele>573</ele>
        <time>2019-04-18T11:05:41Z</time>
      </trkpt>
      <trkpt lat="45.87142" lon="3.61932">
        <ele>572</ele>
        <time>2019-04-18T11:06:41Z</time>
      </trkpt>
      <trkpt lat="45.87149" lon="3.61991">
        <ele>570</ele>
        <time>2019-04-18T11:07:41Z</time>
      </trkpt>
      <trkpt lat="45.87149" lon="3.62012">
        <ele>569</ele>
        <time>2019-04-18T11:08:41Z</time>
      </trkpt>
      <trkpt lat="45.87144" lon="3.62031">
        <ele>569</ele>
        <time>2019-04-18T11:09:41Z</time>
      </trkpt>
      <trkpt lat="45.87126" lon="3.62071">
        <ele>566</ele>
        <time>2019-04-18T11:10:41Z</time>
      </trkpt>
      <trkpt lat="45.87118" lon="3.62093">
        <ele>565</ele>
        <time>2019-04-18T11:11:41Z</time>
      </trkpt>
      <trkpt lat="45.87104" lon="3.62149">
        <ele>564</ele>
        <time>2019-04-18T11:12:41Z</time>
      </trkpt>
      <trkpt lat="45.87086" lon="3.62194">
        <ele>561</ele>
        <time>2019-04-18T11:13:41Z</time>
      </trkpt>
      <trkpt lat="45.87083" lon="3.62208">
        <ele>561</ele>
        <time>2019-04-18T11:14:41Z</time>
      </trkpt>
      <trkpt lat="45.87083" lon="3.62228">
        <ele>562</ele>
        <time>2019-04-18T11:15:41Z</time>
      </trkpt>
      <trkpt lat="45.87087" lon="3.62267">
        <ele>563</ele>
        <time>2019-04-18T11:16:41Z</time>
      </trkpt>
      <trkpt lat="45.87103" lon="3.6236">
        <ele>565</ele>
        <time>2019-04-18T11:17:41Z</time>
      </trkpt>
      <trkpt lat="45.87106" lon="3.62404">
        <ele>565</ele>
        <time>2019-04-18T11:18:41Z</time>
      </trkpt>
      <trkpt lat="45.87099" lon="3.62471">
        <ele>563</ele>
        <time>2019-04-18T11:19:41Z</time>
      </trkpt>
      <trkpt lat="45.87101" lon="3.62515">
        <ele>563</ele>
        <time>2019-04-18T11:20:41Z</time>
      </trkpt>
      <trkpt lat="45.87106" lon="3.62538">
        <ele>564</ele>
        <time>2019-04-18T11:21:41Z</time>
      </trkpt>
      <trkpt lat="45.8713" lon="3.62584">
        <ele>568</ele>
        <time>2019-04-18T11:22:41Z</time>
      </trkpt>
      <trkpt lat="45.87137" lon="3.62601">
        <ele>569</ele>
        <time>2019-04-18T11:23:41Z</time>
      </trkpt>
      <trkpt lat="45.87142" lon="3.62621">
        <ele>571</ele>
        <time>2019-04-18T11:24:41Z</time>
      </trkpt>
      <trkpt lat="45.87147" lon="3.62654">
        <ele>573</ele>
        <time>2019-04-18T11:25:41Z</time>
      </trkpt>
      <trkpt lat="45.87149" lon="3.62675">
        <ele>574</ele>
        <time>2019-04-18T11:26:41Z</time>
      </trkpt>
      <trkpt lat="45.87147" lon="3.62694">
        <ele>576</ele>
        <time>2019-04-18T11:27:41Z</time>
      </trkpt>
      <trkpt lat="45.87139" lon="3.62721">
        <ele>577</ele>
        <time>2019-04-18T11:28:41Z</time>
      </trkpt>
      <trkpt lat="45.87131" lon="3.62735">
        <ele>576</ele>
        <time>2019-04-18T11:29:41Z</time>
      </trkpt>
      <trkpt lat="45.87122" lon="3.62743">
        <ele>575</ele>
        <time>2019-04-18T11:30:41Z</time>
      </trkpt>
      <trkpt lat="45.87117" lon="3.62748">
        <ele>574</ele>
        <time>2019-04-18T11:31:41Z</time>
      </trkpt>
      <trkpt lat="45.8706" lon="3.62761">
        <ele>567</ele>
        <time>2019-04-18T11:32:41Z</time>
      </trkpt>
      <trkpt lat="45.87051" lon="3.62765">
        <ele>568</ele>
        <time>2019-04-18T11:33:41Z</time>
      </trkpt>
      <trkpt lat="45.87045" lon="3.62772">
        <ele>568</ele>
        <time>2019-04-18T11:34:41Z</time>
      </trkpt>
      <trkpt lat="45.8704" lon="3.62782">
        <ele>568</ele>
        <time>2019-04-18T11:35:41Z</time>
      </trkpt>
      <trkpt lat="45.87033" lon="3.62792">
        <ele>569</ele>
        <time>2019-04-18T11:36:41Z</time>
      </trkpt>
      <trkpt lat="45.87018" lon="3.62796">
        <ele>568</ele>
        <time>2019-04-18T11:37:41Z</time>
      </trkpt>
      <trkpt lat="45.87011" lon="3.62802">
        <ele>568</ele>
        <time>2019-04-18T11:38:41Z</time>
      </trkpt>
      <trkpt lat="45.87005" lon="3.6281">
        <ele>568</ele>
        <time>2019-04-18T11:39:41Z</time>
      </trkpt>
      <trkpt lat="45.87002" lon="3.62821">
        <ele>567</ele>
        <time>2019-04-18T11:40:41Z</time>
      </trkpt>
      <trkpt lat="45.87002" lon="3.62848">
        <ele>569</ele>
        <time>2019-04-18T11:41:41Z</time>
      </trkpt>
      <trkpt lat="45.86999" lon="3.62864">
        <ele>570</ele>
        <time>2019-04-18T11:42:41Z</time>
      </trkpt>
      <trkpt lat="45.86934" lon="3.62989">
        <ele>572</ele>
        <time>2019-04-18T11:43:41Z</time>
      </trkpt>
      <trkpt lat="45.86918" lon="3.63012">
        <ele>572</ele>
        <time>2019-04-18T11:44:41Z</time>
      </trkpt>
      <trkpt lat="45.86852" lon="3.63085">
        <ele>575</ele>
        <time>2019-04-18T11:45:41Z</time>
      </trkpt>
      <trkpt lat="45.86837" lon="3.63104">
        <ele>574</ele>
        <time>2019-04-18T11:46:41Z</time>
      </trkpt>
      <trkpt lat="45.86828" lon="3.63124">
        <ele>573</ele>
        <time>2019-04-18T11:47:41Z</time>
      </trkpt>
      <trkpt lat="45.86824" lon="3.63146">
        <ele>573</ele>
        <time>2019-04-18T11:48:41Z</time>
      </trkpt>
      <trkpt lat="45.86825" lon="3.63167">
        <ele>574</ele>
        <time>2019-04-18T11:49:41Z</time>
      </trkpt>
      <trkpt lat="45.86859" lon="3.63362">
        <ele>577</ele>
        <time>2019-04-18T11:50:41Z</time>
      </trkpt>
      <trkpt lat="45.8686" lon="3.63411">
        <ele>576</ele>
        <time>2019-04-18T11:51:41Z</time>
      </trkpt>
      <trkpt lat="45.86855" lon="3.63465">
        <ele>574</ele>
        <time>2019-04-18T11:52:41Z</time>
      </trkpt>
      <trkpt lat="45.86847" lon="3.63505">
        <ele>573</ele>
        <time>2019-04-18T11:53:41Z</time>
      </trkpt>
      <trkpt lat="45.86841" lon="3.63522">
        <ele>573</ele>
        <time>2019-04-18T11:54:41Z</time>
      </trkpt>
      <trkpt lat="45.86834" lon="3.6354">
        <ele>573</ele>
        <time>2019-04-18T11:55:41Z</time>
      </trkpt>
      <trkpt lat="45.86816" lon="3.63571">
        <ele>573</ele>
        <time>2019-04-18T11:56:41Z</time>
      </trkpt>
      <trkpt lat="45.86784" lon="3.63612">
        <ele>574</ele>
        <time>2019-04-18T11:57:41Z</time>
      </trkpt>
      <trkpt lat="45.86771" lon="3.63634">
        <ele>575</ele>
        <time>2019-04-18T11:58:41Z</time>
      </trkpt>
      <trkpt lat="45.86765" lon="3.63651">
        <ele>575</ele>
        <time>2019-04-18T11:59:41Z</time>
      </trkpt>
      <trkpt lat="45.86757" lon="3.63683">
        <ele>575</ele>
        <time>2019-04-18T12:00:41Z</time>
      </trkpt>
      <trkpt lat="45.86757" lon="3.63708">
        <ele>576</ele>
        <time>2019-04-18T12:01:41Z</time>
      </trkpt>
      <trkpt lat="45.86762" lon="3.63734">
        <ele>578</ele>
        <time>2019-04-18T12:02:41Z</time>
      </trkpt>
      <trkpt lat="45.86775" lon="3.63774">
        <ele>582</ele>
        <time>2019-04-18T12:03:41Z</time>
      </trkpt>
      <trkpt lat="45.86779" lon="3.63809">
        <ele>584</ele>
        <time>2019-04-18T12:04:41Z</time>
      </trkpt>
      <trkpt lat="45.86778" lon="3.63815">
        <ele>584</ele>
        <time>2019-04-18T12:05:41Z</time>
      </trkpt>
      <trkpt lat="45.86773" lon="3.63842">
        <ele>585</ele>
        <time>2019-04-18T12:06:41Z</time>
      </trkpt>
      <trkpt lat="45.86764" lon="3.63861">
        <ele>585</ele>
        <time>2019-04-18T12:07:41Z</time>
      </trkpt>
      <trkpt lat="45.86729" lon="3.63918">
        <ele>585</ele>
        <time>2019-04-18T12:08:41Z</time>
      </trkpt>
      <trkpt lat="45.86717" lon="3.63949">
        <ele>584</ele>
        <time>2019-04-18T12:09:41Z</time>
      </trkpt>
      <trkpt lat="45.86715" lon="3.63985">
        <ele>585</ele>
        <time>2019-04-18T12:10:41Z</time>
      </trkpt>
      <trkpt lat="45.86718" lon="3.6401">
        <ele>586</ele>
        <time>2019-04-18T12:11:41Z</time>
      </trkpt>
      <trkpt lat="45.86725" lon="3.64033">
        <ele>587</ele>
        <time>2019-04-18T12:12:41Z</time>
      </trkpt>
      <trkpt lat="45.8676" lon="3.64121">
        <ele>591</ele>
        <time>2019-04-18T12:13:41Z</time>
      </trkpt>
      <trkpt lat="45.86765" lon="3.64156">
        <ele>591</ele>
        <time>2019-04-18T12:14:41Z</time>
      </trkpt>
      <trkpt lat="45.86763" lon="3.64185">
        <ele>590</ele>
        <time>2019-04-18T12:15:41Z</time>
      </trkpt>
      <trkpt lat="45.86757" lon="3.6421">
        <ele>589</ele>
        <time>2019-04-18T12:16:41Z</time>
      </trkpt>
      <trkpt lat="45.8673" lon="3.64259">
        <ele>585</ele>
        <time>2019-04-18T12:17:41Z</time>
      </trkpt>
      <trkpt lat="45.8672" lon="3.64285">
        <ele>585</ele>
        <time>2019-04-18T12:18:41Z</time>
      </trkpt>
      <trkpt lat="45.86714" lon="3.64305">
        <ele>585</ele>
        <time>2019-04-18T12:19:41Z</time>
      </trkpt>
      <trkpt lat="45.86705" lon="3.64357">
        <ele>585</ele>
        <time>2019-04-18T12:20:41Z</time>
      </trkpt>
      <trkpt lat="45.86683" lon="3.6443">
        <ele>582</ele>
        <time>2019-04-18T12:21:41Z</time>
      </trkpt>
      <trkpt lat="45.8668" lon="3.64449">
        <ele>581</ele>
        <time>2019-04-18T12:22:41Z</time>
      </trkpt>
      <trkpt lat="45.86676" lon="3.64523">
        <ele>580</ele>
        <time>2019-04-18T12:23:41Z</time>
      </trkpt>
      <trkpt lat="45.86669" lon="3.64573">
        <ele>579</ele>
        <time>2019-04-18T12:24:41Z</time>
      </trkpt>
      <trkpt lat="45.86668" lon="3.64602">
        <ele>579</ele>
        <time>2019-04-18T12:25:41Z</time>
      </trkpt>
      <trkpt lat="45.86672" lon="3.64626">
        <ele>580</ele>
        <time>2019-04-18T12:26:41Z</time>
      </trkpt>
      <trkpt lat="45.86679" lon="3.64651">
        <ele>581</ele>
        <time>2019-04-18T12:27:41Z</time>
      </trkpt>
      <trkpt lat="45.86702" lon="3.64711">
        <ele>583</ele>
        <time>2019-04-18T12:28:41Z</time>
      </trkpt>
      <trkpt lat="45.86708" lon="3.64768">
        <ele>584</ele>
        <time>2019-04-18T12:29:41Z</time>
      </trkpt>
      <trkpt lat="45.86717" lon="3.64827">
        <ele>585</ele>
        <time>2019-04-18T12:30:41Z</time>
      </trkpt>
      <trkpt lat="45.86745" lon="3.649">
        <ele>586</ele>
        <time>2019-04-18T12:31:41Z</time>
      </trkpt>
      <trkpt lat="45.86753" lon="3.64934">
        <ele>585</ele>
        <time>2019-04-18T12:32:41Z</time>
      </trkpt>
      <trkpt lat="45.86761" lon="3.64989">
        <ele>586</ele>
        <time>2019-04-18T12:33:41Z</time>
      </trkpt>
      <trkpt lat="45.86764" lon="3.65018">
        <ele>587</ele>
        <time>2019-04-18T12:34:41Z</time>
      </trkpt>
      <trkpt lat="45.86747" lon="3.65091">
        <ele>586</ele>
        <time>2019-04-18T12:35:41Z</time>
      </trkpt>
      <trkpt lat="45.86745" lon="3.65109">
        <ele>585</ele>
        <time>2019-04-18T12:36:41Z</time>
      </trkpt>
      <trkpt lat="45.86746" lon="3.65129">
        <ele>585</ele>
        <time>2019-04-18T12:37:41Z</time>
      </trkpt>
      <trkpt lat="45.86752" lon="3.6515">
        <ele>585</ele>
        <time>2019-04-18T12:38:41Z</time>
      </trkpt>
      <trkpt lat="45.86764" lon="3.65169">
        <ele>586</ele>
        <time>2019-04-18T12:39:41Z</time>
      </trkpt>
      <trkpt lat="45.86809" lon="3.65221">
        <ele>588</ele>
        <time>2019-04-18T12:40:41Z</time>
      </trkpt>
      <trkpt lat="45.86822" lon="3.65246">
        <ele>587</ele>
        <time>2019-04-18T12:41:41Z</time>
      </trkpt>
      <trkpt lat="45.86841" lon="3.65309">
        <ele>586</ele>
        <time>2019-04-18T12:42:41Z</time>
      </trkpt>
      <trkpt lat="45.86852" lon="3.65326">
        <ele>586</ele>
        <time>2019-04-18T12:43:41Z</time>
      </trkpt>
      <trkpt lat="45.86868" lon="3.65343">
        <ele>586</ele>
        <time>2019-04-18T12:44:41Z</time>
      </trkpt>
      <trkpt lat="45.86886" lon="3.65354">
        <ele>587</ele>
        <time>2019-04-18T12:45:41Z</time>
      </trkpt>
      <trkpt lat="45.86899" lon="3.6536">
        <ele>587</ele>
        <time>2019-04-18T12:46:41Z</time>
      </trkpt>
      <trkpt lat="45.86951" lon="3.65358">
        <ele>589</ele>
        <time>2019-04-18T12:47:41Z</time>
      </trkpt>
      <trkpt lat="45.86969" lon="3.6536">
        <ele>590</ele>
        <time>2019-04-18T12:48:41Z</time>
      </trkpt>
      <trkpt lat="45.86984" lon="3.65368">
        <ele>590</ele>
        <time>2019-04-18T12:49:41Z</time>
      </trkpt>
      <trkpt lat="45.86992" lon="3.65381">
        <ele>590</ele>
        <time>2019-04-18T12:50:41Z</time>
      </trkpt>
      <trkpt lat="45.87002" lon="3.65408">
        <ele>589</ele>
        <time>2019-04-18T12:51:41Z</time>
      </trkpt>
      <trkpt lat="45.8701" lon="3.65432">
        <ele>589</ele>
        <time>2019-04-18T12:52:41Z</time>
      </trkpt>
      <trkpt lat="45.87046" lon="3.65483">
        <ele>591</ele>
        <time>2019-04-18T12:53:41Z</time>
      </trkpt>
      <trkpt lat="45.87059" lon="3.6551">
        <ele>591</ele>
        <time>2019-04-18T12:54:41Z</time>
      </trkpt>
      <trkpt lat="45.87073" lon="3.65549">
        <ele>591</ele>
        <time>2019-04-18T12:55:41Z</time>
      </trkpt>
      <trkpt lat="45.87135" lon="3.65833">
        <ele>588</ele>
        <time>2019-04-18T12:56:41Z</time>
      </trkpt>
      <trkpt lat="45.87138" lon="3.65855">
        <ele>589</ele>
        <time>2019-04-18T12:57:41Z</time>
      </trkpt>
      <trkpt lat="45.87135" lon="3.65896">
        <ele>591</ele>
        <time>2019-04-18T12:58:41Z</time>
      </trkpt>
      <trkpt lat="45.87125" lon="3.65994">
        <ele>591</ele>
        <time>2019-04-18T12:59:41Z</time>
      </trkpt>
      <trkpt lat="45.87124" lon="3.66035">
        <ele>591</ele>
        <time>2019-04-18T13:00:41Z</time>
      </trkpt>
      <trkpt lat="45.87174" lon="3.66323">
        <ele>593</ele>
        <time>2019-04-18T13:01:41Z</time>
      </trkpt>
      <trkpt lat="45.87177" lon="3.66359">
        <ele>594</ele>
        <time>2019-04-18T13:02:41Z</time>
      </trkpt>
      <trkpt lat="45.87178" lon="3.66399">
        <ele>595</ele>
        <time>2019-04-18T13:03:41Z</time>
      </trkpt>
      <trkpt lat="45.87177" lon="3.66498">
        <ele>592</ele>
        <time>2019-04-18T13:04:41Z</time>
      </trkpt>
      <trkpt lat="45.87219" lon="3.66857">
        <ele>592</ele>
        <time>2019-04-18T13:05:41Z</time>
      </trkpt>
      <trkpt lat="45.87232" lon="3.66981">
        <ele>594</ele>
        <time>2019-04-18T13:06:41Z</time>
      </trkpt>
      <trkpt lat="45.87242" lon="3.67093">
        <ele>595</ele>
        <time>2019-04-18T13:07:41Z</time>
      </trkpt>
      <trkpt lat="45.87243" lon="3.67157">
        <ele>594</ele>
        <time>2019-04-18T13:08:41Z</time>
      </trkpt>
      <trkpt lat="45.87238" lon="3.67216">
        <ele>595</ele>
        <time>2019-04-18T13:09:41Z</time>
      </trkpt>
      <trkpt lat="45.87224" lon="3.6733">
        <ele>595</ele>
        <time>2019-04-18T13:10:41Z</time>
      </trkpt>
      <trkpt lat="45.87224" lon="3.67396">
        <ele>596</ele>
        <time>2019-04-18T13:11:41Z</time>
      </trkpt>
      <trkpt lat="45.87231" lon="3.67454">
        <ele>596</ele>
        <time>2019-04-18T13:12:41Z</time>
      </trkpt>
      <trkpt lat="45.87243" lon="3.67508">
        <ele>597</ele>
        <time>2019-04-18T13:13:41Z</time>
      </trkpt>
      <trkpt lat="45.87267" lon="3.67574">
        <ele>597</ele>
        <time>2019-04-18T13:14:41Z</time>
      </trkpt>
      <trkpt lat="45.87293" lon="3.67623">
        <ele>598</ele>
        <time>2019-04-18T13:15:41Z</time>
      </trkpt>
      <trkpt lat="45.87317" lon="3.67658">
        <ele>599</ele>
        <time>2019-04-18T13:16:41Z</time>
      </trkpt>
      <trkpt lat="45.87357" lon="3.67702">
        <ele>600</ele>
        <time>2019-04-18T13:17:41Z</time>
      </trkpt>
      <trkpt lat="45.87454" lon="3.67775">
        <ele>604</ele>
        <time>2019-04-18T13:18:41Z</time>
      </trkpt>
      <trkpt lat="45.87517" lon="3.67835">
        <ele>604</ele>
        <time>2019-04-18T13:19:41Z</time>
      </trkpt>
      <trkpt lat="45.87561" lon="3.67899">
        <ele>605</ele>
        <time>2019-04-18T13:20:41Z</time>
      </trkpt>
      <trkpt lat="45.87589" lon="3.67948">
        <ele>605</ele>
        <time>2019-04-18T13:21:41Z</time>
      </trkpt>
      <trkpt lat="45.87662" lon="3.68033">
        <ele>610</ele>
        <time>2019-04-18T13:22:41Z</time>
      </trkpt>
      <trkpt lat="45.87735" lon="3.68103">
        <ele>608</ele>
        <time>2019-04-18T13:23:41Z</time>
      </trkpt>
      <trkpt lat="45.87756" lon="3.68129">
        <ele>606</ele>
        <time>2019-04-18T13:24:41Z</time>
      </trkpt>
      <trkpt lat="45.87772" lon="3.68155">
        <ele>603</ele>
        <time>2019-04-18T13:25:41Z</time>
      </trkpt>
      <trkpt lat="45.87789" lon="3.68196">
        <ele>603</ele>
        <time>2019-04-18T13:26:41Z</time>
      </trkpt>
      <trkpt lat="45.87798" lon="3.68286">
        <ele>605</ele>
        <time>2019-04-18T13:27:41Z</time>
      </trkpt>
      <trkpt lat="45.87797" lon="3.68326">
        <ele>607</ele>
        <time>2019-04-18T13:28:41Z</time>
      </trkpt>
      <trkpt lat="45.87787" lon="3.68466">
        <ele>611</ele>
        <time>2019-04-18T13:29:41Z</time>
      </trkpt>
      <trkpt lat="45.87789" lon="3.68495">
        <ele>612</ele>
        <time>2019-04-18T13:30:41Z</time>
      </trkpt>
      <trkpt lat="45.87797" lon="3.68524">
        <ele>611</ele>
        <time>2019-04-18T13:31:41Z</time>
      </trkpt>
      <trkpt lat="45.87839" lon="3.68626">
        <ele>609</ele>
        <time>2019-04-18T13:32:41Z</time>
      </trkpt>
      <trkpt lat="45.87845" lon="3.68652">
        <ele>609</ele>
        <time>2019-04-18T13:33:41Z</time>
      </trkpt>
      <trkpt lat="45.87847" lon="3.68689">
        <ele>609</ele>
        <time>2019-04-18T13:34:41Z</time>
      </trkpt>
      <trkpt lat="45.87843" lon="3.68724">
        <ele>609</ele>
        <time>2019-04-18T13:35:41Z</time>
      </trkpt>
      <trkpt lat="45.8783" lon="3.68807">
        <ele>611</ele>
        <time>2019-04-18T13:36:41Z</time>
      </trkpt>
      <trkpt lat="45.87829" lon="3.68826">
        <ele>612</ele>
        <time>2019-04-18T13:37:41Z</time>
      </trkpt>
      <trkpt lat="45.87829" lon="3.68846">
        <ele>612</ele>
        <time>2019-04-18T13:38:41Z</time>
      </trkpt>
      <trkpt lat="45.87837" lon="3.68874">
        <ele>612</ele>
        <time>2019-04-18T13:39:41Z</time>
      </trkpt>
      <trkpt lat="45.8786" lon="3.68914">
        <ele>615</ele>
        <time>2019-04-18T13:40:41Z</time>
      </trkpt>
      <trkpt lat="45.8787" lon="3.68941">
        <ele>617</ele>
        <time>2019-04-18T13:41:41Z</time>
      </trkpt>
      <trkpt lat="45.87879" lon="3.69002">
        <ele>619</ele>
        <time>2019-04-18T13:42:41Z</time>
      </trkpt>
      <trkpt lat="45.87912" lon="3.69289">
        <ele>620</ele>
        <time>2019-04-18T13:43:41Z</time>
      </trkpt>
      <trkpt lat="45.87933" lon="3.69445">
        <ele>620</ele>
        <time>2019-04-18T13:44:41Z</time>
      </trkpt>
      <trkpt lat="45.87935" lon="3.6957">
        <ele>620</ele>
        <time>2019-04-18T13:45:41Z</time>
      </trkpt>
      <trkpt lat="45.87932" lon="3.69587">
        <ele>620</ele>
        <time>2019-04-18T13:46:41Z</time>
      </trkpt>
      <trkpt lat="45.87935" lon="3.69607">
        <ele>621</ele>
        <time>2019-04-18T13:47:41Z</time>
      </trkpt>
      <trkpt lat="45.87936" lon="3.69661">
        <ele>624</ele>
        <time>2019-04-18T13:48:41Z</time>
      </trkpt>
      <trkpt lat="45.8794" lon="3.69731">
        <ele>627</ele>
        <time>2019-04-18T13:49:41Z</time>
      </trkpt>
      <trkpt lat="45.87948" lon="3.69769">
        <ele>629</ele>
        <time>2019-04-18T13:50:41Z</time>
      </trkpt>
      <trkpt lat="45.87983" lon="3.69952">
        <ele>634</ele>
        <time>2019-04-18T13:51:41Z</time>
      </trkpt>
      <trkpt lat="45.87996" lon="3.70079">
        <ele>641</ele>
        <time>2019-04-18T13:52:41Z</time>
      </trkpt>
      <trkpt lat="45.88028" lon="3.70285">
        <ele>649</ele>
        <time>2019-04-18T13:53:41Z</time>
      </trkpt>
      <trkpt lat="45.881" lon="3.70449">
        <ele>656</ele>
        <time>2019-04-18T13:54:41Z</time>
      </trkpt>
      <trkpt lat="45.88128" lon="3.70526">
        <ele>661</ele>
        <time>2019-04-18T13:55:41Z</time>
      </trkpt>
      <trkpt lat="45.88145" lon="3.70586">
        <ele>665</ele>
        <time>2019-04-18T13:56:41Z</time>
      </trkpt>
      <trkpt lat="45.883" lon="3.71867">
        <ele>732</ele>
        <time>2019-04-18T13:57:41Z</time>
      </trkpt>
      <trkpt lat="45.88331" lon="3.7209">
        <ele>748</ele>
        <time>2019-04-18T13:58:41Z</time>
      </trkpt>
      <trkpt lat="45.88341" lon="3.7215">
        <ele>751</ele>
        <time>2019-04-18T13:59:41Z</time>
      </trkpt>
      <trkpt lat="45.88367" lon="3.72241">
        <ele>759</ele>
        <time>2019-04-18T14:00:41Z</time>
      </trkpt>
      <trkpt lat="45.88371" lon="3.72279">
        <ele>760</ele>
        <time>2019-04-18T14:01:41Z</time>
      </trkpt>
      <trkpt lat="45.8835" lon="3.72731">
        <ele>785</ele>
        <time>2019-04-18T14:02:41Z</time>
      </trkpt>
      <trkpt lat="45.88349" lon="3.72792">
        <ele>784</ele>
        <time>2019-04-18T14:03:41Z</time>
      </trkpt>
      <trkpt lat="45.88357" lon="3.73265">
        <ele>770</ele>
        <time>2019-04-18T14:04:41Z</time>
      </trkpt>
      <trkpt lat="45.88359" lon="3.733">
        <ele>771</ele>
        <time>2019-04-18T14:05:41Z</time>
      </trkpt>
      <trkpt lat="45.88365" lon="3.73335">
        <ele>773</ele>
        <time>2019-04-18T14:06:41Z</time>
      </trkpt>
      <trkpt lat="45.88391" lon="3.73437">
        <ele>776</ele>
        <time>2019-04-18T14:07:41Z</time>
      </trkpt>
      <trkpt lat="45.88466" lon="3.73692">
        <ele>782</ele>
        <time>2019-04-18T14:08:41Z</time>
      </trkpt>
      <trkpt lat="45.88484" lon="3.73796">
        <ele>788</ele>
        <time>2019-04-18T14:09:41Z</time>
      </trkpt>
      <trkpt lat="45.88481" lon="3.73834">
        <ele>790</ele>
        <time>2019-04-18T14:10:41Z</time>
      </trkpt>
      <trkpt lat="45.88474" lon="3.7387">
        <ele>790</ele>
        <time>2019-04-18T14:11:41Z</time>
      </trkpt>
      <trkpt lat="45.88447" lon="3.73979">
        <ele>788</ele>
        <time>2019-04-18T14:12:41Z</time>
      </trkpt>
      <trkpt lat="45.88408" lon="3.74104">
        <ele>795</ele>
        <time>2019-04-18T14:13:41Z</time>
      </trkpt>
      <trkpt lat="45.88398" lon="3.74148">
        <ele>801</ele>
        <time>2019-04-18T14:14:41Z</time>
      </trkpt>
      <trkpt lat="45.88401" lon="3.74201">
        <ele>806</ele>
        <time>2019-04-18T14:15:41Z</time>
      </trkpt>
      <trkpt lat="45.88423" lon="3.74449">
        <ele>836</ele>
        <time>2019-04-18T14:16:41Z</time>
      </trkpt>
      <trkpt lat="45.88446" lon="3.74696">
        <ele>869</ele>
        <time>2019-04-18T14:17:41Z</time>
      </trkpt>
      <trkpt lat="45.88445" lon="3.74746">
        <ele>875</ele>
        <time>2019-04-18T14:18:41Z</time>
      </trkpt>
      <trkpt lat="45.8841" lon="3.74925">
        <ele>893</ele>
        <time>2019-04-18T14:19:41Z</time>
      </trkpt>
      <trkpt lat="45.88442" lon="3.75139">
        <ele>911</ele>
        <time>2019-04-18T14:20:41Z</time>
      </trkpt>
      <trkpt lat="45.88463" lon="3.75205">
        <ele>917</ele>
        <time>2019-04-18T14:21:41Z</time>
      </trkpt>
      <trkpt lat="45.88609" lon="3.75427">
        <ele>936</ele>
        <time>2019-04-18T14:22:41Z</time>
      </trkpt>
      <trkpt lat="45.88611" lon="3.75434">
        <ele>936</ele>
        <time>2019-04-18T14:23:41Z</time>
      </trkpt>
      <trkpt lat="45.88607" lon="3.75458">
        <ele>936</ele>
        <time>2019-04-18T14:24:41Z</time>
      </trkpt>
      <trkpt lat="45.88545" lon="3.75548">
        <ele>931</ele>
        <time>2019-04-18T14:25:41Z</time>
      </trkpt>
      <trkpt lat="45.8854" lon="3.75559">
        <ele>930</ele>
        <time>2019-04-18T14:26:41Z</time>
      </trkpt>
      <trkpt lat="45.8854" lon="3.75574">
        <ele>929</ele>
        <time>2019-04-18T14:27:41Z</time>
      </trkpt>
      <trkpt lat="45.88547" lon="3.75591">
        <ele>928</ele>
        <time>2019-04-18T14:28:41Z</time>
      </trkpt>
      <trkpt lat="45.88644" lon="3.75746">
        <ele>908</ele>
        <time>2019-04-18T14:29:41Z</time>
      </trkpt>
      <trkpt lat="45.88656" lon="3.75755">
        <ele>907</ele>
        <time>2019-04-18T14:30:41Z</time>
      </trkpt>
      <trkpt lat="45.88671" lon="3.75762">
        <ele>906</ele>
        <time>2019-04-18T14:31:41Z</time>
      </trkpt>
      <trkpt lat="45.88787" lon="3.75786">
        <ele>901</ele>
        <time>2019-04-18T14:32:41Z</time>
      </trkpt>
      <trkpt lat="45.88927" lon="3.75862">
        <ele>882</ele>
        <time>2019-04-18T14:33:41Z</time>
      </trkpt>
      <trkpt lat="45.88973" lon="3.75895">
        <ele>877</ele>
        <time>2019-04-18T14:34:41Z</time>
      </trkpt>
      <trkpt lat="45.8908" lon="3.7604">
        <ele>854</ele>
        <time>2019-04-18T14:35:41Z</time>
      </trkpt>
      <trkpt lat="45.89084" lon="3.7605">
        <ele>852</ele>
        <time>2019-04-18T14:36:41Z</time>
      </trkpt>
      <trkpt lat="45.89085" lon="3.76061">
        <ele>849</ele>
        <time>2019-04-18T14:37:41Z</time>
      </trkpt>
      <trkpt lat="45.89078" lon="3.76067">
        <ele>848</ele>
        <time>2019-04-18T14:38:41Z</time>
      </trkpt>
      <trkpt lat="45.8907" lon="3.76071">
        <ele>846</ele>
        <time>2019-04-18T14:39:41Z</time>
      </trkpt>
      <trkpt lat="45.88939" lon="3.76081">
        <ele>841</ele>
        <time>2019-04-18T14:40:41Z</time>
      </trkpt>
      <trkpt lat="45.88931" lon="3.76085">
        <ele>841</ele>
        <time>2019-04-18T14:41:41Z</time>
      </trkpt>
      <trkpt lat="45.88925" lon="3.76096">
        <ele>839</ele>
        <time>2019-04-18T14:42:41Z</time>
      </trkpt>
      <trkpt lat="45.88924" lon="3.76105">
        <ele>838</ele>
        <time>2019-04-18T14:43:41Z</time>
      </trkpt>
      <trkpt lat="45.88924" lon="3.76121">
        <ele>835</ele>
        <time>2019-04-18T14:44:41Z</time>
      </trkpt>
      <trkpt lat="45.8893" lon="3.76148">
        <ele>831</ele>
        <time>2019-04-18T14:45:41Z</time>
      </trkpt>
      <trkpt lat="45.88994" lon="3.76514">
        <ele>802</ele>
        <time>2019-04-18T14:46:41Z</time>
      </trkpt>
      <trkpt lat="45.88993" lon="3.76544">
        <ele>804</ele>
        <time>2019-04-18T14:47:41Z</time>
      </trkpt>
      <trkpt lat="45.88985" lon="3.76572">
        <ele>806</ele>
        <time>2019-04-18T14:48:41Z</time>
      </trkpt>
      <trkpt lat="45.88968" lon="3.76614">
        <ele>808</ele>
        <time>2019-04-18T14:49:41Z</time>
      </trkpt>
      <trkpt lat="45.8896" lon="3.76646">
        <ele>809</ele>
        <time>2019-04-18T14:50:41Z</time>
      </trkpt>
      <trkpt lat="45.88959" lon="3.76662">
        <ele>809</ele>
        <time>2019-04-18T14:51:41Z</time>
      </trkpt>
      <trkpt lat="45.8896" lon="3.76681">
        <ele>809</ele>
        <time>2019-04-18T14:52:41Z</time>
      </trkpt>
      <trkpt lat="45.88965" lon="3.76703">
        <ele>808</ele>
        <time>2019-04-18T14:53:41Z</time>
      </trkpt>
      <trkpt lat="45.88973" lon="3.76724">
        <ele>807</ele>
        <time>2019-04-18T14:54:41Z</time>
      </trkpt>
      <trkpt lat="45.89017" lon="3.76832">
        <ele>797</ele>
        <time>2019-04-18T14:55:41Z</time>
      </trkpt>
      <trkpt lat="45.89021" lon="3.76854">
        <ele>794</ele>
        <time>2019-04-18T14:56:41Z</time>
      </trkpt>
      <trkpt lat="45.89019" lon="3.76912">
        <ele>788</ele>
        <time>2019-04-18T14:57:41Z</time>
      </trkpt>
      <trkpt lat="45.89014" lon="3.76975">
        <ele>784</ele>
        <time>2019-04-18T14:58:41Z</time>
      </trkpt>
      <trkpt lat="45.88993" lon="3.77136">
        <ele>774</ele>
        <time>2019-04-18T14:59:41Z</time>
      </trkpt>
      <trkpt lat="45.88994" lon="3.77167">
        <ele>773</ele>
        <time>2019-04-18T15:00:41Z</time>
      </trkpt>
      <trkpt lat="45.89033" lon="3.77285">
        <ele>762</ele>
        <time>2019-04-18T15:01:41Z</time>
      </trkpt>
      <trkpt lat="45.8924" lon="3.77976">
        <ele>721</ele>
        <time>2019-04-18T15:02:41Z</time>
      </trkpt>
      <trkpt lat="45.89561" lon="3.79029">
        <ele>687</ele>
        <time>2019-04-18T15:03:41Z</time>
      </trkpt>
      <trkpt lat="45.89606" lon="3.79397">
        <ele>679</ele>
        <time>2019-04-18T15:04:41Z</time>
      </trkpt>
      <trkpt lat="45.89614" lon="3.79475">
        <ele>677</ele>
        <time>2019-04-18T15:05:41Z</time>
      </trkpt>
      <trkpt lat="45.89669" lon="3.79879">
        <ele>662</ele>
        <time>2019-04-18T15:06:41Z</time>
      </trkpt>
      <trkpt lat="45.89734" lon="3.80464">
        <ele>639</ele>
        <time>2019-04-18T15:07:41Z</time>
      </trkpt>
      <trkpt lat="45.89774" lon="3.80775">
        <ele>634</ele>
        <time>2019-04-18T15:08:41Z</time>
      </trkpt>
      <trkpt lat="45.89789" lon="3.80925">
        <ele>640</ele>
        <time>2019-04-18T15:09:41Z</time>
      </trkpt>
      <trkpt lat="45.89786" lon="3.80953">
        <ele>643</ele>
        <time>2019-04-18T15:10:41Z</time>
      </trkpt>
      <trkpt lat="45.89775" lon="3.80977">
        <ele>645</ele>
        <time>2019-04-18T15:11:41Z</time>
      </trkpt>
      <trkpt lat="45.8971" lon="3.8107">
        <ele>656</ele>
        <time>2019-04-18T15:12:41Z</time>
      </trkpt>
      <trkpt lat="45.89665" lon="3.81147">
        <ele>667</ele>
        <time>2019-04-18T15:13:41Z</time>
      </trkpt>
      <trkpt lat="45.89662" lon="3.81167">
        <ele>670</ele>
        <time>2019-04-18T15:14:41Z</time>
      </trkpt>
      <trkpt lat="45.89672" lon="3.81179">
        <ele>672</ele>
        <time>2019-04-18T15:15:41Z</time>
      </trkpt>
      <trkpt lat="45.89823" lon="3.81247">
        <ele>686</ele>
        <time>2019-04-18T15:16:41Z</time>
      </trkpt>
      <trkpt lat="45.89833" lon="3.81255">
        <ele>687</ele>
        <time>2019-04-18T15:17:41Z</time>
      </trkpt>
      <trkpt lat="45.89843" lon="3.8127">
        <ele>689</ele>
        <time>2019-04-18T15:18:41Z</time>
      </trkpt>
      <trkpt lat="45.89851" lon="3.81294">
        <ele>691</ele>
        <time>2019-04-18T15:19:41Z</time>
      </trkpt>
      <trkpt lat="45.89879" lon="3.81416">
        <ele>698</ele>
        <time>2019-04-18T15:20:41Z</time>
      </trkpt>
      <trkpt lat="45.89889" lon="3.81441">
        <ele>700</ele>
        <time>2019-04-18T15:21:41Z</time>
      </trkpt>
      <trkpt lat="45.89906" lon="3.81465">
        <ele>703</ele>
        <time>2019-04-18T15:22:41Z</time>
      </trkpt>
      <trkpt lat="45.90015" lon="3.81563">
        <ele>728</ele>
        <time>2019-04-18T15:23:41Z</time>
      </trkpt>
      <trkpt lat="45.90156" lon="3.81698">
        <ele>731</ele>
        <time>2019-04-18T15:24:41Z</time>
      </trkpt>
      <trkpt lat="45.90309" lon="3.81842">
        <ele>729</ele>
        <time>2019-04-18T15:25:41Z</time>
      </trkpt>
      <trkpt lat="45.9071" lon="3.82321">
        <ele>730</ele>
        <time>2019-04-18T15:26:41Z</time>
      </trkpt>
      <trkpt lat="45.90748" lon="3.82363">
        <ele>727</ele>
        <time>2019-04-18T15:27:41Z</time>
      </trkpt>
      <trkpt lat="45.90759" lon="3.82388">
        <ele>727</ele>
        <time>2019-04-18T15:28:41Z</time>
      </trkpt>
      <trkpt lat="45.90763" lon="3.82414">
        <ele>728</ele>
        <time>2019-04-18T15:29:41Z</time>
      </trkpt>
      <trkpt lat="45.90748" lon="3.82469">
        <ele>725</ele>
        <time>2019-04-18T15:30:41Z</time>
      </trkpt>
      <trkpt lat="45.90721" lon="3.82556">
        <ele>722</ele>
        <time>2019-04-18T15:31:41Z</time>
      </trkpt>
      <trkpt lat="45.90715" lon="3.82584">
        <ele>720</ele>
        <time>2019-04-18T15:32:41Z</time>
      </trkpt>
      <trkpt lat="45.90726" lon="3.82668">
        <ele>716</ele>
        <time>2019-04-18T15:33:41Z</time>
      </trkpt>
      <trkpt lat="45.9074" lon="3.82713">
        <ele>713</ele>
        <time>2019-04-18T15:34:41Z</time>
      </trkpt>
      <trkpt lat="45.90761" lon="3.82743">
        <ele>709</ele>
        <time>2019-04-18T15:35:41Z</time>
      </trkpt>
      <trkpt lat="45.90917" lon="3.82823">
        <ele>692</ele>
        <time>2019-04-18T15:36:41Z</time>
      </trkpt>
      <trkpt lat="45.90975" lon="3.82858">
        <ele>681</ele>
        <time>2019-04-18T15:37:41Z</time>
      </trkpt>
      <trkpt lat="45.91019" lon="3.82902">
        <ele>677</ele>
        <time>2019-04-18T15:38:41Z</time>
      </trkpt>
      <trkpt lat="45.91047" lon="3.8294">
        <ele>673</ele>
        <time>2019-04-18T15:39:41Z</time>
      </trkpt>
      <trkpt lat="45.91065" lon="3.82971">
        <ele>670</ele>
        <time>2019-04-18T15:40:41Z</time>
      </trkpt>
      <trkpt lat="45.91088" lon="3.83056">
        <ele>665</ele>
        <time>2019-04-18T15:41:41Z</time>
      </trkpt>
      <trkpt lat="45.91089" lon="3.83094">
        <ele>664</ele>
        <time>2019-04-18T15:42:41Z</time>
      </trkpt>
      <trkpt lat="45.91076" lon="3.83134">
        <ele>661</ele>
        <time>2019-04-18T15:43:41Z</time>
      </trkpt>
      <trkpt lat="45.9104" lon="3.83192">
        <ele>659</ele>
        <time>2019-04-18T15:44:41Z</time>
      </trkpt>
      <trkpt lat="45.90996" lon="3.83278">
        <ele>650</ele>
        <time>2019-04-18T15:45:41Z</time>
      </trkpt>
      <trkpt lat="45.90978" lon="3.83322">
        <ele>645</ele>
        <time>2019-04-18T15:46:41Z</time>
      </trkpt>
      <trkpt lat="45.90973" lon="3.83353">
        <ele>642</ele>
        <time>2019-04-18T15:47:41Z</time>
      </trkpt>
      <trkpt lat="45.90977" lon="3.83375">
        <ele>640</ele>
        <time>2019-04-18T15:48:41Z</time>
      </trkpt>
      <trkpt lat="45.90997" lon="3.83393">
        <ele>636</ele>
        <time>2019-04-18T15:49:41Z</time>
      </trkpt>
      <trkpt lat="45.91064" lon="3.83421">
        <ele>630</ele>
        <time>2019-04-18T15:50:41Z</time>
      </trkpt>
      <trkpt lat="45.91086" lon="3.83432">
        <ele>627</ele>
        <time>2019-04-18T15:51:41Z</time>
      </trkpt>
      <trkpt lat="45.91098" lon="3.83445">
        <ele>625</ele>
        <time>2019-04-18T15:52:41Z</time>
      </trkpt>
      <trkpt lat="45.91101" lon="3.83466">
        <ele>623</ele>
        <time>2019-04-18T15:53:41Z</time>
      </trkpt>
      <trkpt lat="45.91049" lon="3.83725">
        <ele>609</ele>
        <time>2019-04-18T15:54:41Z</time>
      </trkpt>
      <trkpt lat="45.91002" lon="3.83976">
        <ele>598</ele>
        <time>2019-04-18T15:55:41Z</time>
      </trkpt>
      <trkpt lat="45.91002" lon="3.84">
        <ele>596</ele>
        <time>2019-04-18T15:56:41Z</time>
      </trkpt>
      <trkpt lat="45.91015" lon="3.84034">
        <ele>597</ele>
        <time>2019-04-18T15:57:41Z</time>
      </trkpt>
      <trkpt lat="45.91027" lon="3.84053">
        <ele>597</ele>
        <time>2019-04-18T15:58:41Z</time>
      </trkpt>
      <trkpt lat="45.9108" lon="3.84089">
        <ele>599</ele>
        <time>2019-04-18T15:59:41Z</time>
      </trkpt>
      <trkpt lat="45.91202" lon="3.84149">
        <ele>602</ele>
        <time>2019-04-18T16:00:41Z</time>
      </trkpt>
      <trkpt lat="45.91261" lon="3.84173">
        <ele>605</ele>
        <time>2019-04-18T16:01:41Z</time>
      </trkpt>
      <trkpt lat="45.91279" lon="3.84188">
        <ele>608</ele>
        <time>2019-04-18T16:02:41Z</time>
      </trkpt>
      <trkpt lat="45.91305" lon="3.84204">
        <ele>612</ele>
        <time>2019-04-18T16:03:41Z</time>
      </trkpt>
      <trkpt lat="45.91365" lon="3.84233">
        <ele>618</ele>
        <time>2019-04-18T16:04:41Z</time>
      </trkpt>
      <trkpt lat="45.91434" lon="3.84269">
        <ele>625</ele>
        <time>2019-04-18T16:05:41Z</time>
      </trkpt>
      <trkpt lat="45.91448" lon="3.84277">
        <ele>628</ele>
        <time>2019-04-18T16:06:41Z</time>
      </trkpt>
      <trkpt lat="45.91454" lon="3.84286">
        <ele>630</ele>
        <time>2019-04-18T16:07:41Z</time>
      </trkpt>
      <trkpt lat="45.91459" lon="3.84298">
        <ele>631</ele>
        <time>2019-04-18T16:08:41Z</time>
      </trkpt>
      <trkpt lat="45.91464" lon="3.84315">
        <ele>633</ele>
        <time>2019-04-18T16:09:41Z</time>
      </trkpt>
      <trkpt lat="45.91465" lon="3.8433">
        <ele>634</ele>
        <time>2019-04-18T16:10:41Z</time>
      </trkpt>
      <trkpt lat="45.91463" lon="3.84379">
        <ele>638</ele>
        <time>2019-04-18T16:11:41Z</time>
      </trkpt>
      <trkpt lat="45.91454" lon="3.8447">
        <ele>645</ele>
        <time>2019-04-18T16:12:41Z</time>
      </trkpt>
      <trkpt lat="45.91447" lon="3.84526">
        <ele>650</ele>
        <time>2019-04-18T16:13:41Z</time>
      </trkpt>
      <trkpt lat="45.91448" lon="3.84551">
        <ele>652</ele>
        <time>2019-04-18T16:14:41Z</time>
      </trkpt>
      <trkpt lat="45.91443" lon="3.84606">
        <ele>654</ele>
        <time>2019-04-18T16:15:41Z</time>
      </trkpt>
      <trkpt lat="45.91433" lon="3.84645">
        <ele>654</ele>
        <time>2019-04-18T16:16:41Z</time>
      </trkpt>
      <trkpt lat="45.91424" lon="3.8467">
        <ele>653</ele>
        <time>2019-04-18T16:17:41Z</time>
      </trkpt>
      <trkpt lat="45.91438" lon="3.84684">
        <ele>655</ele>
        <time>2019-04-18T16:18:41Z</time>
      </trkpt>
      <trkpt lat="45.91448" lon="3.8469">
        <ele>656</ele>
        <time>2019-04-18T16:19:41Z</time>
      </trkpt>
      <trkpt lat="45.91456" lon="3.8469">
        <ele>657</ele>
        <time>2019-04-18T16:20:41Z</time>
      </trkpt>
      <trkpt lat="45.91466" lon="3.84682">
        <ele>658</ele>
        <time>2019-04-18T16:21:41Z</time>
      </trkpt>
      <trkpt lat="45.91478" lon="3.84663">
        <ele>659</ele>
        <time>2019-04-18T16:22:41Z</time>
      </trkpt>
      <trkpt lat="45.91509" lon="3.84594">
        <ele>662</ele>
        <time>2019-04-18T16:23:41Z</time>
      </trkpt>
      <trkpt lat="45.91542" lon="3.84531">
        <ele>662</ele>
        <time>2019-04-18T16:24:41Z</time>
      </trkpt>
      <trkpt lat="45.91632" lon="3.84482">
        <ele>669</ele>
        <time>2019-04-18T16:25:41Z</time>
      </trkpt>
      <trkpt lat="45.91719" lon="3.84425">
        <ele>671</ele>
        <time>2019-04-18T16:26:41Z</time>
      </trkpt>
      <trkpt lat="45.91748" lon="3.84417">
        <ele>673</ele>
        <time>2019-04-18T16:27:41Z</time>
      </trkpt>
      <trkpt lat="45.91763" lon="3.84419">
        <ele>673</ele>
        <time>2019-04-18T16:28:41Z</time>
      </trkpt>
      <trkpt lat="45.91783" lon="3.84432">
        <ele>674</ele>
        <time>2019-04-18T16:29:41Z</time>
      </trkpt>
      <trkpt lat="45.91908" lon="3.84543">
        <ele>686</ele>
        <time>2019-04-18T16:30:41Z</time>
      </trkpt>
      <trkpt lat="45.91929" lon="3.84546">
        <ele>687</ele>
        <time>2019-04-18T16:31:41Z</time>
      </trkpt>
      <trkpt lat="45.92007" lon="3.84539">
        <ele>690</ele>
        <time>2019-04-18T16:32:41Z</time>
      </trkpt>
      <trkpt lat="45.9203" lon="3.84543">
        <ele>692</ele>
        <time>2019-04-18T16:33:41Z</time>
      </trkpt>
      <trkpt lat="45.92137" lon="3.84578">
        <ele>702</ele>
        <time>2019-04-18T16:34:41Z</time>
      </trkpt>
      <trkpt lat="45.92212" lon="3.84585">
        <ele>706</ele>
        <time>2019-04-18T16:35:41Z</time>
      </trkpt>
      <trkpt lat="45.92252" lon="3.84596">
        <ele>710</ele>
        <time>2019-04-18T16:36:41Z</time>
      </trkpt>
      <trkpt lat="45.92289" lon="3.84613">
        <ele>712</ele>
        <time>2019-04-18T16:37:41Z</time>
      </trkpt>
      <trkpt lat="45.92335" lon="3.84644">
        <ele>717</ele>
        <time>2019-04-18T16:38:41Z</time>
      </trkpt>
      <trkpt lat="45.92357" lon="3.84662">
        <ele>718</ele>
        <time>2019-04-18T16:39:41Z</time>
      </trkpt>
      <trkpt lat="45.92374" lon="3.8468">
        <ele>720</ele>
        <time>2019-04-18T16:40:41Z</time>
      </trkpt>
      <trkpt lat="45.92419" lon="3.84749">
        <ele>731</ele>
        <time>2019-04-18T16:41:41Z</time>
      </trkpt>
      <trkpt lat="45.92438" lon="3.8477">
        <ele>733</ele>
        <time>2019-04-18T16:42:41Z</time>
      </trkpt>
      <trkpt lat="45.92458" lon="3.84785">
        <ele>733</ele>
        <time>2019-04-18T16:43:41Z</time>
      </trkpt>
      <trkpt lat="45.92537" lon="3.84825">
        <ele>732</ele>
        <time>2019-04-18T16:44:41Z</time>
      </trkpt>
      <trkpt lat="45.9258" lon="3.84872">
        <ele>738</ele>
        <time>2019-04-18T16:45:41Z</time>
      </trkpt>
      <trkpt lat="45.92629" lon="3.84934">
        <ele>744</ele>
        <time>2019-04-18T16:46:41Z</time>
      </trkpt>
      <trkpt lat="45.92703" lon="3.85058">
        <ele>750</ele>
        <time>2019-04-18T16:47:41Z</time>
      </trkpt>
      <trkpt lat="45.92743" lon="3.85135">
        <ele>756</ele>
        <time>2019-04-18T16:48:41Z</time>
      </trkpt>
      <trkpt lat="45.92804" lon="3.85219">
        <ele>758</ele>
        <time>2019-04-18T16:49:41Z</time>
      </trkpt>
      <trkpt lat="45.92817" lon="3.85246">
        <ele>761</ele>
        <time>2019-04-18T16:50:41Z</time>
      </trkpt>
      <trkpt lat="45.92843" lon="3.85305">
        <ele>768</ele>
        <time>2019-04-18T16:51:41Z</time>
      </trkpt>
      <trkpt lat="45.92853" lon="3.85319">
        <ele>770</ele>
        <time>2019-04-18T16:52:41Z</time>
      </trkpt>
      <trkpt lat="45.92865" lon="3.85331">
        <ele>771</ele>
        <time>2019-04-18T16:53:41Z</time>
      </trkpt>
      <trkpt lat="45.92883" lon="3.8534">
        <ele>769</ele>
        <time>2019-04-18T16:54:41Z</time>
      </trkpt>
      <trkpt lat="45.9292" lon="3.85346">
        <ele>765</ele>
        <time>2019-04-18T16:55:41Z</time>
      </trkpt>
      <trkpt lat="45.92938" lon="3.85352">
        <ele>764</ele>
        <time>2019-04-18T16:56:41Z</time>
      </trkpt>
      <trkpt lat="45.9299" lon="3.85385">
        <ele>766</ele>
        <time>2019-04-18T16:57:41Z</time>
      </trkpt>
      <trkpt lat="45.93" lon="3.85398">
        <ele>767</ele>
        <time>2019-04-18T16:58:41Z</time>
      </trkpt>
      <trkpt lat="45.93008" lon="3.85412">
        <ele>768</ele>
        <time>2019-04-18T16:59:41Z</time>
      </trkpt>
      <trkpt lat="45.93013" lon="3.85436">
        <ele>769</ele>
        <time>2019-04-18T17:00:41Z</time>
      </trkpt>
      <trkpt lat="45.93012" lon="3.85457">
        <ele>771</ele>
        <time>2019-04-18T17:01:41Z</time>
      </trkpt>
      <trkpt lat="45.92994" lon="3.85527">
        <ele>782</ele>
        <time>2019-04-18T17:02:41Z</time>
      </trkpt>
      <trkpt lat="45.92989" lon="3.85567">
        <ele>786</ele>
        <time>2019-04-18T17:03:41Z</time>
      </trkpt>
      <trkpt lat="45.92988" lon="3.85597">
        <ele>789</ele>
        <time>2019-04-18T17:04:41Z</time>
      </trkpt>
      <trkpt lat="45.92998" lon="3.85635">
        <ele>790</ele>
        <time>2019-04-18T17:05:41Z</time>
      </trkpt>
      <trkpt lat="45.93011" lon="3.85669">
        <ele>790</ele>
        <time>2019-04-18T17:06:41Z</time>
      </trkpt>
      <trkpt lat="45.93033" lon="3.85702">
        <ele>790</ele>
        <time>2019-04-18T17:07:41Z</time>
      </trkpt>
      <trkpt lat="45.93106" lon="3.85788">
        <ele>787</ele>
        <time>2019-04-18T17:08:41Z</time>
      </trkpt>
      <trkpt lat="45.93118" lon="3.8581">
        <ele>788</ele>
        <time>2019-04-18T17:09:41Z</time>
      </trkpt>
      <trkpt lat="45.93127" lon="3.85842">
        <ele>791</ele>
        <time>2019-04-18T17:10:41Z</time>
      </trkpt>
      <trkpt lat="45.93125" lon="3.8589">
        <ele>793</ele>
        <time>2019-04-18T17:11:41Z</time>
      </trkpt>
      <trkpt lat="45.93086" lon="3.86081">
        <ele>802</ele>
        <time>2019-04-18T17:12:41Z</time>
      </trkpt>
      <trkpt lat="45.93091" lon="3.86129">
        <ele>804</ele>
        <time>2019-04-18T17:13:41Z</time>
      </trkpt>
      <trkpt lat="45.93111" lon="3.86173">
        <ele>806</ele>
        <time>2019-04-18T17:14:41Z</time>
      </trkpt>
      <trkpt lat="45.93144" lon="3.86202">
        <ele>809</ele>
        <time>2019-04-18T17:15:41Z</time>
      </trkpt>
      <trkpt lat="45.93163" lon="3.86205">
        <ele>809</ele>
        <time>2019-04-18T17:16:41Z</time>
      </trkpt>
      <trkpt lat="45.93235" lon="3.86205">
        <ele>810</ele>
        <time>2019-04-18T17:17:41Z</time>
      </trkpt>
      <trkpt lat="45.93265" lon="3.86222">
        <ele>812</ele>
        <time>2019-04-18T17:18:41Z</time>
      </trkpt>
      <trkpt lat="45.93299" lon="3.8627">
        <ele>816</ele>
        <time>2019-04-18T17:19:41Z</time>
      </trkpt>
      <trkpt lat="45.93473" lon="3.86566">
        <ele>834</ele>
        <time>2019-04-18T17:20:41Z</time>
      </trkpt>
      <trkpt lat="45.93521" lon="3.86629">
        <ele>838</ele>
        <time>2019-04-18T17:21:41Z</time>
      </trkpt>
      <trkpt lat="45.93572" lon="3.86678">
        <ele>843</ele>
        <time>2019-04-18T17:22:41Z</time>
      </trkpt>
      <trkpt lat="45.93624" lon="3.86706">
        <ele>848</ele>
        <time>2019-04-18T17:23:41Z</time>
      </trkpt>
      <trkpt lat="45.93723" lon="3.8674">
        <ele>855</ele>
        <time>2019-04-18T17:24:41Z</time>
      </trkpt>
      <trkpt lat="45.94155" lon="3.86876">
        <ele>876</ele>
        <time>2019-04-18T17:25:41Z</time>
      </trkpt>
      <trkpt lat="45.9419" lon="3.86897">
        <ele>877</ele>
        <time>2019-04-18T17:26:41Z</time>
      </trkpt>
      <trkpt lat="45.9423" lon="3.86944">
        <ele>878</ele>
        <time>2019-04-18T17:27:41Z</time>
      </trkpt>
      <trkpt lat="45.94249" lon="3.86977">
        <ele>880</ele>
        <time>2019-04-18T17:28:41Z</time>
      </trkpt>
      <trkpt lat="45.9427" lon="3.87025">
        <ele>885</ele>
        <time>2019-04-18T17:29:41Z</time>
      </trkpt>
      <trkpt lat="45.94296" lon="3.87205">
        <ele>901</ele>
        <time>2019-04-18T17:30:41Z</time>
      </trkpt>
      <trkpt lat="45.94319" lon="3.87282">
        <ele>906</ele>
        <time>2019-04-18T17:31:41Z</time>
      </trkpt>
      <trkpt lat="45.94341" lon="3.87326">
        <ele>909</ele>
        <time>2019-04-18T17:32:41Z</time>
      </trkpt>
      <trkpt lat="45.94368" lon="3.87367">
        <ele>913</ele>
        <time>2019-04-18T17:33:41Z</time>
      </trkpt>
      <trkpt lat="45.94415" lon="3.87407">
        <ele>917</ele>
        <time>2019-04-18T17:34:41Z</time>
      </trkpt>
      <trkpt lat="45.94517" lon="3.87483">
        <ele>916</ele>
        <time>2019-04-18T17:35:41Z</time>
      </trkpt>
      <trkpt lat="45.94556" lon="3.8752">
        <ele>917</ele>
        <time>2019-04-18T17:36:41Z</time>
      </trkpt>
      <trkpt lat="45.9458" lon="3.87561">
        <ele>917</ele>
        <time>2019-04-18T17:37:41Z</time>
      </trkpt>
      <trkpt lat="45.94632" lon="3.87658">
        <ele>914</ele>
        <time>2019-04-18T17:38:41Z</time>
      </trkpt>
      <trkpt lat="45.94652" lon="3.87684">
        <ele>915</ele>
        <time>2019-04-18T17:39:41Z</time>
      </trkpt>
      <trkpt lat="45.94763" lon="3.87749">
        <ele>913</ele>
        <time>2019-04-18T17:40:41Z</time>
      </trkpt>
      <trkpt lat="45.94899" lon="3.8786">
        <ele>900</ele>
        <time>2019-04-18T17:41:41Z</time>
      </trkpt>
      <trkpt lat="45.94925" lon="3.87871">
        <ele>899</ele>
        <time>2019-04-18T17:42:41Z</time>
      </trkpt>
      <trkpt lat="45.94959" lon="3.87871">
        <ele>896</ele>
        <time>2019-04-18T17:43:41Z</time>
      </trkpt>
      <trkpt lat="45.94987" lon="3.87854">
        <ele>895</ele>
        <time>2019-04-18T17:44:41Z</time>
      </trkpt>
      <trkpt lat="45.9501" lon="3.87824">
        <ele>894</ele>
        <time>2019-04-18T17:45:41Z</time>
      </trkpt>
      <trkpt lat="45.95023" lon="3.87793">
        <ele>893</ele>
        <time>2019-04-18T17:46:41Z</time>
      </trkpt>
      <trkpt lat="45.95043" lon="3.87653">
        <ele>896</ele>
        <time>2019-04-18T17:47:41Z</time>
      </trkpt>
      <trkpt lat="45.95053" lon="3.87621">
        <ele>896</ele>
        <time>2019-04-18T17:48:41Z</time>
      </trkpt>
      <trkpt lat="45.9507" lon="3.87598">
        <ele>896</ele>
        <time>2019-04-18T17:49:41Z</time>
      </trkpt>
      <trkpt lat="45.95096" lon="3.87581">
        <ele>897</ele>
        <time>2019-04-18T17:50:41Z</time>
      </trkpt>
      <trkpt lat="45.95125" lon="3.87581">
        <ele>900</ele>
        <time>2019-04-18T17:51:41Z</time>
      </trkpt>
      <trkpt lat="45.95149" lon="3.87598">
        <ele>901</ele>
        <time>2019-04-18T17:52:41Z</time>
      </trkpt>
      <trkpt lat="45.95188" lon="3.87649">
        <ele>900</ele>
        <time>2019-04-18T17:53:41Z</time>
      </trkpt>
      <trkpt lat="45.95396" lon="3.87954">
        <ele>891</ele>
        <time>2019-04-18T17:54:41Z</time>
      </trkpt>
      <trkpt lat="45.95435" lon="3.88047">
        <ele>885</ele>
        <time>2019-04-18T17:55:41Z</time>
      </trkpt>
      <trkpt lat="45.95453" lon="3.88119">
        <ele>881</ele>
        <time>2019-04-18T17:56:41Z</time>
      </trkpt>
      <trkpt lat="45.95458" lon="3.88193">
        <ele>875</ele>
        <time>2019-04-18T17:57:41Z</time>
      </trkpt>
      <trkpt lat="45.95453" lon="3.88415">
        <ele>868</ele>
        <time>2019-04-18T17:58:41Z</time>
      </trkpt>
      <trkpt lat="45.95463" lon="3.88449">
        <ele>869</ele>
        <time>2019-04-18T17:59:41Z</time>
      </trkpt>
      <trkpt lat="45.95479" lon="3.88472">
        <ele>869</ele>
        <time>2019-04-18T18:00:41Z</time>
      </trkpt>
      <trkpt lat="45.95501" lon="3.88486">
        <ele>869</ele>
        <time>2019-04-18T18:01:41Z</time>
      </trkpt>
      <trkpt lat="45.95672" lon="3.88541">
        <ele>847</ele>
        <time>2019-04-18T18:02:41Z</time>
      </trkpt>
      <trkpt lat="45.95698" lon="3.88547">
        <ele>843</ele>
        <time>2019-04-18T18:03:41Z</time>
      </trkpt>
      <trkpt lat="45.95727" lon="3.88544">
        <ele>840</ele>
        <time>2019-04-18T18:04:41Z</time>
      </trkpt>
      <trkpt lat="45.95754" lon="3.88531">
        <ele>839</ele>
        <time>2019-04-18T18:05:41Z</time>
      </trkpt>
      <trkpt lat="45.95787" lon="3.88509">
        <ele>836</ele>
        <time>2019-04-18T18:06:41Z</time>
      </trkpt>
      <trkpt lat="45.95842" lon="3.88423">
        <ele>840</ele>
        <time>2019-04-18T18:07:41Z</time>
      </trkpt>
      <trkpt lat="45.9586" lon="3.884">
        <ele>840</ele>
        <time>2019-04-18T18:08:41Z</time>
      </trkpt>
      <trkpt lat="45.95886" lon="3.88401">
        <ele>836</ele>
        <time>2019-04-18T18:09:41Z</time>
      </trkpt>
      <trkpt lat="45.95907" lon="3.88416">
        <ele>830</ele>
        <time>2019-04-18T18:10:41Z</time>
      </trkpt>
      <trkpt lat="45.95969" lon="3.88513">
        <ele>818</ele>
        <time>2019-04-18T18:11:41Z</time>
      </trkpt>
      <trkpt lat="45.95987" lon="3.88532">
        <ele>816</ele>
        <time>2019-04-18T18:12:41Z</time>
      </trkpt>
      <trkpt lat="45.95992" lon="3.88536">
        <ele>816</ele>
        <time>2019-04-18T18:13:41Z</time>
      </trkpt>
      <trkpt lat="45.96015" lon="3.88539">
        <ele>814</ele>
        <time>2019-04-18T18:14:41Z</time>
      </trkpt>
      <trkpt lat="45.96039" lon="3.88529">
        <ele>813</ele>
        <time>2019-04-18T18:15:41Z</time>
      </trkpt>
      <trkpt lat="45.96065" lon="3.88503">
        <ele>814</ele>
        <time>2019-04-18T18:16:41Z</time>
      </trkpt>
      <trkpt lat="45.9616" lon="3.88381">
        <ele>808</ele>
        <time>2019-04-18T18:17:41Z</time>
      </trkpt>
      <trkpt lat="45.96179" lon="3.88366">
        <ele>808</ele>
        <time>2019-04-18T18:18:41Z</time>
      </trkpt>
      <trkpt lat="45.96201" lon="3.88357">
        <ele>808</ele>
        <time>2019-04-18T18:19:41Z</time>
      </trkpt>
      <trkpt lat="45.96222" lon="3.88359">
        <ele>807</ele>
        <time>2019-04-18T18:20:41Z</time>
      </trkpt>
      <trkpt lat="45.96239" lon="3.88366">
        <ele>806</ele>
        <time>2019-04-18T18:21:41Z</time>
      </trkpt>
      <trkpt lat="45.96258" lon="3.88387">
        <ele>804</ele>
        <time>2019-04-18T18:22:41Z</time>
      </trkpt>
      <trkpt lat="45.96272" lon="3.88416">
        <ele>804</ele>
        <time>2019-04-18T18:23:41Z</time>
      </trkpt>
      <trkpt lat="45.96349" lon="3.88685">
        <ele>786</ele>
        <time>2019-04-18T18:24:41Z</time>
      </trkpt>
      <trkpt lat="45.96361" lon="3.88795">
        <ele>781</ele>
        <time>2019-04-18T18:25:41Z</time>
      </trkpt>
      <trkpt lat="45.96366" lon="3.88825">
        <ele>779</ele>
        <time>2019-04-18T18:26:41Z</time>
      </trkpt>
      <trkpt lat="45.96373" lon="3.88849">
        <ele>778</ele>
        <time>2019-04-18T18:27:41Z</time>
      </trkpt>
      <trkpt lat="45.96386" lon="3.88875">
        <ele>776</ele>
        <time>2019-04-18T18:28:41Z</time>
      </trkpt>
      <trkpt lat="45.96406" lon="3.889">
        <ele>775</ele>
        <time>2019-04-18T18:29:41Z</time>
      </trkpt>
      <trkpt lat="45.96474" lon="3.88956">
        <ele>773</ele>
        <time>2019-04-18T18:30:41Z</time>
      </trkpt>
      <trkpt lat="45.96492" lon="3.88989">
        <ele>769</ele>
        <time>2019-04-18T18:31:41Z</time>
      </trkpt>
      <trkpt lat="45.96499" lon="3.89029">
        <ele>768</ele>
        <time>2019-04-18T18:32:41Z</time>
      </trkpt>
      <trkpt lat="45.96499" lon="3.89051">
        <ele>767</ele>
        <time>2019-04-18T18:33:41Z</time>
      </trkpt>
      <trkpt lat="45.96495" lon="3.89073">
        <ele>766</ele>
        <time>2019-04-18T18:34:41Z</time>
      </trkpt>
      <trkpt lat="45.96477" lon="3.89105">
        <ele>765</ele>
        <time>2019-04-18T18:35:41Z</time>
      </trkpt>
      <trkpt lat="45.96454" lon="3.89138">
        <ele>762</ele>
        <time>2019-04-18T18:36:41Z</time>
      </trkpt>
      <trkpt lat="45.96427" lon="3.89168">
        <ele>757</ele>
        <time>2019-04-18T18:37:41Z</time>
      </trkpt>
      <trkpt lat="45.96406" lon="3.89229">
        <ele>755</ele>
        <time>2019-04-18T18:38:41Z</time>
      </trkpt>
      <trkpt lat="45.96411" lon="3.89409">
        <ele>751</ele>
        <time>2019-04-18T18:39:41Z</time>
      </trkpt>
      <trkpt lat="45.96402" lon="3.89614">
        <ele>738</ele>
        <time>2019-04-18T18:40:41Z</time>
      </trkpt>
      <trkpt lat="45.96408" lon="3.89723">
        <ele>728</ele>
        <time>2019-04-18T18:41:41Z</time>
      </trkpt>
      <trkpt lat="45.96406" lon="3.89815">
        <ele>723</ele>
        <time>2019-04-18T18:42:41Z</time>
      </trkpt>
      <trkpt lat="45.96399" lon="3.8987">
        <ele>720</ele>
        <time>2019-04-18T18:43:41Z</time>
      </trkpt>
      <trkpt lat="45.96389" lon="3.89923">
        <ele>717</ele>
        <time>2019-04-18T18:44:41Z</time>
      </trkpt>
      <trkpt lat="45.96383" lon="3.89976">
        <ele>714</ele>
        <time>2019-04-18T18:45:41Z</time>
      </trkpt>
      <trkpt lat="45.9638" lon="3.90018">
        <ele>711</ele>
        <time>2019-04-18T18:46:41Z</time>
      </trkpt>
      <trkpt lat="45.96349" lon="3.90144">
        <ele>700</ele>
        <time>2019-04-18T18:47:41Z</time>
      </trkpt>
      <trkpt lat="45.96347" lon="3.90166">
        <ele>699</ele>
        <time>2019-04-18T18:48:41Z</time>
      </trkpt>
      <trkpt lat="45.96365" lon="3.90341">
        <ele>690</ele>
        <time>2019-04-18T18:49:41Z</time>
      </trkpt>
      <trkpt lat="45.96381" lon="3.90392">
        <ele>688</ele>
        <time>2019-04-18T18:50:41Z</time>
      </trkpt>
      <trkpt lat="45.96406" lon="3.90455">
        <ele>685</ele>
        <time>2019-04-18T18:51:41Z</time>
      </trkpt>
      <trkpt lat="45.96435" lon="3.90502">
        <ele>684</ele>
        <time>2019-04-18T18:52:41Z</time>
      </trkpt>
      <trkpt lat="45.96454" lon="3.90544">
        <ele>686</ele>
        <time>2019-04-18T18:53:41Z</time>
      </trkpt>
      <trkpt lat="45.96462" lon="3.90587">
        <ele>684</ele>
        <time>2019-04-18T18:54:41Z</time>
      </trkpt>
      <trkpt lat="45.96465" lon="3.90617">
        <ele>683</ele>
        <time>2019-04-18T18:55:41Z</time>
      </trkpt>
      <trkpt lat="45.96464" lon="3.90643">
        <ele>681</ele>
        <time>2019-04-18T18:56:41Z</time>
      </trkpt>
      <trkpt lat="45.9647" lon="3.90682">
        <ele>679</ele>
        <time>2019-04-18T18:57:41Z</time>
      </trkpt>
      <trkpt lat="45.96471" lon="3.90825">
        <ele>669</ele>
        <time>2019-04-18T18:58:41Z</time>
      </trkpt>
      <trkpt lat="45.96466" lon="3.90959">
        <ele>663</ele>
        <time>2019-04-18T18:59:41Z</time>
      </trkpt>
      <trkpt lat="45.96465" lon="3.91103">
        <ele>653</ele>
        <time>2019-04-18T19:00:41Z</time>
      </trkpt>
      <trkpt lat="45.96463" lon="3.91121">
        <ele>652</ele>
        <time>2019-04-18T19:01:41Z</time>
      </trkpt>
      <trkpt lat="45.96407" lon="3.91293">
        <ele>647</ele>
        <time>2019-04-18T19:02:41Z</time>
      </trkpt>
      <trkpt lat="45.96345" lon="3.91453">
        <ele>645</ele>
        <time>2019-04-18T19:03:41Z</time>
      </trkpt>
      <trkpt lat="45.96334" lon="3.91479">
        <ele>643</ele>
        <time>2019-04-18T19:04:41Z</time>
      </trkpt>
      <trkpt lat="45.96315" lon="3.91512">
        <ele>644</ele>
        <time>2019-04-18T19:05:41Z</time>
      </trkpt>
      <trkpt lat="45.96294" lon="3.91539">
        <ele>646</ele>
        <time>2019-04-18T19:06:41Z</time>
      </trkpt>
      <trkpt lat="45.96193" lon="3.91638">
        <ele>648</ele>
        <time>2019-04-18T19:07:41Z</time>
      </trkpt>
      <trkpt lat="45.96154" lon="3.9169">
        <ele>652</ele>
        <time>2019-04-18T19:08:41Z</time>
      </trkpt>
      <trkpt lat="45.96113" lon="3.9176">
        <ele>652</ele>
        <time>2019-04-18T19:09:41Z</time>
      </trkpt>
      <trkpt lat="45.96052" lon="3.91855">
        <ele>654</ele>
        <time>2019-04-18T19:10:41Z</time>
      </trkpt>
      <trkpt lat="45.96011" lon="3.91891">
        <ele>658</ele>
        <time>2019-04-18T19:11:41Z</time>
      </trkpt>
      <trkpt lat="45.95964" lon="3.91919">
        <ele>665</ele>
        <time>2019-04-18T19:12:41Z</time>
      </trkpt>
      <trkpt lat="45.95828" lon="3.91971">
        <ele>676</ele>
        <time>2019-04-18T19:13:41Z</time>
      </trkpt>
      <trkpt lat="45.95715" lon="3.9202">
        <ele>684</ele>
        <time>2019-04-18T19:14:41Z</time>
      </trkpt>
      <trkpt lat="45.95658" lon="3.92055">
        <ele>686</ele>
        <time>2019-04-18T19:15:41Z</time>
      </trkpt>
      <trkpt lat="45.95601" lon="3.92101">
        <ele>685</ele>
        <time>2019-04-18T19:16:41Z</time>
      </trkpt>
      <trkpt lat="45.95575" lon="3.92128">
        <ele>686</ele>
        <time>2019-04-18T19:17:41Z</time>
      </trkpt>
      <trkpt lat="45.95551" lon="3.92165">
        <ele>689</ele>
        <time>2019-04-18T19:18:41Z</time>
      </trkpt>
      <trkpt lat="45.95431" lon="3.92363">
        <ele>699</ele>
        <time>2019-04-18T19:19:41Z</time>
      </trkpt>
      <trkpt lat="45.95408" lon="3.92405">
        <ele>699</ele>
        <time>2019-04-18T19:20:41Z</time>
      </trkpt>
      <trkpt lat="45.95396" lon="3.9244">
        <ele>699</ele>
        <time>2019-04-18T19:21:41Z</time>
      </trkpt>
      <trkpt lat="45.95386" lon="3.92485">
        <ele>701</ele>
        <time>2019-04-18T19:22:41Z</time>
      </trkpt>
      <trkpt lat="45.95381" lon="3.92535">
        <ele>704</ele>
        <time>2019-04-18T19:23:41Z</time>
      </trkpt>
      <trkpt lat="45.95398" lon="3.92848">
        <ele>715</ele>
        <time>2019-04-18T19:24:41Z</time>
      </trkpt>
      <trkpt lat="45.95405" lon="3.92915">
        <ele>718</ele>
        <time>2019-04-18T19:25:41Z</time>
      </trkpt>
      <trkpt lat="45.95415" lon="3.92952">
        <ele>721</ele>
        <time>2019-04-18T19:26:41Z</time>
      </trkpt>
      <trkpt lat="45.9543" lon="3.92979">
        <ele>723</ele>
        <time>2019-04-18T19:27:41Z</time>
      </trkpt>
      <trkpt lat="45.95449" lon="3.93002">
        <ele>725</ele>
        <time>2019-04-18T19:28:41Z</time>
      </trkpt>
      <trkpt lat="45.95476" lon="3.9302">
        <ele>724</ele>
        <time>2019-04-18T19:29:41Z</time>
      </trkpt>
      <trkpt lat="45.95507" lon="3.93027">
        <ele>724</ele>
        <time>2019-04-18T19:30:41Z</time>
      </trkpt>
      <trkpt lat="45.95544" lon="3.93021">
        <ele>726</ele>
        <time>2019-04-18T19:31:41Z</time>
      </trkpt>
      <trkpt lat="45.95809" lon="3.92938">
        <ele>737</ele>
        <time>2019-04-18T19:32:41Z</time>
      </trkpt>
      <trkpt lat="45.95918" lon="3.92903">
        <ele>739</ele>
        <time>2019-04-18T19:33:41Z</time>
      </trkpt>
      <trkpt lat="45.95947" lon="3.92901">
        <ele>741</ele>
        <time>2019-04-18T19:34:41Z</time>
      </trkpt>
      <trkpt lat="45.95982" lon="3.92913">
        <ele>740</ele>
        <time>2019-04-18T19:35:41Z</time>
      </trkpt>
      <trkpt lat="45.96006" lon="3.92931">
        <ele>739</ele>
        <time>2019-04-18T19:36:41Z</time>
      </trkpt>
      <trkpt lat="45.9605" lon="3.9298">
        <ele>738</ele>
        <time>2019-04-18T19:37:41Z</time>
      </trkpt>
      <trkpt lat="45.96167" lon="3.93119">
        <ele>744</ele>
        <time>2019-04-18T19:38:41Z</time>
      </trkpt>
      <trkpt lat="45.96186" lon="3.93153">
        <ele>745</ele>
        <time>2019-04-18T19:39:41Z</time>
      </trkpt>
      <trkpt lat="45.96194" lon="3.9318">
        <ele>746</ele>
        <time>2019-04-18T19:40:41Z</time>
      </trkpt>
      <trkpt lat="45.96198" lon="3.93209">
        <ele>747</ele>
        <time>2019-04-18T19:41:41Z</time>
      </trkpt>
      <trkpt lat="45.96197" lon="3.93513">
        <ele>751</ele>
        <time>2019-04-18T19:42:41Z</time>
      </trkpt>
      <trkpt lat="45.96201" lon="3.93545">
        <ele>752</ele>
        <time>2019-04-18T19:43:41Z</time>
      </trkpt>
      <trkpt lat="45.96223" lon="3.93629">
        <ele>752</ele>
        <time>2019-04-18T19:44:41Z</time>
      </trkpt>
      <trkpt lat="45.96226" lon="3.93663">
        <ele>751</ele>
        <time>2019-04-18T19:45:41Z</time>
      </trkpt>
      <trkpt lat="45.96214" lon="3.93751">
        <ele>748</ele>
        <time>2019-04-18T19:46:41Z</time>
      </trkpt>
      <trkpt lat="45.96219" lon="3.9378">
        <ele>747</ele>
        <time>2019-04-18T19:47:41Z</time>
      </trkpt>
      <trkpt lat="45.96231" lon="3.93802">
        <ele>745</ele>
        <time>2019-04-18T19:48:41Z</time>
      </trkpt>
      <trkpt lat="45.96245" lon="3.93815">
        <ele>742</ele>
        <time>2019-04-18T19:49:41Z</time>
      </trkpt>
      <trkpt lat="45.96266" lon="3.93817">
        <ele>740</ele>
        <time>2019-04-18T19:50:41Z</time>
      </trkpt>
      <trkpt lat="45.96342" lon="3.93801">
        <ele>734</ele>
        <time>2019-04-18T19:51:41Z</time>
      </trkpt>
      <trkpt lat="45.96359" lon="3.93792">
        <ele>732</ele>
        <time>2019-04-18T19:52:41Z</time>
      </trkpt>
      <trkpt lat="45.96375" lon="3.9378">
        <ele>730</ele>
        <time>2019-04-18T19:53:41Z</time>
      </trkpt>
      <trkpt lat="45.96388" lon="3.93762">
        <ele>729</ele>
        <time>2019-04-18T19:54:41Z</time>
      </trkpt>
      <trkpt lat="45.96418" lon="3.93695">
        <ele>730</ele>
        <time>2019-04-18T19:55:41Z</time>
      </trkpt>
      <trkpt lat="45.96438" lon="3.93664">
        <ele>729</ele>
        <time>2019-04-18T19:56:41Z</time>
      </trkpt>
      <trkpt lat="45.96519" lon="3.93571">
        <ele>735</ele>
        <time>2019-04-18T19:57:41Z</time>
      </trkpt>
      <trkpt lat="45.9653" lon="3.93562">
        <ele>736</ele>
        <time>2019-04-18T19:58:41Z</time>
      </trkpt>
      <trkpt lat="45.96542" lon="3.93565">
        <ele>735</ele>
        <time>2019-04-18T19:59:41Z</time>
      </trkpt>
      <trkpt lat="45.96549" lon="3.9358">
        <ele>732</ele>
        <time>2019-04-18T20:00:41Z</time>
      </trkpt>
      <trkpt lat="45.96548" lon="3.93596">
        <ele>729</ele>
        <time>2019-04-18T20:01:41Z</time>
      </trkpt>
      <trkpt lat="45.96532" lon="3.93617">
        <ele>725</ele>
        <time>2019-04-18T20:02:41Z</time>
      </trkpt>
      <trkpt lat="45.96507" lon="3.93641">
        <ele>721</ele>
        <time>2019-04-18T20:03:41Z</time>
      </trkpt>
      <trkpt lat="45.96484" lon="3.93672">
        <ele>718</ele>
        <time>2019-04-18T20:04:41Z</time>
      </trkpt>
      <trkpt lat="45.96472" lon="3.93706">
        <ele>716</ele>
        <time>2019-04-18T20:05:41Z</time>
      </trkpt>
      <trkpt lat="45.96467" lon="3.93734">
        <ele>714</ele>
        <time>2019-04-18T20:06:41Z</time>
      </trkpt>
      <trkpt lat="45.96467" lon="3.93766">
        <ele>712</ele>
        <time>2019-04-18T20:07:41Z</time>
      </trkpt>
      <trkpt lat="45.96472" lon="3.93803">
        <ele>711</ele>
        <time>2019-04-18T20:08:41Z</time>
      </trkpt>
      <trkpt lat="45.96535" lon="3.93964">
        <ele>698</ele>
        <time>2019-04-18T20:09:41Z</time>
      </trkpt>
      <trkpt lat="45.96544" lon="3.94007">
        <ele>695</ele>
        <time>2019-04-18T20:10:41Z</time>
      </trkpt>
      <trkpt lat="45.96545" lon="3.94038">
        <ele>692</ele>
        <time>2019-04-18T20:11:41Z</time>
      </trkpt>
      <trkpt lat="45.96536" lon="3.94079">
        <ele>691</ele>
        <time>2019-04-18T20:12:41Z</time>
      </trkpt>
      <trkpt lat="45.96529" lon="3.94097">
        <ele>690</ele>
        <time>2019-04-18T20:13:41Z</time>
      </trkpt>
      <trkpt lat="45.96521" lon="3.94109">
        <ele>690</ele>
        <time>2019-04-18T20:14:41Z</time>
      </trkpt>
      <trkpt lat="45.96504" lon="3.94128">
        <ele>691</ele>
        <time>2019-04-18T20:15:41Z</time>
      </trkpt>
      <trkpt lat="45.96428" lon="3.94176">
        <ele>684</ele>
        <time>2019-04-18T20:16:41Z</time>
      </trkpt>
      <trkpt lat="45.96346" lon="3.9424">
        <ele>683</ele>
        <time>2019-04-18T20:17:41Z</time>
      </trkpt>
      <trkpt lat="45.96327" lon="3.94257">
        <ele>684</ele>
        <time>2019-04-18T20:18:41Z</time>
      </trkpt>
      <trkpt lat="45.96318" lon="3.94272">
        <ele>684</ele>
        <time>2019-04-18T20:19:41Z</time>
      </trkpt>
      <trkpt lat="45.96315" lon="3.94291">
        <ele>682</ele>
        <time>2019-04-18T20:20:41Z</time>
      </trkpt>
      <trkpt lat="45.96316" lon="3.94309">
        <ele>679</ele>
        <time>2019-04-18T20:21:41Z</time>
      </trkpt>
      <trkpt lat="45.96322" lon="3.94326">
        <ele>675</ele>
        <time>2019-04-18T20:22:41Z</time>
      </trkpt>
      <trkpt lat="45.96333" lon="3.9434">
        <ele>671</ele>
        <time>2019-04-18T20:23:41Z</time>
      </trkpt>
      <trkpt lat="45.96343" lon="3.94345">
        <ele>669</ele>
        <time>2019-04-18T20:24:41Z</time>
      </trkpt>
      <trkpt lat="45.96527" lon="3.9433">
        <ele>663</ele>
        <time>2019-04-18T20:25:41Z</time>
      </trkpt>
      <trkpt lat="45.96556" lon="3.9432">
        <ele>661</ele>
        <time>2019-04-18T20:26:41Z</time>
      </trkpt>
      <trkpt lat="45.9658" lon="3.94302">
        <ele>660</ele>
        <time>2019-04-18T20:27:41Z</time>
      </trkpt>
      <trkpt lat="45.96605" lon="3.94274">
        <ele>657</ele>
        <time>2019-04-18T20:28:41Z</time>
      </trkpt>
      <trkpt lat="45.96674" lon="3.94182">
        <ele>648</ele>
        <time>2019-04-18T20:29:41Z</time>
      </trkpt>
      <trkpt lat="45.9669" lon="3.94166">
        <ele>647</ele>
        <time>2019-04-18T20:30:41Z</time>
      </trkpt>
      <trkpt lat="45.96707" lon="3.94158">
        <ele>646</ele>
        <time>2019-04-18T20:31:41Z</time>
      </trkpt>
      <trkpt lat="45.9673" lon="3.94152">
        <ele>643</ele>
        <time>2019-04-18T20:32:41Z</time>
      </trkpt>
      <trkpt lat="45.96762" lon="3.94159">
        <ele>640</ele>
        <time>2019-04-18T20:33:41Z</time>
      </trkpt>
      <trkpt lat="45.96775" lon="3.94168">
        <ele>639</ele>
        <time>2019-04-18T20:34:41Z</time>
      </trkpt>
      <trkpt lat="45.96789" lon="3.94182">
        <ele>639</ele>
        <time>2019-04-18T20:35:41Z</time>
      </trkpt>
      <trkpt lat="45.968" lon="3.94197">
        <ele>638</ele>
        <time>2019-04-18T20:36:41Z</time>
      </trkpt>
      <trkpt lat="45.96811" lon="3.94218">
        <ele>636</ele>
        <time>2019-04-18T20:37:41Z</time>
      </trkpt>
      <trkpt lat="45.96819" lon="3.94244">
        <ele>634</ele>
        <time>2019-04-18T20:38:41Z</time>
      </trkpt>
      <trkpt lat="45.96906" lon="3.94801">
        <ele>613</ele>
        <time>2019-04-18T20:39:41Z</time>
      </trkpt>
      <trkpt lat="45.96934" lon="3.94886">
        <ele>606</ele>
        <time>2019-04-18T20:40:41Z</time>
      </trkpt>
      <trkpt lat="45.96984" lon="3.94996">
        <ele>596</ele>
        <time>2019-04-18T20:41:41Z</time>
      </trkpt>
      <trkpt lat="45.97066" lon="3.95167">
        <ele>585</ele>
        <time>2019-04-18T20:42:41Z</time>
      </trkpt>
      <trkpt lat="45.97083" lon="3.95189">
        <ele>584</ele>
        <time>2019-04-18T20:43:41Z</time>
      </trkpt>
      <trkpt lat="45.97101" lon="3.95203">
        <ele>582</ele>
        <time>2019-04-18T20:44:41Z</time>
      </trkpt>
      <trkpt lat="45.97121" lon="3.95214">
        <ele>581</ele>
        <time>2019-04-18T20:45:41Z</time>
      </trkpt>
      <trkpt lat="45.97137" lon="3.95219">
        <ele>580</ele>
        <time>2019-04-18T20:46:41Z</time>
      </trkpt>
      <trkpt lat="45.97156" lon="3.95218">
        <ele>581</ele>
        <time>2019-04-18T20:47:41Z</time>
      </trkpt>
      <trkpt lat="45.97173" lon="3.95214">
        <ele>580</ele>
        <time>2019-04-18T20:48:41Z</time>
      </trkpt>
      <trkpt lat="45.97195" lon="3.95201">
        <ele>578</ele>
        <time>2019-04-18T20:49:41Z</time>
      </trkpt>
      <trkpt lat="45.97218" lon="3.95181">
        <ele>575</ele>
        <time>2019-04-18T20:50:41Z</time>
      </trkpt>
      <trkpt lat="45.97234" lon="3.95152">
        <ele>574</ele>
        <time>2019-04-18T20:51:41Z</time>
      </trkpt>
      <trkpt lat="45.973" lon="3.94995">
        <ele>563</ele>
        <time>2019-04-18T20:52:41Z</time>
      </trkpt>
      <trkpt lat="45.97326" lon="3.94959">
        <ele>560</ele>
        <time>2019-04-18T20:53:41Z</time>
      </trkpt>
      <trkpt lat="45.97359" lon="3.94935">
        <ele>558</ele>
        <time>2019-04-18T20:54:41Z</time>
      </trkpt>
      <trkpt lat="45.97609" lon="3.94835">
        <ele>544</ele>
        <time>2019-04-18T20:55:41Z</time>
      </trkpt>
      <trkpt lat="45.97626" lon="3.94832">
        <ele>543</ele>
        <time>2019-04-18T20:56:41Z</time>
      </trkpt>
      <trkpt lat="45.97688" lon="3.9484">
        <ele>538</ele>
        <time>2019-04-18T20:57:41Z</time>
      </trkpt>
      <trkpt lat="45.97714" lon="3.94832">
        <ele>536</ele>
        <time>2019-04-18T20:58:41Z</time>
      </trkpt>
      <trkpt lat="45.97747" lon="3.94799">
        <ele>533</ele>
        <time>2019-04-18T20:59:41Z</time>
      </trkpt>
      <trkpt lat="45.97765" lon="3.94793">
        <ele>530</ele>
        <time>2019-04-18T21:00:41Z</time>
      </trkpt>
      <trkpt lat="45.97781" lon="3.94794">
        <ele>528</ele>
        <time>2019-04-18T21:01:41Z</time>
      </trkpt>
      <trkpt lat="45.97811" lon="3.94822">
        <ele>526</ele>
        <time>2019-04-18T21:02:41Z</time>
      </trkpt>
      <trkpt lat="45.97879" lon="3.94891">
        <ele>520</ele>
        <time>2019-04-18T21:03:41Z</time>
      </trkpt>
      <trkpt lat="45.97898" lon="3.94904">
        <ele>520</ele>
        <time>2019-04-18T21:04:41Z</time>
      </trkpt>
      <trkpt lat="45.97922" lon="3.94904">
        <ele>518</ele>
        <time>2019-04-18T21:05:41Z</time>
      </trkpt>
      <trkpt lat="45.9794" lon="3.94908">
        <ele>516</ele>
        <time>2019-04-18T21:06:41Z</time>
      </trkpt>
      <trkpt lat="45.97957" lon="3.94919">
        <ele>514</ele>
        <time>2019-04-18T21:07:41Z</time>
      </trkpt>
      <trkpt lat="45.9797" lon="3.9494">
        <ele>512</ele>
        <time>2019-04-18T21:08:41Z</time>
      </trkpt>
      <trkpt lat="45.98045" lon="3.95124">
        <ele>499</ele>
        <time>2019-04-18T21:09:41Z</time>
      </trkpt>
      <trkpt lat="45.98075" lon="3.95165">
        <ele>497</ele>
        <time>2019-04-18T21:10:41Z</time>
      </trkpt>
      <trkpt lat="45.98082" lon="3.95182">
        <ele>497</ele>
        <time>2019-04-18T21:11:41Z</time>
      </trkpt>
      <trkpt lat="45.98083" lon="3.95205">
        <ele>497</ele>
        <time>2019-04-18T21:12:41Z</time>
      </trkpt>
      <trkpt lat="45.98076" lon="3.95229">
        <ele>496</ele>
        <time>2019-04-18T21:13:41Z</time>
      </trkpt>
      <trkpt lat="45.98065" lon="3.95242">
        <ele>496</ele>
        <time>2019-04-18T21:14:41Z</time>
      </trkpt>
      <trkpt lat="45.98049" lon="3.9525">
        <ele>496</ele>
        <time>2019-04-18T21:15:41Z</time>
      </trkpt>
      <trkpt lat="45.9796" lon="3.95257">
        <ele>493</ele>
        <time>2019-04-18T21:16:41Z</time>
      </trkpt>
      <trkpt lat="45.97923" lon="3.9524">
        <ele>494</ele>
        <time>2019-04-18T21:17:41Z</time>
      </trkpt>
      <trkpt lat="45.97912" lon="3.95242">
        <ele>494</ele>
        <time>2019-04-18T21:18:41Z</time>
      </trkpt>
      <trkpt lat="45.97902" lon="3.95247">
        <ele>493</ele>
        <time>2019-04-18T21:19:41Z</time>
      </trkpt>
      <trkpt lat="45.97885" lon="3.95261">
        <ele>491</ele>
        <time>2019-04-18T21:20:41Z</time>
      </trkpt>
      <trkpt lat="45.97874" lon="3.9526">
        <ele>491</ele>
        <time>2019-04-18T21:21:41Z</time>
      </trkpt>
      <trkpt lat="45.97865" lon="3.95256">
        <ele>491</ele>
        <time>2019-04-18T21:22:41Z</time>
      </trkpt>
      <trkpt lat="45.97825" lon="3.95228">
        <ele>494</ele>
        <time>2019-04-18T21:23:41Z</time>
      </trkpt>
      <trkpt lat="45.97814" lon="3.95225">
        <ele>495</ele>
        <time>2019-04-18T21:24:41Z</time>
      </trkpt>
      <trkpt lat="45.978" lon="3.95228">
        <ele>495</ele>
        <time>2019-04-18T21:25:41Z</time>
      </trkpt>
      <trkpt lat="45.9779" lon="3.95241">
        <ele>494</ele>
        <time>2019-04-18T21:26:41Z</time>
      </trkpt>
      <trkpt lat="45.97787" lon="3.95265">
        <ele>493</ele>
        <time>2019-04-18T21:27:41Z</time>
      </trkpt>
      <trkpt lat="45.97806" lon="3.9532">
        <ele>488</ele>
        <time>2019-04-18T21:28:41Z</time>
      </trkpt>
      <trkpt lat="45.97977" lon="3.95754">
        <ele>455</ele>
        <time>2019-04-18T21:29:41Z</time>
      </trkpt>
      <trkpt lat="45.97982" lon="3.9578">
        <ele>453</ele>
        <time>2019-04-18T21:30:41Z</time>
      </trkpt>
      <trkpt lat="45.97983" lon="3.95802">
        <ele>453</ele>
        <time>2019-04-18T21:31:41Z</time>
      </trkpt>
      <trkpt lat="45.97979" lon="3.95823">
        <ele>452</ele>
        <time>2019-04-18T21:32:41Z</time>
      </trkpt>
      <trkpt lat="45.97953" lon="3.95887">
        <ele>450</ele>
        <time>2019-04-18T21:33:41Z</time>
      </trkpt>
      <trkpt lat="45.97947" lon="3.95911">
        <ele>449</ele>
        <time>2019-04-18T21:34:41Z</time>
      </trkpt>
      <trkpt lat="45.97946" lon="3.9593">
        <ele>448</ele>
        <time>2019-04-18T21:35:41Z</time>
      </trkpt>
      <trkpt lat="45.97949" lon="3.95952">
        <ele>447</ele>
        <time>2019-04-18T21:36:41Z</time>
      </trkpt>
      <trkpt lat="45.97956" lon="3.95975">
        <ele>446</ele>
        <time>2019-04-18T21:37:41Z</time>
      </trkpt>
      <trkpt lat="45.97968" lon="3.95998">
        <ele>445</ele>
        <time>2019-04-18T21:38:41Z</time>
      </trkpt>
      <trkpt lat="45.97984" lon="3.96015">
        <ele>443</ele>
        <time>2019-04-18T21:39:41Z</time>
      </trkpt>
      <trkpt lat="45.98002" lon="3.96024">
        <ele>442</ele>
        <time>2019-04-18T21:40:41Z</time>
      </trkpt>
      <trkpt lat="45.98021" lon="3.96026">
        <ele>441</ele>
        <time>2019-04-18T21:41:41Z</time>
      </trkpt>
      <trkpt lat="45.98041" lon="3.96022">
        <ele>439</ele>
        <time>2019-04-18T21:42:41Z</time>
      </trkpt>
      <trkpt lat="45.98061" lon="3.96004">
        <ele>439</ele>
        <time>2019-04-18T21:43:41Z</time>
      </trkpt>
      <trkpt lat="45.98091" lon="3.95957">
        <ele>438</ele>
        <time>2019-04-18T21:44:41Z</time>
      </trkpt>
      <trkpt lat="45.98109" lon="3.9594">
        <ele>438</ele>
        <time>2019-04-18T21:45:41Z</time>
      </trkpt>
      <trkpt lat="45.98124" lon="3.95934">
        <ele>438</ele>
        <time>2019-04-18T21:46:41Z</time>
      </trkpt>
      <trkpt lat="45.98142" lon="3.95934">
        <ele>437</ele>
        <time>2019-04-18T21:47:41Z</time>
      </trkpt>
      <trkpt lat="45.98161" lon="3.95942">
        <ele>436</ele>
        <time>2019-04-18T21:48:41Z</time>
      </trkpt>
      <trkpt lat="45.98176" lon="3.95953">
        <ele>435</ele>
        <time>2019-04-18T21:49:41Z</time>
      </trkpt>
      <trkpt lat="45.98232" lon="3.96037">
        <ele>427</ele>
        <time>2019-04-18T21:50:41Z</time>
      </trkpt>
      <trkpt lat="45.98269" lon="3.96109">
        <ele>422</ele>
        <time>2019-04-18T21:51:41Z</time>
      </trkpt>
      <trkpt lat="45.98299" lon="3.96177">
        <ele>419</ele>
        <time>2019-04-18T21:52:41Z</time>
      </trkpt>
      <trkpt lat="45.98308" lon="3.96206">
        <ele>418</ele>
        <time>2019-04-18T21:53:41Z</time>
      </trkpt>
      <trkpt lat="45.9831" lon="3.96225">
        <ele>417</ele>
        <time>2019-04-18T21:54:41Z</time>
      </trkpt>
      <trkpt lat="45.98306" lon="3.96237">
        <ele>417</ele>
        <time>2019-04-18T21:55:41Z</time>
      </trkpt>
      <trkpt lat="45.98305" lon="3.96249">
        <ele>416</ele>
        <time>2019-04-18T21:56:41Z</time>
      </trkpt>
      <trkpt lat="45.98307" lon="3.96258">
        <ele>416</ele>
        <time>2019-04-18T21:57:41Z</time>
      </trkpt>
      <trkpt lat="45.98317" lon="3.96269">
        <ele>415</ele>
        <time>2019-04-18T21:58:41Z</time>
      </trkpt>
      <trkpt lat="45.98325" lon="3.96271">
        <ele>414</ele>
        <time>2019-04-18T21:59:41Z</time>
      </trkpt>
      <trkpt lat="45.98361" lon="3.96318">
        <ele>412</ele>
        <time>2019-04-18T22:00:41Z</time>
      </trkpt>
      <trkpt lat="45.98367" lon="3.96328">
        <ele>412</ele>
        <time>2019-04-18T22:01:41Z</time>
      </trkpt>
      <trkpt lat="45.98512" lon="3.96663">
        <ele>397</ele>
        <time>2019-04-18T22:02:41Z</time>
      </trkpt>
      <trkpt lat="45.98655" lon="3.96984">
        <ele>390</ele>
        <time>2019-04-18T22:03:41Z</time>
      </trkpt>
      <trkpt lat="45.98706" lon="3.97108">
        <ele>389</ele>
        <time>2019-04-18T22:04:41Z</time>
      </trkpt>
      <trkpt lat="45.99022" lon="3.97839">
        <ele>378</ele>
        <time>2019-04-18T22:05:41Z</time>
      </trkpt>
      <trkpt lat="45.99208" lon="3.98264">
        <ele>373</ele>
        <time>2019-04-18T22:06:41Z</time>
      </trkpt>
      <trkpt lat="45.99215" lon="3.98283">
        <ele>373</ele>
        <time>2019-04-18T22:07:41Z</time>
      </trkpt>
      <trkpt lat="45.99267" lon="3.98406">
        <ele>372</ele>
        <time>2019-04-18T22:08:41Z</time>
      </trkpt>
      <trkpt lat="45.99315" lon="3.98515">
        <ele>372</ele>
        <time>2019-04-18T22:09:41Z</time>
      </trkpt>
      <trkpt lat="45.99322" lon="3.98528">
        <ele>372</ele>
        <time>2019-04-18T22:10:41Z</time>
      </trkpt>
      <trkpt lat="45.99388" lon="3.98678">
        <ele>368</ele>
        <time>2019-04-18T22:11:41Z</time>
      </trkpt>
      <trkpt lat="45.99403" lon="3.98724">
        <ele>367</ele>
        <time>2019-04-18T22:12:41Z</time>
      </trkpt>
      <trkpt lat="45.99433" lon="3.98794">
        <ele>366</ele>
        <time>2019-04-18T22:13:41Z</time>
      </trkpt>
      <trkpt lat="45.99421" lon="3.98889">
        <ele>364</ele>
        <time>2019-04-18T22:14:41Z</time>
      </trkpt>
      <trkpt lat="45.99416" lon="3.98959">
        <ele>363</ele>
        <time>2019-04-18T22:15:41Z</time>
      </trkpt>
      <trkpt lat="45.99412" lon="3.98987">
        <ele>363</ele>
        <time>2019-04-18T22:16:41Z</time>
      </trkpt>
      <trkpt lat="45.99385" lon="3.99096">
        <ele>362</ele>
        <time>2019-04-18T22:17:41Z</time>
      </trkpt>
      <trkpt lat="45.99336" lon="3.99302">
        <ele>360</ele>
        <time>2019-04-18T22:18:41Z</time>
      </trkpt>
      <trkpt lat="45.99325" lon="3.99357">
        <ele>360</ele>
        <time>2019-04-18T22:19:41Z</time>
      </trkpt>
      <trkpt lat="45.9931" lon="3.99416">
        <ele>360</ele>
        <time>2019-04-18T22:20:41Z</time>
      </trkpt>
      <trkpt lat="45.99284" lon="3.99477">
        <ele>360</ele>
        <time>2019-04-18T22:21:41Z</time>
      </trkpt>
      <trkpt lat="45.99259" lon="3.99553">
        <ele>359</ele>
        <time>2019-04-18T22:22:41Z</time>
      </trkpt>
      <trkpt lat="45.99237" lon="3.99629">
        <ele>360</ele>
        <time>2019-04-18T22:23:41Z</time>
      </trkpt>
      <trkpt lat="45.99207" lon="3.99758">
        <ele>360</ele>
        <time>2019-04-18T22:24:41Z</time>
      </trkpt>
      <trkpt lat="45.99192" lon="3.99813">
        <ele>361</ele>
        <time>2019-04-18T22:25:41Z</time>
      </trkpt>
      <trkpt lat="45.99162" lon="3.99881">
        <ele>362</ele>
        <time>2019-04-18T22:26:41Z</time>
      </trkpt>
      <trkpt lat="45.9911" lon="3.99972">
        <ele>363</ele>
        <time>2019-04-18T22:27:41Z</time>
      </trkpt>
      <trkpt lat="45.99092" lon="4.00015">
        <ele>364</ele>
        <time>2019-04-18T22:28:41Z</time>
      </trkpt>
      <trkpt lat="45.99079" lon="4.00057">
        <ele>365</ele>
        <time>2019-04-18T22:29:41Z</time>
      </trkpt>
      <trkpt lat="45.99061" lon="4.00135">
        <ele>368</ele>
        <time>2019-04-18T22:30:41Z</time>
      </trkpt>
      <trkpt lat="45.99037" lon="4.00256">
        <ele>374</ele>
        <time>2019-04-18T22:31:41Z</time>
      </trkpt>
      <trkpt lat="45.99022" lon="4.00304">
        <ele>375</ele>
        <time>2019-04-18T22:32:41Z</time>
      </trkpt>
      <trkpt lat="45.98999" lon="4.00368">
        <ele>377</ele>
        <time>2019-04-18T22:33:41Z</time>
      </trkpt>
      <trkpt lat="45.98973" lon="4.00425">
        <ele>379</ele>
        <time>2019-04-18T22:34:41Z</time>
      </trkpt>
      <trkpt lat="45.98947" lon="4.00487">
        <ele>380</ele>
        <time>2019-04-18T22:35:41Z</time>
      </trkpt>
      <trkpt lat="45.98931" lon="4.00545">
        <ele>382</ele>
        <time>2019-04-18T22:36:41Z</time>
      </trkpt>
      <trkpt lat="45.98919" lon="4.0065">
        <ele>385</ele>
        <time>2019-04-18T22:37:41Z</time>
      </trkpt>
      <trkpt lat="45.98912" lon="4.00776">
        <ele>388</ele>
        <time>2019-04-18T22:38:41Z</time>
      </trkpt>
      <trkpt lat="45.98899" lon="4.00918">
        <ele>392</ele>
        <time>2019-04-18T22:39:41Z</time>
      </trkpt>
      <trkpt lat="45.98887" lon="4.01022">
        <ele>396</ele>
        <time>2019-04-18T22:40:41Z</time>
      </trkpt>
      <trkpt lat="45.9888" lon="4.0112">
        <ele>400</ele>
        <time>2019-04-18T22:41:41Z</time>
      </trkpt>
      <trkpt lat="45.98884" lon="4.01181">
        <ele>401</ele>
        <time>2019-04-18T22:42:41Z</time>
      </trkpt>
      <trkpt lat="45.98912" lon="4.01413">
        <ele>408</ele>
        <time>2019-04-18T22:43:41Z</time>
      </trkpt>
      <trkpt lat="45.98932" lon="4.01556">
        <ele>408</ele>
        <time>2019-04-18T22:44:41Z</time>
      </trkpt>
      <trkpt lat="45.98944" lon="4.01607">
        <ele>408</ele>
        <time>2019-04-18T22:45:41Z</time>
      </trkpt>
      <trkpt lat="45.98973" lon="4.01715">
        <ele>408</ele>
        <time>2019-04-18T22:46:41Z</time>
      </trkpt>
      <trkpt lat="45.98986" lon="4.01771">
        <ele>408</ele>
        <time>2019-04-18T22:47:41Z</time>
      </trkpt>
      <trkpt lat="45.98993" lon="4.01833">
        <ele>409</ele>
        <time>2019-04-18T22:48:41Z</time>
      </trkpt>
      <trkpt lat="45.98993" lon="4.01878">
        <ele>410</ele>
        <time>2019-04-18T22:49:41Z</time>
      </trkpt>
      <trkpt lat="45.9899" lon="4.01938">
        <ele>410</ele>
        <time>2019-04-18T22:50:41Z</time>
      </trkpt>
      <trkpt lat="45.98984" lon="4.02052">
        <ele>407</ele>
        <time>2019-04-18T22:51:41Z</time>
      </trkpt>
      <trkpt lat="45.98984" lon="4.02126">
        <ele>404</ele>
        <time>2019-04-18T22:52:41Z</time>
      </trkpt>
      <trkpt lat="45.98993" lon="4.02216">
        <ele>399</ele>
        <time>2019-04-18T22:53:41Z</time>
      </trkpt>
      <trkpt lat="45.9903" lon="4.0243">
        <ele>389</ele>
        <time>2019-04-18T22:54:41Z</time>
      </trkpt>
      <trkpt lat="45.99027" lon="4.025">
        <ele>388</ele>
        <time>2019-04-18T22:55:41Z</time>
      </trkpt>
      <trkpt lat="45.99021" lon="4.02584">
        <ele>385</ele>
        <time>2019-04-18T22:56:41Z</time>
      </trkpt>
      <trkpt lat="45.99019" lon="4.02692">
        <ele>380</ele>
        <time>2019-04-18T22:57:41Z</time>
      </trkpt>
      <trkpt lat="45.99026" lon="4.02769">
        <ele>374</ele>
        <time>2019-04-18T22:58:41Z</time>
      </trkpt>
      <trkpt lat="45.9905" lon="4.02891">
        <ele>365</ele>
        <time>2019-04-18T22:59:41Z</time>
      </trkpt>
      <trkpt lat="45.99068" lon="4.03018">
        <ele>360</ele>
        <time>2019-04-18T23:00:41Z</time>
      </trkpt>
      <trkpt lat="45.99081" lon="4.03217">
        <ele>353</ele>
        <time>2019-04-18T23:01:41Z</time>
      </trkpt>
      <trkpt lat="45.99106" lon="4.03355">
        <ele>353</ele>
        <time>2019-04-18T23:02:41Z</time>
      </trkpt>
      <trkpt lat="45.99108" lon="4.03385">
        <ele>353</ele>
        <time>2019-04-18T23:03:41Z</time>
      </trkpt>
      <trkpt lat="45.99104" lon="4.03422">
        <ele>353</ele>
        <time>2019-04-18T23:04:41Z</time>
      </trkpt>
      <trkpt lat="45.99095" lon="4.03424">
        <ele>353</ele>
        <time>2019-04-18T23:05:41Z</time>
      </trkpt>
      <trkpt lat="45.99089" lon="4.03434">
        <ele>353</ele>
        <time>2019-04-18T23:06:41Z</time>
      </trkpt>
      <trkpt lat="45.99088" lon="4.03448">
        <ele>353</ele>
        <time>2019-04-18T23:07:41Z</time>
      </trkpt>
      <trkpt lat="45.99091" lon="4.03454">
        <ele>353</ele>
        <time>2019-04-18T23:08:41Z</time>
      </trkpt>
      <trkpt lat="45.9909" lon="4.03466">
        <ele>354</ele>
        <time>2019-04-18T23:09:41Z</time>
      </trkpt>
      <trkpt lat="45.99084" lon="4.03502">
        <ele>354</ele>
        <time>2019-04-18T23:10:41Z</time>
      </trkpt>
      <trkpt lat="45.9909" lon="4.03494">
        <ele>354</ele>
        <time>2019-04-18T23:11:41Z</time>
      </trkpt>
      <trkpt lat="45.99105" lon="4.03516">
        <ele>354</ele>
        <time>2019-04-18T23:12:41Z</time>
      </trkpt>
      <trkpt lat="45.99111" lon="4.03536">
        <ele>354</ele>
        <time>2019-04-18T23:13:41Z</time>
      </trkpt>
      <trkpt lat="45.99115" lon="4.03633">
        <ele>357</ele>
        <time>2019-04-18T23:14:41Z</time>
      </trkpt>
      <trkpt lat="45.99135" lon="4.03823">
        <ele>363</ele>
        <time>2019-04-18T23:15:41Z</time>
      </trkpt>
      <trkpt lat="45.99142" lon="4.0391">
        <ele>360</ele>
        <time>2019-04-18T23:16:41Z</time>
      </trkpt>
      <trkpt lat="45.99141" lon="4.03935">
        <ele>359</ele>
        <time>2019-04-18T23:17:41Z</time>
      </trkpt>
      <trkpt lat="45.99144" lon="4.03954">
        <ele>357</ele>
        <time>2019-04-18T23:18:41Z</time>
      </trkpt>
      <trkpt lat="45.9915" lon="4.03967">
        <ele>356</ele>
        <time>2019-04-18T23:19:41Z</time>
      </trkpt>
      <trkpt lat="45.99139" lon="4.0398">
        <ele>356</ele>
        <time>2019-04-18T23:20:41Z</time>
      </trkpt>
      <trkpt lat="45.99116" lon="4.03998">
        <ele>356</ele>
        <time>2019-04-18T23:21:41Z</time>
      </trkpt>
      <trkpt lat="45.99094" lon="4.04028">
        <ele>353</ele>
        <time>2019-04-18T23:22:41Z</time>
      </trkpt>
      <trkpt lat="45.99063" lon="4.04089">
        <ele>346</ele>
        <time>2019-04-18T23:23:41Z</time>
      </trkpt>
      <trkpt lat="45.99049" lon="4.04111">
        <ele>345</ele>
        <time>2019-04-18T23:24:41Z</time>
      </trkpt>
      <trkpt lat="45.98985" lon="4.04178">
        <ele>342</ele>
        <time>2019-04-18T23:25:41Z</time>
      </trkpt>
      <trkpt lat="45.98965" lon="4.04193">
        <ele>341</ele>
        <time>2019-04-18T23:26:41Z</time>
      </trkpt>
      <trkpt lat="45.98916" lon="4.04217">
        <ele>342</ele>
        <time>2019-04-18T23:27:41Z</time>
      </trkpt>
      <trkpt lat="45.98854" lon="4.04272">
        <ele>338</ele>
        <time>2019-04-18T23:28:41Z</time>
      </trkpt>
      <trkpt lat="45.98844" lon="4.04286">
        <ele>337</ele>
        <time>2019-04-18T23:29:41Z</time>
      </trkpt>
      <trkpt lat="45.98839" lon="4.04302">
        <ele>336</ele>
        <time>2019-04-18T23:30:41Z</time>
      </trkpt>
      <trkpt lat="45.98847" lon="4.04385">
        <ele>328</ele>
        <time>2019-04-18T23:31:41Z</time>
      </trkpt>
      <trkpt lat="45.9884" lon="4.04383">
        <ele>328</ele>
        <time>2019-04-18T23:32:41Z</time>
      </trkpt>
      <trkpt lat="45.98837" lon="4.04397">
        <ele>327</ele>
        <time>2019-04-18T23:33:41Z</time>
      </trkpt>
      <trkpt lat="45.98835" lon="4.0441">
        <ele>326</ele>
        <time>2019-04-18T23:34:41Z</time>
      </trkpt>
      <trkpt lat="45.98836" lon="4.04433">
        <ele>324</ele>
        <time>2019-04-18T23:35:41Z</time>
      </trkpt>
      <trkpt lat="45.98838" lon="4.04467">
        <ele>322</ele>
        <time>2019-04-18T23:36:41Z</time>
      </trkpt>
      <trkpt lat="45.98833" lon="4.04488">
        <ele>321</ele>
        <time>2019-04-18T23:37:41Z</time>
      </trkpt>
      <trkpt lat="45.98828" lon="4.04534">
        <ele>318</ele>
        <time>2019-04-18T23:38:41Z</time>
      </trkpt>
    </trkseg>
  </trk>
</gpx>